<?xml version="1.0" encoding="UTF-8" standalone="no" ?>
<gpx xmlns="http://www.topografix.com/GPX/1/1" xmlns:xsi="http://www.w3.org/2001/XMLSchema-instance" xsi:schemaLocation="http://www.topografix.com/GPX/1/1 http://www.topografix.com/GPX/1/1/gpx.xsd" version="1.1" creator="VisuGPX - https://www.visugpx.com">
  <metadata>
    <name>Course à pied le matin</name>
  </metadata>
  <trk>
    <name><![CDATA[Course à pied le matin_1]]></name>
    <trkseg>
      <trkpt lat="44.39831" lon="4.38842">
        <ele>96.7</ele>
        <time>2024-03-02T07:34:13Z</time>
      </trkpt>
      <trkpt lat="44.39836" lon="4.38866">
        <ele>95.2</ele>
        <time>2024-03-02T07:34:20Z</time>
      </trkpt>
      <trkpt lat="44.39835" lon="4.3887">
        <ele>95</ele>
        <time>2024-03-02T07:34:21Z</time>
      </trkpt>
      <trkpt lat="44.39818" lon="4.38887">
        <ele>93.8</ele>
        <time>2024-03-02T07:34:28Z</time>
      </trkpt>
      <trkpt lat="44.39804" lon="4.38906">
        <ele>93.5</ele>
        <time>2024-03-02T07:34:35Z</time>
      </trkpt>
      <trkpt lat="44.39793" lon="4.38927">
        <ele>93.6</ele>
        <time>2024-03-02T07:34:43Z</time>
      </trkpt>
      <trkpt lat="44.39775" lon="4.38934">
        <ele>93.6</ele>
        <time>2024-03-02T07:34:51Z</time>
      </trkpt>
      <trkpt lat="44.39755" lon="4.3894">
        <ele>93.2</ele>
        <time>2024-03-02T07:34:59Z</time>
      </trkpt>
      <trkpt lat="44.39737" lon="4.38948">
        <ele>91.8</ele>
        <time>2024-03-02T07:35:06Z</time>
      </trkpt>
      <trkpt lat="44.39718" lon="4.38956">
        <ele>90.3</ele>
        <time>2024-03-02T07:35:13Z</time>
      </trkpt>
      <trkpt lat="44.39701" lon="4.38964">
        <ele>89.6</ele>
        <time>2024-03-02T07:35:20Z</time>
      </trkpt>
      <trkpt lat="44.39684" lon="4.38976">
        <ele>89.2</ele>
        <time>2024-03-02T07:35:28Z</time>
      </trkpt>
      <trkpt lat="44.39684" lon="4.38996">
        <ele>88.9</ele>
        <time>2024-03-02T07:35:38Z</time>
      </trkpt>
      <trkpt lat="44.39677" lon="4.39005">
        <ele>88.8</ele>
        <time>2024-03-02T07:35:45Z</time>
      </trkpt>
      <trkpt lat="44.39678" lon="4.39006">
        <ele>88.8</ele>
        <time>2024-03-02T07:35:53Z</time>
      </trkpt>
      <trkpt lat="44.39667" lon="4.38996">
        <ele>88.8</ele>
        <time>2024-03-02T07:36:03Z</time>
      </trkpt>
      <trkpt lat="44.39683" lon="4.39005">
        <ele>88.9</ele>
        <time>2024-03-02T07:36:11Z</time>
      </trkpt>
      <trkpt lat="44.39693" lon="4.3903">
        <ele>88.9</ele>
        <time>2024-03-02T07:36:18Z</time>
      </trkpt>
      <trkpt lat="44.39702" lon="4.39055">
        <ele>88.9</ele>
        <time>2024-03-02T07:36:25Z</time>
      </trkpt>
      <trkpt lat="44.39711" lon="4.3908">
        <ele>88.8</ele>
        <time>2024-03-02T07:36:32Z</time>
      </trkpt>
      <trkpt lat="44.39716" lon="4.39105">
        <ele>88.8</ele>
        <time>2024-03-02T07:36:39Z</time>
      </trkpt>
      <trkpt lat="44.39726" lon="4.39127">
        <ele>89</ele>
        <time>2024-03-02T07:36:46Z</time>
      </trkpt>
      <trkpt lat="44.3973" lon="4.39153">
        <ele>89.2</ele>
        <time>2024-03-02T07:36:53Z</time>
      </trkpt>
      <trkpt lat="44.39732" lon="4.39181">
        <ele>89.4</ele>
        <time>2024-03-02T07:37:00Z</time>
      </trkpt>
      <trkpt lat="44.39735" lon="4.39207">
        <ele>89.2</ele>
        <time>2024-03-02T07:37:06Z</time>
      </trkpt>
      <trkpt lat="44.39739" lon="4.39235">
        <ele>88.8</ele>
        <time>2024-03-02T07:37:13Z</time>
      </trkpt>
      <trkpt lat="44.39744" lon="4.39263">
        <ele>88.5</ele>
        <time>2024-03-02T07:37:20Z</time>
      </trkpt>
      <trkpt lat="44.39748" lon="4.3929">
        <ele>88.3</ele>
        <time>2024-03-02T07:37:27Z</time>
      </trkpt>
      <trkpt lat="44.39754" lon="4.39317">
        <ele>88.1</ele>
        <time>2024-03-02T07:37:34Z</time>
      </trkpt>
      <trkpt lat="44.3976" lon="4.39344">
        <ele>87.9</ele>
        <time>2024-03-02T07:37:41Z</time>
      </trkpt>
      <trkpt lat="44.39765" lon="4.39366">
        <ele>87.8</ele>
        <time>2024-03-02T07:37:49Z</time>
      </trkpt>
      <trkpt lat="44.3976" lon="4.39369">
        <ele>87.8</ele>
        <time>2024-03-02T07:37:55Z</time>
      </trkpt>
      <trkpt lat="44.39759" lon="4.39369">
        <ele>87.8</ele>
        <time>2024-03-02T07:37:56Z</time>
      </trkpt>
      <trkpt lat="44.39764" lon="4.39368">
        <ele>87.8</ele>
        <time>2024-03-02T07:39:32Z</time>
      </trkpt>
      <trkpt lat="44.39777" lon="4.39386">
        <ele>87.9</ele>
        <time>2024-03-02T07:39:40Z</time>
      </trkpt>
      <trkpt lat="44.39788" lon="4.39406">
        <ele>88.7</ele>
        <time>2024-03-02T07:39:46Z</time>
      </trkpt>
      <trkpt lat="44.39801" lon="4.39428">
        <ele>89.5</ele>
        <time>2024-03-02T07:39:53Z</time>
      </trkpt>
      <trkpt lat="44.39819" lon="4.39439">
        <ele>90.2</ele>
        <time>2024-03-02T07:40:00Z</time>
      </trkpt>
      <trkpt lat="44.39839" lon="4.39445">
        <ele>90.7</ele>
        <time>2024-03-02T07:40:07Z</time>
      </trkpt>
      <trkpt lat="44.39855" lon="4.39458">
        <ele>91.1</ele>
        <time>2024-03-02T07:40:14Z</time>
      </trkpt>
      <trkpt lat="44.39856" lon="4.39486">
        <ele>91</ele>
        <time>2024-03-02T07:40:21Z</time>
      </trkpt>
      <trkpt lat="44.39854" lon="4.39513">
        <ele>90.9</ele>
        <time>2024-03-02T07:40:28Z</time>
      </trkpt>
      <trkpt lat="44.39852" lon="4.39541">
        <ele>90.9</ele>
        <time>2024-03-02T07:40:35Z</time>
      </trkpt>
      <trkpt lat="44.39854" lon="4.39553">
        <ele>91</ele>
        <time>2024-03-02T07:40:39Z</time>
      </trkpt>
      <trkpt lat="44.39873" lon="4.39561">
        <ele>91.4</ele>
        <time>2024-03-02T07:40:47Z</time>
      </trkpt>
      <trkpt lat="44.3989" lon="4.39572">
        <ele>91.2</ele>
        <time>2024-03-02T07:40:54Z</time>
      </trkpt>
      <trkpt lat="44.39902" lon="4.39583">
        <ele>91.5</ele>
        <time>2024-03-02T07:41:00Z</time>
      </trkpt>
      <trkpt lat="44.39901" lon="4.3961">
        <ele>92.5</ele>
        <time>2024-03-02T07:41:09Z</time>
      </trkpt>
      <trkpt lat="44.39909" lon="4.39633">
        <ele>94.1</ele>
        <time>2024-03-02T07:41:19Z</time>
      </trkpt>
      <trkpt lat="44.39913" lon="4.39659">
        <ele>95.5</ele>
        <time>2024-03-02T07:41:31Z</time>
      </trkpt>
      <trkpt lat="44.39911" lon="4.39686">
        <ele>97</ele>
        <time>2024-03-02T07:41:40Z</time>
      </trkpt>
      <trkpt lat="44.39919" lon="4.3971">
        <ele>98.6</ele>
        <time>2024-03-02T07:41:50Z</time>
      </trkpt>
      <trkpt lat="44.39922" lon="4.39735">
        <ele>100.6</ele>
        <time>2024-03-02T07:42:01Z</time>
      </trkpt>
      <trkpt lat="44.39925" lon="4.39761">
        <ele>102.6</ele>
        <time>2024-03-02T07:42:10Z</time>
      </trkpt>
      <trkpt lat="44.3993" lon="4.39786">
        <ele>105</ele>
        <time>2024-03-02T07:42:21Z</time>
      </trkpt>
      <trkpt lat="44.39931" lon="4.39812">
        <ele>107</ele>
        <time>2024-03-02T07:42:29Z</time>
      </trkpt>
      <trkpt lat="44.39932" lon="4.3984">
        <ele>108.1</ele>
        <time>2024-03-02T07:42:37Z</time>
      </trkpt>
      <trkpt lat="44.3993" lon="4.39867">
        <ele>109.3</ele>
        <time>2024-03-02T07:42:45Z</time>
      </trkpt>
      <trkpt lat="44.39929" lon="4.39893">
        <ele>110.7</ele>
        <time>2024-03-02T07:42:54Z</time>
      </trkpt>
      <trkpt lat="44.39929" lon="4.3992">
        <ele>112.7</ele>
        <time>2024-03-02T07:43:03Z</time>
      </trkpt>
      <trkpt lat="44.3993" lon="4.3993">
        <ele>113.7</ele>
        <time>2024-03-02T07:43:07Z</time>
      </trkpt>
      <trkpt lat="44.39931" lon="4.39956">
        <ele>116.3</ele>
        <time>2024-03-02T07:43:18Z</time>
      </trkpt>
      <trkpt lat="44.39938" lon="4.3998">
        <ele>118.1</ele>
        <time>2024-03-02T07:43:28Z</time>
      </trkpt>
      <trkpt lat="44.39945" lon="4.40003">
        <ele>118.7</ele>
        <time>2024-03-02T07:43:38Z</time>
      </trkpt>
      <trkpt lat="44.39948" lon="4.40031">
        <ele>118</ele>
        <time>2024-03-02T07:43:47Z</time>
      </trkpt>
      <trkpt lat="44.39957" lon="4.40055">
        <ele>118</ele>
        <time>2024-03-02T07:43:55Z</time>
      </trkpt>
      <trkpt lat="44.39963" lon="4.4008">
        <ele>118.9</ele>
        <time>2024-03-02T07:44:03Z</time>
      </trkpt>
      <trkpt lat="44.39964" lon="4.40109">
        <ele>119.1</ele>
        <time>2024-03-02T07:44:11Z</time>
      </trkpt>
      <trkpt lat="44.3996" lon="4.40137">
        <ele>116.4</ele>
        <time>2024-03-02T07:44:17Z</time>
      </trkpt>
      <trkpt lat="44.39954" lon="4.40163">
        <ele>113.3</ele>
        <time>2024-03-02T07:44:23Z</time>
      </trkpt>
      <trkpt lat="44.39938" lon="4.40179">
        <ele>110.6</ele>
        <time>2024-03-02T07:44:29Z</time>
      </trkpt>
      <trkpt lat="44.39923" lon="4.40194">
        <ele>108.1</ele>
        <time>2024-03-02T07:44:35Z</time>
      </trkpt>
      <trkpt lat="44.39908" lon="4.40209">
        <ele>105.6</ele>
        <time>2024-03-02T07:44:41Z</time>
      </trkpt>
      <trkpt lat="44.39894" lon="4.40225">
        <ele>102.9</ele>
        <time>2024-03-02T07:44:47Z</time>
      </trkpt>
      <trkpt lat="44.39881" lon="4.40246">
        <ele>100.2</ele>
        <time>2024-03-02T07:44:53Z</time>
      </trkpt>
      <trkpt lat="44.3987" lon="4.40268">
        <ele>97.6</ele>
        <time>2024-03-02T07:44:59Z</time>
      </trkpt>
      <trkpt lat="44.39855" lon="4.40284">
        <ele>95.6</ele>
        <time>2024-03-02T07:45:05Z</time>
      </trkpt>
      <trkpt lat="44.39836" lon="4.40279">
        <ele>94.7</ele>
        <time>2024-03-02T07:45:11Z</time>
      </trkpt>
      <trkpt lat="44.39818" lon="4.40279">
        <ele>94</ele>
        <time>2024-03-02T07:45:17Z</time>
      </trkpt>
      <trkpt lat="44.39797" lon="4.4028">
        <ele>93.4</ele>
        <time>2024-03-02T07:45:24Z</time>
      </trkpt>
      <trkpt lat="44.39777" lon="4.40281">
        <ele>92.9</ele>
        <time>2024-03-02T07:45:31Z</time>
      </trkpt>
      <trkpt lat="44.39761" lon="4.40299">
        <ele>93.1</ele>
        <time>2024-03-02T07:45:38Z</time>
      </trkpt>
      <trkpt lat="44.39748" lon="4.40321">
        <ele>93.3</ele>
        <time>2024-03-02T07:45:45Z</time>
      </trkpt>
      <trkpt lat="44.39736" lon="4.4034">
        <ele>93.3</ele>
        <time>2024-03-02T07:45:52Z</time>
      </trkpt>
      <trkpt lat="44.39722" lon="4.40358">
        <ele>93.4</ele>
        <time>2024-03-02T07:45:59Z</time>
      </trkpt>
      <trkpt lat="44.39708" lon="4.40377">
        <ele>93.4</ele>
        <time>2024-03-02T07:46:06Z</time>
      </trkpt>
      <trkpt lat="44.39696" lon="4.40395">
        <ele>93.4</ele>
        <time>2024-03-02T07:46:13Z</time>
      </trkpt>
      <trkpt lat="44.39683" lon="4.40416">
        <ele>93.5</ele>
        <time>2024-03-02T07:46:21Z</time>
      </trkpt>
      <trkpt lat="44.39672" lon="4.40439">
        <ele>93.5</ele>
        <time>2024-03-02T07:46:28Z</time>
      </trkpt>
      <trkpt lat="44.39661" lon="4.40461">
        <ele>93.3</ele>
        <time>2024-03-02T07:46:35Z</time>
      </trkpt>
      <trkpt lat="44.3965" lon="4.40482">
        <ele>92.8</ele>
        <time>2024-03-02T07:46:42Z</time>
      </trkpt>
      <trkpt lat="44.39637" lon="4.40504">
        <ele>91.8</ele>
        <time>2024-03-02T07:46:50Z</time>
      </trkpt>
      <trkpt lat="44.39625" lon="4.40524">
        <ele>90.5</ele>
        <time>2024-03-02T07:46:58Z</time>
      </trkpt>
      <trkpt lat="44.39611" lon="4.40544">
        <ele>89.3</ele>
        <time>2024-03-02T07:47:06Z</time>
      </trkpt>
      <trkpt lat="44.39597" lon="4.40563">
        <ele>88.3</ele>
        <time>2024-03-02T07:47:14Z</time>
      </trkpt>
      <trkpt lat="44.39583" lon="4.40582">
        <ele>87.5</ele>
        <time>2024-03-02T07:47:21Z</time>
      </trkpt>
      <trkpt lat="44.39572" lon="4.40604">
        <ele>86.8</ele>
        <time>2024-03-02T07:47:29Z</time>
      </trkpt>
      <trkpt lat="44.39556" lon="4.40618">
        <ele>86.8</ele>
        <time>2024-03-02T07:47:37Z</time>
      </trkpt>
      <trkpt lat="44.39543" lon="4.40635">
        <ele>87.4</ele>
        <time>2024-03-02T07:47:44Z</time>
      </trkpt>
      <trkpt lat="44.39534" lon="4.40656">
        <ele>88.6</ele>
        <time>2024-03-02T07:47:53Z</time>
      </trkpt>
      <trkpt lat="44.39514" lon="4.40663">
        <ele>90.4</ele>
        <time>2024-03-02T07:48:03Z</time>
      </trkpt>
      <trkpt lat="44.39495" lon="4.40669">
        <ele>92.3</ele>
        <time>2024-03-02T07:48:13Z</time>
      </trkpt>
      <trkpt lat="44.39476" lon="4.40676">
        <ele>93.9</ele>
        <time>2024-03-02T07:48:22Z</time>
      </trkpt>
      <trkpt lat="44.39459" lon="4.40686">
        <ele>95.8</ele>
        <time>2024-03-02T07:48:33Z</time>
      </trkpt>
      <trkpt lat="44.39457" lon="4.40689">
        <ele>96.2</ele>
        <time>2024-03-02T07:48:35Z</time>
      </trkpt>
      <trkpt lat="44.39456" lon="4.40714">
        <ele>99</ele>
        <time>2024-03-02T07:48:46Z</time>
      </trkpt>
      <trkpt lat="44.39454" lon="4.40739">
        <ele>102</ele>
        <time>2024-03-02T07:48:59Z</time>
      </trkpt>
      <trkpt lat="44.39446" lon="4.40761">
        <ele>105.5</ele>
        <time>2024-03-02T07:49:12Z</time>
      </trkpt>
      <trkpt lat="44.39444" lon="4.40767">
        <ele>106.7</ele>
        <time>2024-03-02T07:49:15Z</time>
      </trkpt>
      <trkpt lat="44.39437" lon="4.40789">
        <ele>111.7</ele>
        <time>2024-03-02T07:49:30Z</time>
      </trkpt>
      <trkpt lat="44.39431" lon="4.40791">
        <ele>113.6</ele>
        <time>2024-03-02T07:49:39Z</time>
      </trkpt>
      <trkpt lat="44.39427" lon="4.4079">
        <ele>114.8</ele>
        <time>2024-03-02T07:49:43Z</time>
      </trkpt>
      <trkpt lat="44.39419" lon="4.40788">
        <ele>116.8</ele>
        <time>2024-03-02T07:49:51Z</time>
      </trkpt>
      <trkpt lat="44.39412" lon="4.40812">
        <ele>120.5</ele>
        <time>2024-03-02T07:50:04Z</time>
      </trkpt>
      <trkpt lat="44.39401" lon="4.40833">
        <ele>123.8</ele>
        <time>2024-03-02T07:50:17Z</time>
      </trkpt>
      <trkpt lat="44.39383" lon="4.40837">
        <ele>127</ele>
        <time>2024-03-02T07:50:32Z</time>
      </trkpt>
      <trkpt lat="44.39365" lon="4.40835">
        <ele>130.1</ele>
        <time>2024-03-02T07:50:44Z</time>
      </trkpt>
      <trkpt lat="44.39346" lon="4.40831">
        <ele>133.1</ele>
        <time>2024-03-02T07:50:59Z</time>
      </trkpt>
      <trkpt lat="44.39328" lon="4.40824">
        <ele>135.8</ele>
        <time>2024-03-02T07:51:11Z</time>
      </trkpt>
      <trkpt lat="44.39311" lon="4.40816">
        <ele>137.8</ele>
        <time>2024-03-02T07:51:21Z</time>
      </trkpt>
      <trkpt lat="44.39291" lon="4.40811">
        <ele>139.5</ele>
        <time>2024-03-02T07:51:30Z</time>
      </trkpt>
      <trkpt lat="44.39273" lon="4.40799">
        <ele>141.5</ele>
        <time>2024-03-02T07:51:39Z</time>
      </trkpt>
      <trkpt lat="44.39256" lon="4.40786">
        <ele>143.6</ele>
        <time>2024-03-02T07:51:48Z</time>
      </trkpt>
      <trkpt lat="44.39238" lon="4.40787">
        <ele>146.1</ele>
        <time>2024-03-02T07:52:01Z</time>
      </trkpt>
      <trkpt lat="44.3922" lon="4.40792">
        <ele>149.3</ele>
        <time>2024-03-02T07:52:15Z</time>
      </trkpt>
      <trkpt lat="44.39204" lon="4.40778">
        <ele>152.1</ele>
        <time>2024-03-02T07:52:25Z</time>
      </trkpt>
      <trkpt lat="44.39189" lon="4.40763">
        <ele>154.6</ele>
        <time>2024-03-02T07:52:35Z</time>
      </trkpt>
      <trkpt lat="44.3917" lon="4.40762">
        <ele>159</ele>
        <time>2024-03-02T07:52:48Z</time>
      </trkpt>
      <trkpt lat="44.39164" lon="4.40769">
        <ele>160.9</ele>
        <time>2024-03-02T07:52:55Z</time>
      </trkpt>
      <trkpt lat="44.39166" lon="4.40785">
        <ele>163.3</ele>
        <time>2024-03-02T07:53:02Z</time>
      </trkpt>
      <trkpt lat="44.39151" lon="4.40796">
        <ele>166.6</ele>
        <time>2024-03-02T07:53:16Z</time>
      </trkpt>
      <trkpt lat="44.3914" lon="4.40818">
        <ele>170.2</ele>
        <time>2024-03-02T07:53:28Z</time>
      </trkpt>
      <trkpt lat="44.39126" lon="4.40831">
        <ele>173.6</ele>
        <time>2024-03-02T07:53:43Z</time>
      </trkpt>
      <trkpt lat="44.39108" lon="4.40843">
        <ele>177.5</ele>
        <time>2024-03-02T07:53:55Z</time>
      </trkpt>
      <trkpt lat="44.39091" lon="4.40851">
        <ele>181.6</ele>
        <time>2024-03-02T07:54:10Z</time>
      </trkpt>
      <trkpt lat="44.39077" lon="4.40869">
        <ele>186</ele>
        <time>2024-03-02T07:54:23Z</time>
      </trkpt>
      <trkpt lat="44.39061" lon="4.40881">
        <ele>190</ele>
        <time>2024-03-02T07:54:36Z</time>
      </trkpt>
      <trkpt lat="44.39043" lon="4.40885">
        <ele>193.8</ele>
        <time>2024-03-02T07:54:51Z</time>
      </trkpt>
      <trkpt lat="44.39024" lon="4.40886">
        <ele>197.5</ele>
        <time>2024-03-02T07:55:03Z</time>
      </trkpt>
      <trkpt lat="44.39008" lon="4.40893">
        <ele>201.1</ele>
        <time>2024-03-02T07:55:13Z</time>
      </trkpt>
      <trkpt lat="44.38995" lon="4.4091">
        <ele>205.9</ele>
        <time>2024-03-02T07:55:25Z</time>
      </trkpt>
      <trkpt lat="44.38995" lon="4.40912">
        <ele>206.3</ele>
        <time>2024-03-02T07:55:26Z</time>
      </trkpt>
      <trkpt lat="44.38992" lon="4.40918">
        <ele>207.7</ele>
        <time>2024-03-02T07:55:30Z</time>
      </trkpt>
      <trkpt lat="44.38982" lon="4.40931">
        <ele>211.7</ele>
        <time>2024-03-02T07:55:42Z</time>
      </trkpt>
      <trkpt lat="44.38976" lon="4.40954">
        <ele>216.4</ele>
        <time>2024-03-02T07:55:56Z</time>
      </trkpt>
      <trkpt lat="44.38975" lon="4.40966">
        <ele>218.3</ele>
        <time>2024-03-02T07:56:02Z</time>
      </trkpt>
      <trkpt lat="44.38978" lon="4.40974">
        <ele>219.7</ele>
        <time>2024-03-02T07:56:07Z</time>
      </trkpt>
      <trkpt lat="44.38968" lon="4.40995">
        <ele>223.2</ele>
        <time>2024-03-02T07:56:19Z</time>
      </trkpt>
      <trkpt lat="44.38958" lon="4.41018">
        <ele>226.6</ele>
        <time>2024-03-02T07:56:31Z</time>
      </trkpt>
      <trkpt lat="44.38947" lon="4.41039">
        <ele>230.2</ele>
        <time>2024-03-02T07:56:41Z</time>
      </trkpt>
      <trkpt lat="44.38943" lon="4.41064">
        <ele>234.9</ele>
        <time>2024-03-02T07:56:55Z</time>
      </trkpt>
      <trkpt lat="44.38936" lon="4.4109">
        <ele>239.6</ele>
        <time>2024-03-02T07:57:09Z</time>
      </trkpt>
      <trkpt lat="44.38938" lon="4.41115">
        <ele>243.6</ele>
        <time>2024-03-02T07:57:22Z</time>
      </trkpt>
      <trkpt lat="44.38938" lon="4.41141">
        <ele>247</ele>
        <time>2024-03-02T07:57:33Z</time>
      </trkpt>
      <trkpt lat="44.38942" lon="4.41166">
        <ele>249.5</ele>
        <time>2024-03-02T07:57:43Z</time>
      </trkpt>
      <trkpt lat="44.38939" lon="4.41194">
        <ele>250</ele>
        <time>2024-03-02T07:57:51Z</time>
      </trkpt>
      <trkpt lat="44.38936" lon="4.4122">
        <ele>250.4</ele>
        <time>2024-03-02T07:57:58Z</time>
      </trkpt>
      <trkpt lat="44.38935" lon="4.41247">
        <ele>250.5</ele>
        <time>2024-03-02T07:58:05Z</time>
      </trkpt>
      <trkpt lat="44.38922" lon="4.41268">
        <ele>250.2</ele>
        <time>2024-03-02T07:58:12Z</time>
      </trkpt>
      <trkpt lat="44.38905" lon="4.41283">
        <ele>249.7</ele>
        <time>2024-03-02T07:58:19Z</time>
      </trkpt>
      <trkpt lat="44.38889" lon="4.41294">
        <ele>248.9</ele>
        <time>2024-03-02T07:58:26Z</time>
      </trkpt>
      <trkpt lat="44.38874" lon="4.41311">
        <ele>247.9</ele>
        <time>2024-03-02T07:58:33Z</time>
      </trkpt>
      <trkpt lat="44.38856" lon="4.41321">
        <ele>246.4</ele>
        <time>2024-03-02T07:58:40Z</time>
      </trkpt>
      <trkpt lat="44.38853" lon="4.41327">
        <ele>246</ele>
        <time>2024-03-02T07:58:42Z</time>
      </trkpt>
      <trkpt lat="44.3886" lon="4.4135">
        <ele>247.4</ele>
        <time>2024-03-02T07:58:49Z</time>
      </trkpt>
      <trkpt lat="44.38864" lon="4.41355">
        <ele>247.8</ele>
        <time>2024-03-02T07:58:51Z</time>
      </trkpt>
      <trkpt lat="44.38878" lon="4.41373">
        <ele>248.8</ele>
        <time>2024-03-02T07:58:58Z</time>
      </trkpt>
      <trkpt lat="44.38889" lon="4.41393">
        <ele>249.8</ele>
        <time>2024-03-02T07:59:05Z</time>
      </trkpt>
      <trkpt lat="44.38899" lon="4.41414">
        <ele>250.8</ele>
        <time>2024-03-02T07:59:13Z</time>
      </trkpt>
      <trkpt lat="44.38906" lon="4.4144">
        <ele>251.6</ele>
        <time>2024-03-02T07:59:21Z</time>
      </trkpt>
      <trkpt lat="44.3891" lon="4.41466">
        <ele>252.3</ele>
        <time>2024-03-02T07:59:29Z</time>
      </trkpt>
      <trkpt lat="44.38911" lon="4.41472">
        <ele>252.4</ele>
        <time>2024-03-02T07:59:31Z</time>
      </trkpt>
      <trkpt lat="44.38919" lon="4.41495">
        <ele>253</ele>
        <time>2024-03-02T07:59:38Z</time>
      </trkpt>
      <trkpt lat="44.38921" lon="4.415">
        <ele>253.2</ele>
        <time>2024-03-02T07:59:40Z</time>
      </trkpt>
      <trkpt lat="44.38924" lon="4.41527">
        <ele>253.6</ele>
        <time>2024-03-02T07:59:49Z</time>
      </trkpt>
      <trkpt lat="44.38926" lon="4.41553">
        <ele>253.7</ele>
        <time>2024-03-02T07:59:57Z</time>
      </trkpt>
      <trkpt lat="44.38925" lon="4.41578">
        <ele>253.7</ele>
        <time>2024-03-02T08:00:05Z</time>
      </trkpt>
      <trkpt lat="44.38936" lon="4.41598">
        <ele>253.9</ele>
        <time>2024-03-02T08:00:12Z</time>
      </trkpt>
      <trkpt lat="44.38947" lon="4.41618">
        <ele>253.9</ele>
        <time>2024-03-02T08:00:19Z</time>
      </trkpt>
      <trkpt lat="44.38948" lon="4.41621">
        <ele>253.8</ele>
        <time>2024-03-02T08:00:20Z</time>
      </trkpt>
      <trkpt lat="44.38939" lon="4.41645">
        <ele>252.9</ele>
        <time>2024-03-02T08:00:28Z</time>
      </trkpt>
      <trkpt lat="44.38927" lon="4.41664">
        <ele>252.1</ele>
        <time>2024-03-02T08:00:36Z</time>
      </trkpt>
      <trkpt lat="44.38936" lon="4.41684">
        <ele>251.4</ele>
        <time>2024-03-02T08:00:43Z</time>
      </trkpt>
      <trkpt lat="44.38939" lon="4.41711">
        <ele>250.1</ele>
        <time>2024-03-02T08:00:51Z</time>
      </trkpt>
      <trkpt lat="44.3894" lon="4.4172">
        <ele>249.6</ele>
        <time>2024-03-02T08:00:54Z</time>
      </trkpt>
      <trkpt lat="44.38948" lon="4.41739">
        <ele>248.6</ele>
        <time>2024-03-02T08:01:01Z</time>
      </trkpt>
      <trkpt lat="44.38944" lon="4.41742">
        <ele>248.4</ele>
        <time>2024-03-02T08:01:03Z</time>
      </trkpt>
      <trkpt lat="44.38925" lon="4.41745">
        <ele>248.6</ele>
        <time>2024-03-02T08:01:10Z</time>
      </trkpt>
      <trkpt lat="44.38915" lon="4.41768">
        <ele>250.2</ele>
        <time>2024-03-02T08:01:18Z</time>
      </trkpt>
      <trkpt lat="44.38911" lon="4.41793">
        <ele>251.9</ele>
        <time>2024-03-02T08:01:26Z</time>
      </trkpt>
      <trkpt lat="44.38908" lon="4.4182">
        <ele>253.8</ele>
        <time>2024-03-02T08:01:35Z</time>
      </trkpt>
      <trkpt lat="44.38908" lon="4.41845">
        <ele>255.5</ele>
        <time>2024-03-02T08:01:46Z</time>
      </trkpt>
      <trkpt lat="44.38906" lon="4.41871">
        <ele>257.3</ele>
        <time>2024-03-02T08:01:56Z</time>
      </trkpt>
      <trkpt lat="44.38906" lon="4.41899">
        <ele>259.3</ele>
        <time>2024-03-02T08:02:06Z</time>
      </trkpt>
      <trkpt lat="44.38904" lon="4.41926">
        <ele>261.3</ele>
        <time>2024-03-02T08:02:16Z</time>
      </trkpt>
      <trkpt lat="44.389" lon="4.41952">
        <ele>263.6</ele>
        <time>2024-03-02T08:02:25Z</time>
      </trkpt>
      <trkpt lat="44.38898" lon="4.41978">
        <ele>265.8</ele>
        <time>2024-03-02T08:02:36Z</time>
      </trkpt>
      <trkpt lat="44.38894" lon="4.42004">
        <ele>268.1</ele>
        <time>2024-03-02T08:02:45Z</time>
      </trkpt>
      <trkpt lat="44.3889" lon="4.4203">
        <ele>270.5</ele>
        <time>2024-03-02T08:02:54Z</time>
      </trkpt>
      <trkpt lat="44.38892" lon="4.42055">
        <ele>272.8</ele>
        <time>2024-03-02T08:03:03Z</time>
      </trkpt>
      <trkpt lat="44.38892" lon="4.42079">
        <ele>274.4</ele>
        <time>2024-03-02T08:03:12Z</time>
      </trkpt>
      <trkpt lat="44.38886" lon="4.42106">
        <ele>276.7</ele>
        <time>2024-03-02T08:03:21Z</time>
      </trkpt>
      <trkpt lat="44.38885" lon="4.42132">
        <ele>278.7</ele>
        <time>2024-03-02T08:03:30Z</time>
      </trkpt>
      <trkpt lat="44.38886" lon="4.42158">
        <ele>280.5</ele>
        <time>2024-03-02T08:03:37Z</time>
      </trkpt>
      <trkpt lat="44.38887" lon="4.42184">
        <ele>282</ele>
        <time>2024-03-02T08:03:44Z</time>
      </trkpt>
      <trkpt lat="44.38891" lon="4.42209">
        <ele>282.7</ele>
        <time>2024-03-02T08:03:52Z</time>
      </trkpt>
      <trkpt lat="44.38896" lon="4.42237">
        <ele>282</ele>
        <time>2024-03-02T08:04:00Z</time>
      </trkpt>
      <trkpt lat="44.38909" lon="4.42256">
        <ele>281.8</ele>
        <time>2024-03-02T08:04:08Z</time>
      </trkpt>
      <trkpt lat="44.38924" lon="4.42272">
        <ele>281</ele>
        <time>2024-03-02T08:04:16Z</time>
      </trkpt>
      <trkpt lat="44.38939" lon="4.4229">
        <ele>281</ele>
        <time>2024-03-02T08:04:25Z</time>
      </trkpt>
      <trkpt lat="44.38944" lon="4.42301">
        <ele>281.2</ele>
        <time>2024-03-02T08:04:36Z</time>
      </trkpt>
      <trkpt lat="44.38941" lon="4.42303">
        <ele>280.5</ele>
        <time>2024-03-02T08:04:40Z</time>
      </trkpt>
      <trkpt lat="44.38922" lon="4.42295">
        <ele>278</ele>
        <time>2024-03-02T08:04:50Z</time>
      </trkpt>
      <trkpt lat="44.38905" lon="4.42287">
        <ele>275.6</ele>
        <time>2024-03-02T08:04:58Z</time>
      </trkpt>
      <trkpt lat="44.38903" lon="4.42285">
        <ele>275.3</ele>
        <time>2024-03-02T08:04:59Z</time>
      </trkpt>
      <trkpt lat="44.38886" lon="4.42274">
        <ele>272.4</ele>
        <time>2024-03-02T08:05:07Z</time>
      </trkpt>
      <trkpt lat="44.38868" lon="4.42266">
        <ele>268.9</ele>
        <time>2024-03-02T08:05:15Z</time>
      </trkpt>
      <trkpt lat="44.38851" lon="4.42266">
        <ele>265.1</ele>
        <time>2024-03-02T08:05:24Z</time>
      </trkpt>
      <trkpt lat="44.38861" lon="4.42277">
        <ele>262.3</ele>
        <time>2024-03-02T08:05:31Z</time>
      </trkpt>
      <trkpt lat="44.38853" lon="4.42288">
        <ele>259.9</ele>
        <time>2024-03-02T08:05:36Z</time>
      </trkpt>
      <trkpt lat="44.38848" lon="4.42289">
        <ele>259</ele>
        <time>2024-03-02T08:05:39Z</time>
      </trkpt>
      <trkpt lat="44.38863" lon="4.42303">
        <ele>257.2</ele>
        <time>2024-03-02T08:05:47Z</time>
      </trkpt>
      <trkpt lat="44.38868" lon="4.42312">
        <ele>256.4</ele>
        <time>2024-03-02T08:05:51Z</time>
      </trkpt>
      <trkpt lat="44.38849" lon="4.4231">
        <ele>253.6</ele>
        <time>2024-03-02T08:05:59Z</time>
      </trkpt>
      <trkpt lat="44.3883" lon="4.42309">
        <ele>250.6</ele>
        <time>2024-03-02T08:06:05Z</time>
      </trkpt>
      <trkpt lat="44.38819" lon="4.42304">
        <ele>248.7</ele>
        <time>2024-03-02T08:06:11Z</time>
      </trkpt>
      <trkpt lat="44.38827" lon="4.42326">
        <ele>246</ele>
        <time>2024-03-02T08:06:18Z</time>
      </trkpt>
      <trkpt lat="44.38835" lon="4.42344">
        <ele>243.8</ele>
        <time>2024-03-02T08:06:24Z</time>
      </trkpt>
      <trkpt lat="44.38816" lon="4.42344">
        <ele>241.4</ele>
        <time>2024-03-02T08:06:32Z</time>
      </trkpt>
      <trkpt lat="44.38798" lon="4.42346">
        <ele>238.8</ele>
        <time>2024-03-02T08:06:40Z</time>
      </trkpt>
      <trkpt lat="44.38789" lon="4.42345">
        <ele>237.2</ele>
        <time>2024-03-02T08:06:45Z</time>
      </trkpt>
      <trkpt lat="44.38786" lon="4.42349">
        <ele>236.5</ele>
        <time>2024-03-02T08:06:48Z</time>
      </trkpt>
      <trkpt lat="44.38784" lon="4.4235">
        <ele>236</ele>
        <time>2024-03-02T08:06:50Z</time>
      </trkpt>
      <trkpt lat="44.38782" lon="4.42359">
        <ele>234.8</ele>
        <time>2024-03-02T08:06:54Z</time>
      </trkpt>
      <trkpt lat="44.38763" lon="4.4236">
        <ele>233.1</ele>
        <time>2024-03-02T08:07:01Z</time>
      </trkpt>
      <trkpt lat="44.38746" lon="4.42357">
        <ele>234.2</ele>
        <time>2024-03-02T08:07:09Z</time>
      </trkpt>
      <trkpt lat="44.38731" lon="4.42343">
        <ele>236.8</ele>
        <time>2024-03-02T08:07:21Z</time>
      </trkpt>
      <trkpt lat="44.38717" lon="4.42326">
        <ele>239.3</ele>
        <time>2024-03-02T08:07:35Z</time>
      </trkpt>
      <trkpt lat="44.38708" lon="4.42322">
        <ele>240.7</ele>
        <time>2024-03-02T08:07:44Z</time>
      </trkpt>
      <trkpt lat="44.3869" lon="4.42326">
        <ele>243.3</ele>
        <time>2024-03-02T08:07:59Z</time>
      </trkpt>
      <trkpt lat="44.38674" lon="4.42329">
        <ele>246.1</ele>
        <time>2024-03-02T08:08:13Z</time>
      </trkpt>
      <trkpt lat="44.38671" lon="4.42328">
        <ele>246.7</ele>
        <time>2024-03-02T08:08:17Z</time>
      </trkpt>
      <trkpt lat="44.38669" lon="4.42329">
        <ele>247.2</ele>
        <time>2024-03-02T08:08:20Z</time>
      </trkpt>
      <trkpt lat="44.38665" lon="4.42331">
        <ele>248.3</ele>
        <time>2024-03-02T08:08:25Z</time>
      </trkpt>
      <trkpt lat="44.38647" lon="4.42336">
        <ele>253.8</ele>
        <time>2024-03-02T08:08:54Z</time>
      </trkpt>
      <trkpt lat="44.38631" lon="4.42345">
        <ele>260.2</ele>
        <time>2024-03-02T08:09:22Z</time>
      </trkpt>
      <trkpt lat="44.38618" lon="4.42347">
        <ele>264.6</ele>
        <time>2024-03-02T08:09:41Z</time>
      </trkpt>
      <trkpt lat="44.38611" lon="4.42345">
        <ele>266.6</ele>
        <time>2024-03-02T08:09:51Z</time>
      </trkpt>
      <trkpt lat="44.38609" lon="4.42343">
        <ele>267.2</ele>
        <time>2024-03-02T08:09:53Z</time>
      </trkpt>
      <trkpt lat="44.38593" lon="4.42329">
        <ele>271</ele>
        <time>2024-03-02T08:10:11Z</time>
      </trkpt>
      <trkpt lat="44.38579" lon="4.42315">
        <ele>274.6</ele>
        <time>2024-03-02T08:10:25Z</time>
      </trkpt>
      <trkpt lat="44.38562" lon="4.42304">
        <ele>278.1</ele>
        <time>2024-03-02T08:10:41Z</time>
      </trkpt>
      <trkpt lat="44.38545" lon="4.423">
        <ele>281</ele>
        <time>2024-03-02T08:10:57Z</time>
      </trkpt>
      <trkpt lat="44.38526" lon="4.42299">
        <ele>283.1</ele>
        <time>2024-03-02T08:11:08Z</time>
      </trkpt>
      <trkpt lat="44.38511" lon="4.42287">
        <ele>283.4</ele>
        <time>2024-03-02T08:11:17Z</time>
      </trkpt>
      <trkpt lat="44.38495" lon="4.42272">
        <ele>283</ele>
        <time>2024-03-02T08:11:23Z</time>
      </trkpt>
      <trkpt lat="44.38478" lon="4.42257">
        <ele>282.4</ele>
        <time>2024-03-02T08:11:29Z</time>
      </trkpt>
      <trkpt lat="44.3846" lon="4.42241">
        <ele>280.8</ele>
        <time>2024-03-02T08:11:35Z</time>
      </trkpt>
      <trkpt lat="44.38442" lon="4.42229">
        <ele>279.1</ele>
        <time>2024-03-02T08:11:41Z</time>
      </trkpt>
      <trkpt lat="44.38422" lon="4.42224">
        <ele>277.3</ele>
        <time>2024-03-02T08:11:48Z</time>
      </trkpt>
      <trkpt lat="44.38401" lon="4.42224">
        <ele>274.9</ele>
        <time>2024-03-02T08:11:55Z</time>
      </trkpt>
      <trkpt lat="44.38381" lon="4.42225">
        <ele>271.4</ele>
        <time>2024-03-02T08:12:01Z</time>
      </trkpt>
      <trkpt lat="44.38365" lon="4.42239">
        <ele>267.4</ele>
        <time>2024-03-02T08:12:07Z</time>
      </trkpt>
      <trkpt lat="44.38348" lon="4.42256">
        <ele>263.3</ele>
        <time>2024-03-02T08:12:13Z</time>
      </trkpt>
      <trkpt lat="44.38332" lon="4.4227">
        <ele>259.2</ele>
        <time>2024-03-02T08:12:20Z</time>
      </trkpt>
      <trkpt lat="44.38313" lon="4.4228">
        <ele>255.5</ele>
        <time>2024-03-02T08:12:29Z</time>
      </trkpt>
      <trkpt lat="44.38294" lon="4.42274">
        <ele>254.7</ele>
        <time>2024-03-02T08:12:37Z</time>
      </trkpt>
      <trkpt lat="44.3828" lon="4.42257">
        <ele>255.8</ele>
        <time>2024-03-02T08:12:43Z</time>
      </trkpt>
      <trkpt lat="44.38266" lon="4.42239">
        <ele>256.4</ele>
        <time>2024-03-02T08:12:50Z</time>
      </trkpt>
      <trkpt lat="44.3825" lon="4.42225">
        <ele>257.1</ele>
        <time>2024-03-02T08:12:59Z</time>
      </trkpt>
      <trkpt lat="44.38233" lon="4.42214">
        <ele>257.1</ele>
        <time>2024-03-02T08:13:08Z</time>
      </trkpt>
      <trkpt lat="44.38216" lon="4.42201">
        <ele>255.5</ele>
        <time>2024-03-02T08:13:16Z</time>
      </trkpt>
      <trkpt lat="44.382" lon="4.42186">
        <ele>253.5</ele>
        <time>2024-03-02T08:13:23Z</time>
      </trkpt>
      <trkpt lat="44.38182" lon="4.42175">
        <ele>252.1</ele>
        <time>2024-03-02T08:13:30Z</time>
      </trkpt>
      <trkpt lat="44.38164" lon="4.42169">
        <ele>250.3</ele>
        <time>2024-03-02T08:13:38Z</time>
      </trkpt>
      <trkpt lat="44.38147" lon="4.4216">
        <ele>246.8</ele>
        <time>2024-03-02T08:13:47Z</time>
      </trkpt>
      <trkpt lat="44.38143" lon="4.4216">
        <ele>245.9</ele>
        <time>2024-03-02T08:13:48Z</time>
      </trkpt>
      <trkpt lat="44.38124" lon="4.42163">
        <ele>241.8</ele>
        <time>2024-03-02T08:13:57Z</time>
      </trkpt>
      <trkpt lat="44.38106" lon="4.42172">
        <ele>236.6</ele>
        <time>2024-03-02T08:14:07Z</time>
      </trkpt>
      <trkpt lat="44.38102" lon="4.42174">
        <ele>235.2</ele>
        <time>2024-03-02T08:14:08Z</time>
      </trkpt>
      <trkpt lat="44.38098" lon="4.42175">
        <ele>233.9</ele>
        <time>2024-03-02T08:14:11Z</time>
      </trkpt>
      <trkpt lat="44.38094" lon="4.42172">
        <ele>232.6</ele>
        <time>2024-03-02T08:14:13Z</time>
      </trkpt>
      <trkpt lat="44.3809" lon="4.42155">
        <ele>229.6</ele>
        <time>2024-03-02T08:14:19Z</time>
      </trkpt>
      <trkpt lat="44.38079" lon="4.42174">
        <ele>226.3</ele>
        <time>2024-03-02T08:14:28Z</time>
      </trkpt>
      <trkpt lat="44.38069" lon="4.42197">
        <ele>222.9</ele>
        <time>2024-03-02T08:14:36Z</time>
      </trkpt>
      <trkpt lat="44.38052" lon="4.42211">
        <ele>218.8</ele>
        <time>2024-03-02T08:14:44Z</time>
      </trkpt>
      <trkpt lat="44.38034" lon="4.4222">
        <ele>215.3</ele>
        <time>2024-03-02T08:14:51Z</time>
      </trkpt>
      <trkpt lat="44.38016" lon="4.42226">
        <ele>212.8</ele>
        <time>2024-03-02T08:14:58Z</time>
      </trkpt>
      <trkpt lat="44.37996" lon="4.42229">
        <ele>210.2</ele>
        <time>2024-03-02T08:15:07Z</time>
      </trkpt>
      <trkpt lat="44.37976" lon="4.42227">
        <ele>207.4</ele>
        <time>2024-03-02T08:15:14Z</time>
      </trkpt>
      <trkpt lat="44.37958" lon="4.42228">
        <ele>204.9</ele>
        <time>2024-03-02T08:15:21Z</time>
      </trkpt>
      <trkpt lat="44.37937" lon="4.42229">
        <ele>201.6</ele>
        <time>2024-03-02T08:15:28Z</time>
      </trkpt>
      <trkpt lat="44.37919" lon="4.42235">
        <ele>198.2</ele>
        <time>2024-03-02T08:15:35Z</time>
      </trkpt>
      <trkpt lat="44.37914" lon="4.42235">
        <ele>197.2</ele>
        <time>2024-03-02T08:15:36Z</time>
      </trkpt>
      <trkpt lat="44.379" lon="4.42231">
        <ele>194.6</ele>
        <time>2024-03-02T08:15:43Z</time>
      </trkpt>
      <trkpt lat="44.37886" lon="4.42249">
        <ele>190.7</ele>
        <time>2024-03-02T08:15:53Z</time>
      </trkpt>
      <trkpt lat="44.37873" lon="4.42267">
        <ele>186.9</ele>
        <time>2024-03-02T08:16:02Z</time>
      </trkpt>
      <trkpt lat="44.37859" lon="4.42283">
        <ele>183</ele>
        <time>2024-03-02T08:16:11Z</time>
      </trkpt>
      <trkpt lat="44.37843" lon="4.42298">
        <ele>178.8</ele>
        <time>2024-03-02T08:16:19Z</time>
      </trkpt>
      <trkpt lat="44.37825" lon="4.42308">
        <ele>173.7</ele>
        <time>2024-03-02T08:16:27Z</time>
      </trkpt>
      <trkpt lat="44.37813" lon="4.42328">
        <ele>169.7</ele>
        <time>2024-03-02T08:16:34Z</time>
      </trkpt>
      <trkpt lat="44.37813" lon="4.42354">
        <ele>166.3</ele>
        <time>2024-03-02T08:16:44Z</time>
      </trkpt>
      <trkpt lat="44.37813" lon="4.42358">
        <ele>165.8</ele>
        <time>2024-03-02T08:16:45Z</time>
      </trkpt>
      <trkpt lat="44.37812" lon="4.42361">
        <ele>165.3</ele>
        <time>2024-03-02T08:16:47Z</time>
      </trkpt>
      <trkpt lat="44.37807" lon="4.42363">
        <ele>164.6</ele>
        <time>2024-03-02T08:16:49Z</time>
      </trkpt>
      <trkpt lat="44.37788" lon="4.42364">
        <ele>161.9</ele>
        <time>2024-03-02T08:16:57Z</time>
      </trkpt>
      <trkpt lat="44.37783" lon="4.4237">
        <ele>160.3</ele>
        <time>2024-03-02T08:17:01Z</time>
      </trkpt>
      <trkpt lat="44.37789" lon="4.42394">
        <ele>157.3</ele>
        <time>2024-03-02T08:17:09Z</time>
      </trkpt>
      <trkpt lat="44.37806" lon="4.42409">
        <ele>154.1</ele>
        <time>2024-03-02T08:17:17Z</time>
      </trkpt>
      <trkpt lat="44.37824" lon="4.42422">
        <ele>151.3</ele>
        <time>2024-03-02T08:17:26Z</time>
      </trkpt>
      <trkpt lat="44.37838" lon="4.42438">
        <ele>149.3</ele>
        <time>2024-03-02T08:17:33Z</time>
      </trkpt>
      <trkpt lat="44.3784" lon="4.42464">
        <ele>147.9</ele>
        <time>2024-03-02T08:17:41Z</time>
      </trkpt>
      <trkpt lat="44.37829" lon="4.42487">
        <ele>146.3</ele>
        <time>2024-03-02T08:17:49Z</time>
      </trkpt>
      <trkpt lat="44.37823" lon="4.42513">
        <ele>145</ele>
        <time>2024-03-02T08:17:56Z</time>
      </trkpt>
      <trkpt lat="44.37825" lon="4.42539">
        <ele>143.4</ele>
        <time>2024-03-02T08:18:04Z</time>
      </trkpt>
      <trkpt lat="44.37828" lon="4.42567">
        <ele>140.5</ele>
        <time>2024-03-02T08:18:11Z</time>
      </trkpt>
      <trkpt lat="44.37832" lon="4.42592">
        <ele>137</ele>
        <time>2024-03-02T08:18:17Z</time>
      </trkpt>
      <trkpt lat="44.37842" lon="4.42614">
        <ele>133.7</ele>
        <time>2024-03-02T08:18:24Z</time>
      </trkpt>
      <trkpt lat="44.3785" lon="4.42637">
        <ele>130.7</ele>
        <time>2024-03-02T08:18:31Z</time>
      </trkpt>
      <trkpt lat="44.37847" lon="4.42662">
        <ele>127.4</ele>
        <time>2024-03-02T08:18:39Z</time>
      </trkpt>
      <trkpt lat="44.37839" lon="4.42685">
        <ele>124</ele>
        <time>2024-03-02T08:18:44Z</time>
      </trkpt>
      <trkpt lat="44.37836" lon="4.42712">
        <ele>120.5</ele>
        <time>2024-03-02T08:18:51Z</time>
      </trkpt>
      <trkpt lat="44.37833" lon="4.4273">
        <ele>117.6</ele>
        <time>2024-03-02T08:19:02Z</time>
      </trkpt>
      <trkpt lat="44.37829" lon="4.42731">
        <ele>116.6</ele>
        <time>2024-03-02T08:19:06Z</time>
      </trkpt>
      <trkpt lat="44.37822" lon="4.42755">
        <ele>111.7</ele>
        <time>2024-03-02T08:19:14Z</time>
      </trkpt>
      <trkpt lat="44.37834" lon="4.42776">
        <ele>112.7</ele>
        <time>2024-03-02T08:19:20Z</time>
      </trkpt>
      <trkpt lat="44.37843" lon="4.428">
        <ele>113.5</ele>
        <time>2024-03-02T08:19:28Z</time>
      </trkpt>
      <trkpt lat="44.37849" lon="4.42826">
        <ele>108.4</ele>
        <time>2024-03-02T08:19:38Z</time>
      </trkpt>
      <trkpt lat="44.37853" lon="4.4285">
        <ele>104.1</ele>
        <time>2024-03-02T08:19:46Z</time>
      </trkpt>
      <trkpt lat="44.37853" lon="4.42873">
        <ele>100.6</ele>
        <time>2024-03-02T08:19:54Z</time>
      </trkpt>
      <trkpt lat="44.37849" lon="4.42881">
        <ele>99</ele>
        <time>2024-03-02T08:19:56Z</time>
      </trkpt>
      <trkpt lat="44.37842" lon="4.4291">
        <ele>96.1</ele>
        <time>2024-03-02T08:20:01Z</time>
      </trkpt>
      <trkpt lat="44.37845" lon="4.42923">
        <ele>96</ele>
        <time>2024-03-02T08:20:08Z</time>
      </trkpt>
      <trkpt lat="44.37843" lon="4.42913">
        <ele>95.9</ele>
        <time>2024-03-02T08:20:13Z</time>
      </trkpt>
      <trkpt lat="44.37846" lon="4.42917">
        <ele>95.9</ele>
        <time>2024-03-02T08:20:17Z</time>
      </trkpt>
      <trkpt lat="44.37848" lon="4.42925">
        <ele>95.8</ele>
        <time>2024-03-02T08:20:20Z</time>
      </trkpt>
      <trkpt lat="44.3785" lon="4.42921">
        <ele>95.8</ele>
        <time>2024-03-02T08:21:43Z</time>
      </trkpt>
      <trkpt lat="44.37857" lon="4.42948">
        <ele>95.6</ele>
        <time>2024-03-02T08:21:50Z</time>
      </trkpt>
      <trkpt lat="44.37862" lon="4.42975">
        <ele>95.3</ele>
        <time>2024-03-02T08:21:56Z</time>
      </trkpt>
      <trkpt lat="44.37871" lon="4.42999">
        <ele>95.1</ele>
        <time>2024-03-02T08:22:02Z</time>
      </trkpt>
      <trkpt lat="44.37882" lon="4.43023">
        <ele>94.9</ele>
        <time>2024-03-02T08:22:08Z</time>
      </trkpt>
      <trkpt lat="44.37889" lon="4.43048">
        <ele>94.7</ele>
        <time>2024-03-02T08:22:14Z</time>
      </trkpt>
      <trkpt lat="44.37896" lon="4.43073">
        <ele>94.3</ele>
        <time>2024-03-02T08:22:20Z</time>
      </trkpt>
      <trkpt lat="44.37903" lon="4.43101">
        <ele>94</ele>
        <time>2024-03-02T08:22:27Z</time>
      </trkpt>
      <trkpt lat="44.37904" lon="4.43129">
        <ele>93.8</ele>
        <time>2024-03-02T08:22:33Z</time>
      </trkpt>
      <trkpt lat="44.37909" lon="4.43155">
        <ele>93.6</ele>
        <time>2024-03-02T08:22:39Z</time>
      </trkpt>
      <trkpt lat="44.37913" lon="4.43182">
        <ele>93.3</ele>
        <time>2024-03-02T08:22:45Z</time>
      </trkpt>
      <trkpt lat="44.37916" lon="4.4321">
        <ele>93.1</ele>
        <time>2024-03-02T08:22:51Z</time>
      </trkpt>
      <trkpt lat="44.37917" lon="4.43238">
        <ele>92.8</ele>
        <time>2024-03-02T08:22:57Z</time>
      </trkpt>
      <trkpt lat="44.3792" lon="4.43265">
        <ele>92.5</ele>
        <time>2024-03-02T08:23:03Z</time>
      </trkpt>
      <trkpt lat="44.37924" lon="4.43291">
        <ele>92.3</ele>
        <time>2024-03-02T08:23:09Z</time>
      </trkpt>
      <trkpt lat="44.37928" lon="4.43316">
        <ele>92.1</ele>
        <time>2024-03-02T08:23:15Z</time>
      </trkpt>
      <trkpt lat="44.37931" lon="4.43343">
        <ele>91.8</ele>
        <time>2024-03-02T08:23:21Z</time>
      </trkpt>
      <trkpt lat="44.37932" lon="4.4337">
        <ele>91.5</ele>
        <time>2024-03-02T08:23:27Z</time>
      </trkpt>
      <trkpt lat="44.37931" lon="4.43396">
        <ele>91.3</ele>
        <time>2024-03-02T08:23:33Z</time>
      </trkpt>
      <trkpt lat="44.37929" lon="4.43424">
        <ele>91.1</ele>
        <time>2024-03-02T08:23:39Z</time>
      </trkpt>
      <trkpt lat="44.37929" lon="4.43449">
        <ele>91</ele>
        <time>2024-03-02T08:23:45Z</time>
      </trkpt>
      <trkpt lat="44.37927" lon="4.43477">
        <ele>90.9</ele>
        <time>2024-03-02T08:23:51Z</time>
      </trkpt>
      <trkpt lat="44.37924" lon="4.43504">
        <ele>90.8</ele>
        <time>2024-03-02T08:23:59Z</time>
      </trkpt>
      <trkpt lat="44.37914" lon="4.43527">
        <ele>90.7</ele>
        <time>2024-03-02T08:24:07Z</time>
      </trkpt>
      <trkpt lat="44.37904" lon="4.43548">
        <ele>91.2</ele>
        <time>2024-03-02T08:24:14Z</time>
      </trkpt>
      <trkpt lat="44.37895" lon="4.43571">
        <ele>92.2</ele>
        <time>2024-03-02T08:24:22Z</time>
      </trkpt>
      <trkpt lat="44.37888" lon="4.43595">
        <ele>93.3</ele>
        <time>2024-03-02T08:24:28Z</time>
      </trkpt>
      <trkpt lat="44.37872" lon="4.43606">
        <ele>93.2</ele>
        <time>2024-03-02T08:24:37Z</time>
      </trkpt>
      <trkpt lat="44.37855" lon="4.43618">
        <ele>92.9</ele>
        <time>2024-03-02T08:24:43Z</time>
      </trkpt>
      <trkpt lat="44.37838" lon="4.43625">
        <ele>92.6</ele>
        <time>2024-03-02T08:24:49Z</time>
      </trkpt>
      <trkpt lat="44.3782" lon="4.4363">
        <ele>92.1</ele>
        <time>2024-03-02T08:24:56Z</time>
      </trkpt>
      <trkpt lat="44.37802" lon="4.43623">
        <ele>91.2</ele>
        <time>2024-03-02T08:25:05Z</time>
      </trkpt>
      <trkpt lat="44.37786" lon="4.43619">
        <ele>90.1</ele>
        <time>2024-03-02T08:25:13Z</time>
      </trkpt>
      <trkpt lat="44.37768" lon="4.43606">
        <ele>88.9</ele>
        <time>2024-03-02T08:25:21Z</time>
      </trkpt>
      <trkpt lat="44.37749" lon="4.43603">
        <ele>87.9</ele>
        <time>2024-03-02T08:25:31Z</time>
      </trkpt>
      <trkpt lat="44.37731" lon="4.43598">
        <ele>87.1</ele>
        <time>2024-03-02T08:25:39Z</time>
      </trkpt>
      <trkpt lat="44.37714" lon="4.43587">
        <ele>86.5</ele>
        <time>2024-03-02T08:25:46Z</time>
      </trkpt>
      <trkpt lat="44.37702" lon="4.43587">
        <ele>86.1</ele>
        <time>2024-03-02T08:25:58Z</time>
      </trkpt>
      <trkpt lat="44.37701" lon="4.43587">
        <ele>86</ele>
        <time>2024-03-02T08:26:00Z</time>
      </trkpt>
      <trkpt lat="44.377" lon="4.43586">
        <ele>86</ele>
        <time>2024-03-02T08:26:03Z</time>
      </trkpt>
      <trkpt lat="44.37699" lon="4.43587">
        <ele>86</ele>
        <time>2024-03-02T08:26:08Z</time>
      </trkpt>
      <trkpt lat="44.37698" lon="4.43587">
        <ele>85.9</ele>
        <time>2024-03-02T08:26:10Z</time>
      </trkpt>
      <trkpt lat="44.37697" lon="4.43587">
        <ele>85.9</ele>
        <time>2024-03-02T08:26:12Z</time>
      </trkpt>
      <trkpt lat="44.37696" lon="4.43588">
        <ele>85.9</ele>
        <time>2024-03-02T08:26:15Z</time>
      </trkpt>
      <trkpt lat="44.37694" lon="4.43589">
        <ele>85.8</ele>
        <time>2024-03-02T08:26:19Z</time>
      </trkpt>
      <trkpt lat="44.37691" lon="4.43587">
        <ele>85.8</ele>
        <time>2024-03-02T08:26:21Z</time>
      </trkpt>
      <trkpt lat="44.37674" lon="4.43573">
        <ele>85.5</ele>
        <time>2024-03-02T08:26:30Z</time>
      </trkpt>
      <trkpt lat="44.37654" lon="4.43573">
        <ele>85</ele>
        <time>2024-03-02T08:26:40Z</time>
      </trkpt>
      <trkpt lat="44.37638" lon="4.4357">
        <ele>84.7</ele>
        <time>2024-03-02T08:27:07Z</time>
      </trkpt>
      <trkpt lat="44.37625" lon="4.43583">
        <ele>84.5</ele>
        <time>2024-03-02T08:27:18Z</time>
      </trkpt>
      <trkpt lat="44.37607" lon="4.43579">
        <ele>84.2</ele>
        <time>2024-03-02T08:27:27Z</time>
      </trkpt>
      <trkpt lat="44.37587" lon="4.43564">
        <ele>83.6</ele>
        <time>2024-03-02T08:27:34Z</time>
      </trkpt>
      <trkpt lat="44.37572" lon="4.43549">
        <ele>82.9</ele>
        <time>2024-03-02T08:27:41Z</time>
      </trkpt>
      <trkpt lat="44.37555" lon="4.43541">
        <ele>82.2</ele>
        <time>2024-03-02T08:27:48Z</time>
      </trkpt>
      <trkpt lat="44.37537" lon="4.43546">
        <ele>81.7</ele>
        <time>2024-03-02T08:27:55Z</time>
      </trkpt>
      <trkpt lat="44.37521" lon="4.43558">
        <ele>81.3</ele>
        <time>2024-03-02T08:28:04Z</time>
      </trkpt>
      <trkpt lat="44.37501" lon="4.4356">
        <ele>81</ele>
        <time>2024-03-02T08:28:13Z</time>
      </trkpt>
      <trkpt lat="44.37482" lon="4.4356">
        <ele>80.6</ele>
        <time>2024-03-02T08:28:20Z</time>
      </trkpt>
      <trkpt lat="44.37464" lon="4.43555">
        <ele>80.2</ele>
        <time>2024-03-02T08:28:26Z</time>
      </trkpt>
      <trkpt lat="44.37445" lon="4.43552">
        <ele>79.9</ele>
        <time>2024-03-02T08:28:33Z</time>
      </trkpt>
      <trkpt lat="44.37427" lon="4.43545">
        <ele>79.6</ele>
        <time>2024-03-02T08:28:42Z</time>
      </trkpt>
      <trkpt lat="44.37407" lon="4.43537">
        <ele>79.2</ele>
        <time>2024-03-02T08:28:50Z</time>
      </trkpt>
      <trkpt lat="44.37391" lon="4.43525">
        <ele>78.8</ele>
        <time>2024-03-02T08:28:58Z</time>
      </trkpt>
      <trkpt lat="44.37372" lon="4.43516">
        <ele>78.4</ele>
        <time>2024-03-02T08:29:06Z</time>
      </trkpt>
      <trkpt lat="44.37353" lon="4.4351">
        <ele>78</ele>
        <time>2024-03-02T08:29:14Z</time>
      </trkpt>
      <trkpt lat="44.37334" lon="4.43502">
        <ele>77.8</ele>
        <time>2024-03-02T08:29:26Z</time>
      </trkpt>
      <trkpt lat="44.37317" lon="4.43493">
        <ele>77.7</ele>
        <time>2024-03-02T08:29:36Z</time>
      </trkpt>
      <trkpt lat="44.37298" lon="4.43489">
        <ele>77.9</ele>
        <time>2024-03-02T08:29:47Z</time>
      </trkpt>
      <trkpt lat="44.37281" lon="4.4348">
        <ele>78</ele>
        <time>2024-03-02T08:29:56Z</time>
      </trkpt>
      <trkpt lat="44.37263" lon="4.4348">
        <ele>78.1</ele>
        <time>2024-03-02T08:30:05Z</time>
      </trkpt>
      <trkpt lat="44.37245" lon="4.43474">
        <ele>77.8</ele>
        <time>2024-03-02T08:30:11Z</time>
      </trkpt>
      <trkpt lat="44.37225" lon="4.43464">
        <ele>77.1</ele>
        <time>2024-03-02T08:30:17Z</time>
      </trkpt>
      <trkpt lat="44.37208" lon="4.43453">
        <ele>76.4</ele>
        <time>2024-03-02T08:30:22Z</time>
      </trkpt>
      <trkpt lat="44.37189" lon="4.43441">
        <ele>75.6</ele>
        <time>2024-03-02T08:30:28Z</time>
      </trkpt>
      <trkpt lat="44.37173" lon="4.4343">
        <ele>75.1</ele>
        <time>2024-03-02T08:30:34Z</time>
      </trkpt>
      <trkpt lat="44.37157" lon="4.43412">
        <ele>74.7</ele>
        <time>2024-03-02T08:30:42Z</time>
      </trkpt>
      <trkpt lat="44.37142" lon="4.43393">
        <ele>74.2</ele>
        <time>2024-03-02T08:30:50Z</time>
      </trkpt>
      <trkpt lat="44.37127" lon="4.43375">
        <ele>73.8</ele>
        <time>2024-03-02T08:30:57Z</time>
      </trkpt>
      <trkpt lat="44.37111" lon="4.43358">
        <ele>73.4</ele>
        <time>2024-03-02T08:31:04Z</time>
      </trkpt>
      <trkpt lat="44.37098" lon="4.43336">
        <ele>72.7</ele>
        <time>2024-03-02T08:31:10Z</time>
      </trkpt>
      <trkpt lat="44.37089" lon="4.43314">
        <ele>72.1</ele>
        <time>2024-03-02T08:31:15Z</time>
      </trkpt>
      <trkpt lat="44.37081" lon="4.43288">
        <ele>72.2</ele>
        <time>2024-03-02T08:31:21Z</time>
      </trkpt>
      <trkpt lat="44.37074" lon="4.43262">
        <ele>72.4</ele>
        <time>2024-03-02T08:31:29Z</time>
      </trkpt>
      <trkpt lat="44.37067" lon="4.43237">
        <ele>72.5</ele>
        <time>2024-03-02T08:31:37Z</time>
      </trkpt>
      <trkpt lat="44.37063" lon="4.4321">
        <ele>72.7</ele>
        <time>2024-03-02T08:31:43Z</time>
      </trkpt>
      <trkpt lat="44.37054" lon="4.43185">
        <ele>72.9</ele>
        <time>2024-03-02T08:31:50Z</time>
      </trkpt>
      <trkpt lat="44.37044" lon="4.43163">
        <ele>73.1</ele>
        <time>2024-03-02T08:31:59Z</time>
      </trkpt>
      <trkpt lat="44.37041" lon="4.43137">
        <ele>73.3</ele>
        <time>2024-03-02T08:32:05Z</time>
      </trkpt>
      <trkpt lat="44.37038" lon="4.4311">
        <ele>73.5</ele>
        <time>2024-03-02T08:32:12Z</time>
      </trkpt>
      <trkpt lat="44.37038" lon="4.43082">
        <ele>73.6</ele>
        <time>2024-03-02T08:32:21Z</time>
      </trkpt>
      <trkpt lat="44.37038" lon="4.43052">
        <ele>73.8</ele>
        <time>2024-03-02T08:32:27Z</time>
      </trkpt>
      <trkpt lat="44.37043" lon="4.43024">
        <ele>74</ele>
        <time>2024-03-02T08:32:36Z</time>
      </trkpt>
      <trkpt lat="44.37044" lon="4.42999">
        <ele>74.1</ele>
        <time>2024-03-02T08:32:45Z</time>
      </trkpt>
      <trkpt lat="44.37053" lon="4.42971">
        <ele>74.3</ele>
        <time>2024-03-02T08:32:54Z</time>
      </trkpt>
      <trkpt lat="44.37058" lon="4.42938">
        <ele>78.4</ele>
        <time>2024-03-02T08:33:06Z</time>
      </trkpt>
      <trkpt lat="44.37058" lon="4.42927">
        <ele>79.1</ele>
        <time>2024-03-02T08:33:12Z</time>
      </trkpt>
      <trkpt lat="44.37059" lon="4.4292">
        <ele>79.6</ele>
        <time>2024-03-02T08:33:16Z</time>
      </trkpt>
      <trkpt lat="44.37059" lon="4.42902">
        <ele>80.8</ele>
        <time>2024-03-02T08:33:29Z</time>
      </trkpt>
      <trkpt lat="44.37072" lon="4.42884">
        <ele>82.8</ele>
        <time>2024-03-02T08:33:38Z</time>
      </trkpt>
      <trkpt lat="44.37073" lon="4.42878">
        <ele>83.4</ele>
        <time>2024-03-02T08:33:44Z</time>
      </trkpt>
      <trkpt lat="44.37083" lon="4.42858">
        <ele>86.1</ele>
        <time>2024-03-02T08:33:59Z</time>
      </trkpt>
      <trkpt lat="44.37084" lon="4.42831">
        <ele>89</ele>
        <time>2024-03-02T08:34:12Z</time>
      </trkpt>
      <trkpt lat="44.37083" lon="4.42803">
        <ele>91.8</ele>
        <time>2024-03-02T08:34:27Z</time>
      </trkpt>
      <trkpt lat="44.37085" lon="4.42798">
        <ele>92.4</ele>
        <time>2024-03-02T08:34:34Z</time>
      </trkpt>
      <trkpt lat="44.37083" lon="4.42794">
        <ele>92.8</ele>
        <time>2024-03-02T08:34:39Z</time>
      </trkpt>
      <trkpt lat="44.37082" lon="4.42794">
        <ele>93</ele>
        <time>2024-03-02T08:34:44Z</time>
      </trkpt>
      <trkpt lat="44.37084" lon="4.42793">
        <ele>93.3</ele>
        <time>2024-03-02T08:34:46Z</time>
      </trkpt>
      <trkpt lat="44.37094" lon="4.42789">
        <ele>94.6</ele>
        <time>2024-03-02T08:35:15Z</time>
      </trkpt>
      <trkpt lat="44.37094" lon="4.42787">
        <ele>94.8</ele>
        <time>2024-03-02T08:35:18Z</time>
      </trkpt>
      <trkpt lat="44.37096" lon="4.42779">
        <ele>95.6</ele>
        <time>2024-03-02T08:35:24Z</time>
      </trkpt>
      <trkpt lat="44.37097" lon="4.42777">
        <ele>95.8</ele>
        <time>2024-03-02T08:35:26Z</time>
      </trkpt>
      <trkpt lat="44.37099" lon="4.42774">
        <ele>96.1</ele>
        <time>2024-03-02T08:35:35Z</time>
      </trkpt>
      <trkpt lat="44.37096" lon="4.42789">
        <ele>97.1</ele>
        <time>2024-03-02T08:35:52Z</time>
      </trkpt>
      <trkpt lat="44.37085" lon="4.42809">
        <ele>98.6</ele>
        <time>2024-03-02T08:36:05Z</time>
      </trkpt>
      <trkpt lat="44.3708" lon="4.42821">
        <ele>99.4</ele>
        <time>2024-03-02T08:36:19Z</time>
      </trkpt>
      <trkpt lat="44.37086" lon="4.42792">
        <ele>100.7</ele>
        <time>2024-03-02T08:36:31Z</time>
      </trkpt>
      <trkpt lat="44.37071" lon="4.42773">
        <ele>99.9</ele>
        <time>2024-03-02T08:36:41Z</time>
      </trkpt>
      <trkpt lat="44.37052" lon="4.42764">
        <ele>98.7</ele>
        <time>2024-03-02T08:36:47Z</time>
      </trkpt>
      <trkpt lat="44.37034" lon="4.42769">
        <ele>98</ele>
        <time>2024-03-02T08:36:53Z</time>
      </trkpt>
      <trkpt lat="44.37015" lon="4.42774">
        <ele>96.4</ele>
        <time>2024-03-02T08:36:59Z</time>
      </trkpt>
      <trkpt lat="44.3701" lon="4.42773">
        <ele>95.7</ele>
        <time>2024-03-02T08:37:00Z</time>
      </trkpt>
      <trkpt lat="44.36992" lon="4.42766">
        <ele>93.3</ele>
        <time>2024-03-02T08:37:07Z</time>
      </trkpt>
      <trkpt lat="44.36985" lon="4.42765">
        <ele>92.4</ele>
        <time>2024-03-02T08:37:08Z</time>
      </trkpt>
      <trkpt lat="44.36966" lon="4.42765">
        <ele>90.3</ele>
        <time>2024-03-02T08:37:14Z</time>
      </trkpt>
      <trkpt lat="44.36952" lon="4.42781">
        <ele>88.9</ele>
        <time>2024-03-02T08:37:20Z</time>
      </trkpt>
      <trkpt lat="44.36937" lon="4.42797">
        <ele>86.9</ele>
        <time>2024-03-02T08:37:27Z</time>
      </trkpt>
      <trkpt lat="44.36923" lon="4.4281">
        <ele>85.4</ele>
        <time>2024-03-02T08:37:34Z</time>
      </trkpt>
      <trkpt lat="44.36906" lon="4.42819">
        <ele>85.2</ele>
        <time>2024-03-02T08:37:41Z</time>
      </trkpt>
      <trkpt lat="44.36895" lon="4.4284">
        <ele>87</ele>
        <time>2024-03-02T08:37:48Z</time>
      </trkpt>
      <trkpt lat="44.36884" lon="4.42863">
        <ele>86.8</ele>
        <time>2024-03-02T08:37:56Z</time>
      </trkpt>
      <trkpt lat="44.36878" lon="4.42888">
        <ele>86.6</ele>
        <time>2024-03-02T08:38:04Z</time>
      </trkpt>
      <trkpt lat="44.36865" lon="4.4291">
        <ele>86.5</ele>
        <time>2024-03-02T08:38:11Z</time>
      </trkpt>
      <trkpt lat="44.36858" lon="4.42933">
        <ele>86.4</ele>
        <time>2024-03-02T08:38:18Z</time>
      </trkpt>
      <trkpt lat="44.36856" lon="4.42959">
        <ele>86.4</ele>
        <time>2024-03-02T08:38:24Z</time>
      </trkpt>
      <trkpt lat="44.36848" lon="4.42983">
        <ele>86.4</ele>
        <time>2024-03-02T08:38:31Z</time>
      </trkpt>
      <trkpt lat="44.3684" lon="4.43016">
        <ele>86.4</ele>
        <time>2024-03-02T08:38:39Z</time>
      </trkpt>
      <trkpt lat="44.36835" lon="4.43045">
        <ele>86</ele>
        <time>2024-03-02T08:38:46Z</time>
      </trkpt>
      <trkpt lat="44.36832" lon="4.43071">
        <ele>85.9</ele>
        <time>2024-03-02T08:38:51Z</time>
      </trkpt>
      <trkpt lat="44.3683" lon="4.43097">
        <ele>86.2</ele>
        <time>2024-03-02T08:39:05Z</time>
      </trkpt>
      <trkpt lat="44.36829" lon="4.43105">
        <ele>86.3</ele>
        <time>2024-03-02T08:39:10Z</time>
      </trkpt>
      <trkpt lat="44.36828" lon="4.43118">
        <ele>86.5</ele>
        <time>2024-03-02T08:39:15Z</time>
      </trkpt>
      <trkpt lat="44.36828" lon="4.43127">
        <ele>86.6</ele>
        <time>2024-03-02T08:39:20Z</time>
      </trkpt>
      <trkpt lat="44.36829" lon="4.43154">
        <ele>86.8</ele>
        <time>2024-03-02T08:39:28Z</time>
      </trkpt>
      <trkpt lat="44.36834" lon="4.43168">
        <ele>86.9</ele>
        <time>2024-03-02T08:39:35Z</time>
      </trkpt>
      <trkpt lat="44.36832" lon="4.43193">
        <ele>87</ele>
        <time>2024-03-02T08:39:43Z</time>
      </trkpt>
      <trkpt lat="44.36829" lon="4.43219">
        <ele>86.9</ele>
        <time>2024-03-02T08:39:51Z</time>
      </trkpt>
      <trkpt lat="44.36825" lon="4.43245">
        <ele>86.9</ele>
        <time>2024-03-02T08:39:59Z</time>
      </trkpt>
      <trkpt lat="44.36822" lon="4.43272">
        <ele>86.9</ele>
        <time>2024-03-02T08:40:06Z</time>
      </trkpt>
      <trkpt lat="44.36811" lon="4.43296">
        <ele>87</ele>
        <time>2024-03-02T08:40:14Z</time>
      </trkpt>
      <trkpt lat="44.36807" lon="4.43322">
        <ele>86.8</ele>
        <time>2024-03-02T08:40:21Z</time>
      </trkpt>
      <trkpt lat="44.36804" lon="4.43348">
        <ele>86.4</ele>
        <time>2024-03-02T08:40:28Z</time>
      </trkpt>
      <trkpt lat="44.36801" lon="4.43374">
        <ele>86.4</ele>
        <time>2024-03-02T08:40:34Z</time>
      </trkpt>
      <trkpt lat="44.36802" lon="4.43402">
        <ele>86.4</ele>
        <time>2024-03-02T08:40:41Z</time>
      </trkpt>
      <trkpt lat="44.36785" lon="4.43427">
        <ele>86.6</ele>
        <time>2024-03-02T08:40:50Z</time>
      </trkpt>
      <trkpt lat="44.36773" lon="4.43451">
        <ele>86.8</ele>
        <time>2024-03-02T08:40:58Z</time>
      </trkpt>
      <trkpt lat="44.3676" lon="4.43472">
        <ele>86.7</ele>
        <time>2024-03-02T08:41:04Z</time>
      </trkpt>
      <trkpt lat="44.36751" lon="4.43495">
        <ele>86.4</ele>
        <time>2024-03-02T08:41:12Z</time>
      </trkpt>
      <trkpt lat="44.36743" lon="4.43518">
        <ele>86.2</ele>
        <time>2024-03-02T08:41:18Z</time>
      </trkpt>
      <trkpt lat="44.36735" lon="4.43541">
        <ele>86.1</ele>
        <time>2024-03-02T08:41:24Z</time>
      </trkpt>
      <trkpt lat="44.3673" lon="4.43569">
        <ele>86</ele>
        <time>2024-03-02T08:41:31Z</time>
      </trkpt>
      <trkpt lat="44.36722" lon="4.43595">
        <ele>86</ele>
        <time>2024-03-02T08:41:38Z</time>
      </trkpt>
      <trkpt lat="44.36716" lon="4.43619">
        <ele>85.9</ele>
        <time>2024-03-02T08:41:44Z</time>
      </trkpt>
      <trkpt lat="44.36709" lon="4.43645">
        <ele>85.7</ele>
        <time>2024-03-02T08:41:52Z</time>
      </trkpt>
      <trkpt lat="44.36704" lon="4.43671">
        <ele>85.6</ele>
        <time>2024-03-02T08:42:00Z</time>
      </trkpt>
      <trkpt lat="44.36697" lon="4.43696">
        <ele>85.5</ele>
        <time>2024-03-02T08:42:06Z</time>
      </trkpt>
      <trkpt lat="44.36692" lon="4.43722">
        <ele>85.4</ele>
        <time>2024-03-02T08:42:14Z</time>
      </trkpt>
      <trkpt lat="44.36694" lon="4.43736">
        <ele>85.5</ele>
        <time>2024-03-02T08:42:19Z</time>
      </trkpt>
      <trkpt lat="44.36695" lon="4.43769">
        <ele>85.5</ele>
        <time>2024-03-02T08:42:34Z</time>
      </trkpt>
      <trkpt lat="44.36699" lon="4.43771">
        <ele>86.5</ele>
        <time>2024-03-02T08:42:39Z</time>
      </trkpt>
      <trkpt lat="44.36702" lon="4.43772">
        <ele>86.9</ele>
        <time>2024-03-02T08:42:42Z</time>
      </trkpt>
      <trkpt lat="44.3672" lon="4.43772">
        <ele>91.6</ele>
        <time>2024-03-02T08:42:57Z</time>
      </trkpt>
      <trkpt lat="44.36727" lon="4.43773">
        <ele>94.3</ele>
        <time>2024-03-02T08:43:06Z</time>
      </trkpt>
      <trkpt lat="44.36728" lon="4.4377">
        <ele>95</ele>
        <time>2024-03-02T08:43:09Z</time>
      </trkpt>
      <trkpt lat="44.36729" lon="4.43769">
        <ele>95</ele>
        <time>2024-03-02T08:43:12Z</time>
      </trkpt>
      <trkpt lat="44.36731" lon="4.43768">
        <ele>96.4</ele>
        <time>2024-03-02T08:43:14Z</time>
      </trkpt>
      <trkpt lat="44.36735" lon="4.43761">
        <ele>96.7</ele>
        <time>2024-03-02T08:43:21Z</time>
      </trkpt>
      <trkpt lat="44.36741" lon="4.4376">
        <ele>99.4</ele>
        <time>2024-03-02T08:43:30Z</time>
      </trkpt>
      <trkpt lat="44.36743" lon="4.43761">
        <ele>100.9</ele>
        <time>2024-03-02T08:43:34Z</time>
      </trkpt>
      <trkpt lat="44.36748" lon="4.4376">
        <ele>102.4</ele>
        <time>2024-03-02T08:43:38Z</time>
      </trkpt>
      <trkpt lat="44.36757" lon="4.43766">
        <ele>108.8</ele>
        <time>2024-03-02T08:43:48Z</time>
      </trkpt>
      <trkpt lat="44.36758" lon="4.43772">
        <ele>109.5</ele>
        <time>2024-03-02T08:43:52Z</time>
      </trkpt>
      <trkpt lat="44.3676" lon="4.43775">
        <ele>111.9</ele>
        <time>2024-03-02T08:43:55Z</time>
      </trkpt>
      <trkpt lat="44.36764" lon="4.43786">
        <ele>115.1</ele>
        <time>2024-03-02T08:44:05Z</time>
      </trkpt>
      <trkpt lat="44.36766" lon="4.43787">
        <ele>116.7</ele>
        <time>2024-03-02T08:44:07Z</time>
      </trkpt>
      <trkpt lat="44.36769" lon="4.43787">
        <ele>118.2</ele>
        <time>2024-03-02T08:44:12Z</time>
      </trkpt>
      <trkpt lat="44.36776" lon="4.43794">
        <ele>122.8</ele>
        <time>2024-03-02T08:44:23Z</time>
      </trkpt>
      <trkpt lat="44.36777" lon="4.43796">
        <ele>124.6</ele>
        <time>2024-03-02T08:44:26Z</time>
      </trkpt>
      <trkpt lat="44.36778" lon="4.43797">
        <ele>125.2</ele>
        <time>2024-03-02T08:44:30Z</time>
      </trkpt>
      <trkpt lat="44.36778" lon="4.43798">
        <ele>125.2</ele>
        <time>2024-03-02T08:44:32Z</time>
      </trkpt>
      <trkpt lat="44.36778" lon="4.43798">
        <ele>125.1</ele>
        <time>2024-03-02T08:44:34Z</time>
      </trkpt>
      <trkpt lat="44.3679" lon="4.43807">
        <ele>133</ele>
        <time>2024-03-02T08:44:50Z</time>
      </trkpt>
      <trkpt lat="44.36794" lon="4.43808">
        <ele>134.4</ele>
        <time>2024-03-02T08:44:55Z</time>
      </trkpt>
      <trkpt lat="44.36795" lon="4.43811">
        <ele>136.5</ele>
        <time>2024-03-02T08:44:58Z</time>
      </trkpt>
      <trkpt lat="44.36796" lon="4.43814">
        <ele>137</ele>
        <time>2024-03-02T08:45:00Z</time>
      </trkpt>
      <trkpt lat="44.36798" lon="4.4382">
        <ele>137.6</ele>
        <time>2024-03-02T08:45:05Z</time>
      </trkpt>
      <trkpt lat="44.36799" lon="4.4382">
        <ele>139.3</ele>
        <time>2024-03-02T08:45:08Z</time>
      </trkpt>
      <trkpt lat="44.36809" lon="4.43824">
        <ele>145.4</ele>
        <time>2024-03-02T08:45:22Z</time>
      </trkpt>
      <trkpt lat="44.36811" lon="4.43829">
        <ele>147.6</ele>
        <time>2024-03-02T08:45:28Z</time>
      </trkpt>
      <trkpt lat="44.36814" lon="4.4383">
        <ele>149.1</ele>
        <time>2024-03-02T08:45:31Z</time>
      </trkpt>
      <trkpt lat="44.36815" lon="4.4383">
        <ele>149.1</ele>
        <time>2024-03-02T08:45:34Z</time>
      </trkpt>
      <trkpt lat="44.36817" lon="4.43831">
        <ele>151</ele>
        <time>2024-03-02T08:45:36Z</time>
      </trkpt>
      <trkpt lat="44.3682" lon="4.43832">
        <ele>152.4</ele>
        <time>2024-03-02T08:45:43Z</time>
      </trkpt>
      <trkpt lat="44.36834" lon="4.4384">
        <ele>159.6</ele>
        <time>2024-03-02T08:46:15Z</time>
      </trkpt>
      <trkpt lat="44.36853" lon="4.4385">
        <ele>169.2</ele>
        <time>2024-03-02T08:46:32Z</time>
      </trkpt>
      <trkpt lat="44.36854" lon="4.43849">
        <ele>170.7</ele>
        <time>2024-03-02T08:46:35Z</time>
      </trkpt>
      <trkpt lat="44.36864" lon="4.43862">
        <ele>175.9</ele>
        <time>2024-03-02T08:47:13Z</time>
      </trkpt>
      <trkpt lat="44.36863" lon="4.43889">
        <ele>177.4</ele>
        <time>2024-03-02T08:47:39Z</time>
      </trkpt>
      <trkpt lat="44.36854" lon="4.43911">
        <ele>175</ele>
        <time>2024-03-02T08:48:01Z</time>
      </trkpt>
      <trkpt lat="44.36839" lon="4.43925">
        <ele>171.3</ele>
        <time>2024-03-02T08:48:22Z</time>
      </trkpt>
      <trkpt lat="44.3683" lon="4.43944">
        <ele>170.3</ele>
        <time>2024-03-02T08:48:32Z</time>
      </trkpt>
      <trkpt lat="44.36831" lon="4.43949">
        <ele>170.9</ele>
        <time>2024-03-02T08:48:33Z</time>
      </trkpt>
      <trkpt lat="44.36842" lon="4.43972">
        <ele>178.8</ele>
        <time>2024-03-02T08:48:43Z</time>
      </trkpt>
      <trkpt lat="44.36854" lon="4.43993">
        <ele>186.3</ele>
        <time>2024-03-02T08:48:55Z</time>
      </trkpt>
      <trkpt lat="44.36862" lon="4.44016">
        <ele>192.8</ele>
        <time>2024-03-02T08:49:08Z</time>
      </trkpt>
      <trkpt lat="44.36864" lon="4.44026">
        <ele>195.3</ele>
        <time>2024-03-02T08:49:18Z</time>
      </trkpt>
      <trkpt lat="44.36864" lon="4.44026">
        <ele>195.2</ele>
        <time>2024-03-02T08:49:20Z</time>
      </trkpt>
      <trkpt lat="44.36865" lon="4.44029">
        <ele>195.8</ele>
        <time>2024-03-02T08:49:24Z</time>
      </trkpt>
      <trkpt lat="44.36874" lon="4.4405">
        <ele>202</ele>
        <time>2024-03-02T08:49:47Z</time>
      </trkpt>
      <trkpt lat="44.36882" lon="4.44073">
        <ele>206.6</ele>
        <time>2024-03-02T08:50:11Z</time>
      </trkpt>
      <trkpt lat="44.36882" lon="4.441">
        <ele>207.2</ele>
        <time>2024-03-02T08:50:31Z</time>
      </trkpt>
      <trkpt lat="44.36874" lon="4.44127">
        <ele>205</ele>
        <time>2024-03-02T08:50:45Z</time>
      </trkpt>
      <trkpt lat="44.36873" lon="4.44137">
        <ele>205.3</ele>
        <time>2024-03-02T08:50:53Z</time>
      </trkpt>
      <trkpt lat="44.36873" lon="4.4414">
        <ele>205.5</ele>
        <time>2024-03-02T08:50:55Z</time>
      </trkpt>
      <trkpt lat="44.3687" lon="4.44155">
        <ele>205.2</ele>
        <time>2024-03-02T08:51:04Z</time>
      </trkpt>
      <trkpt lat="44.36871" lon="4.44158">
        <ele>205.3</ele>
        <time>2024-03-02T08:51:06Z</time>
      </trkpt>
      <trkpt lat="44.36873" lon="4.4416">
        <ele>206.1</ele>
        <time>2024-03-02T08:51:08Z</time>
      </trkpt>
      <trkpt lat="44.36892" lon="4.44154">
        <ele>210.3</ele>
        <time>2024-03-02T08:51:17Z</time>
      </trkpt>
      <trkpt lat="44.36911" lon="4.44148">
        <ele>214</ele>
        <time>2024-03-02T08:51:26Z</time>
      </trkpt>
      <trkpt lat="44.36929" lon="4.44146">
        <ele>217.5</ele>
        <time>2024-03-02T08:51:34Z</time>
      </trkpt>
      <trkpt lat="44.36949" lon="4.44147">
        <ele>221.5</ele>
        <time>2024-03-02T08:51:43Z</time>
      </trkpt>
      <trkpt lat="44.36967" lon="4.44145">
        <ele>225.1</ele>
        <time>2024-03-02T08:51:52Z</time>
      </trkpt>
      <trkpt lat="44.36985" lon="4.44154">
        <ele>226.7</ele>
        <time>2024-03-02T08:51:59Z</time>
      </trkpt>
      <trkpt lat="44.37004" lon="4.44164">
        <ele>227.5</ele>
        <time>2024-03-02T08:52:06Z</time>
      </trkpt>
      <trkpt lat="44.37015" lon="4.44184">
        <ele>225.8</ele>
        <time>2024-03-02T08:52:13Z</time>
      </trkpt>
      <trkpt lat="44.37014" lon="4.44186">
        <ele>225.7</ele>
        <time>2024-03-02T08:52:14Z</time>
      </trkpt>
      <trkpt lat="44.36999" lon="4.44203">
        <ele>222.5</ele>
        <time>2024-03-02T08:52:22Z</time>
      </trkpt>
      <trkpt lat="44.36981" lon="4.44218">
        <ele>218.6</ele>
        <time>2024-03-02T08:52:29Z</time>
      </trkpt>
      <trkpt lat="44.3697" lon="4.44241">
        <ele>215.7</ele>
        <time>2024-03-02T08:52:40Z</time>
      </trkpt>
      <trkpt lat="44.36966" lon="4.44268">
        <ele>213.7</ele>
        <time>2024-03-02T08:52:52Z</time>
      </trkpt>
      <trkpt lat="44.36954" lon="4.44289">
        <ele>211.2</ele>
        <time>2024-03-02T08:53:04Z</time>
      </trkpt>
      <trkpt lat="44.36952" lon="4.44316">
        <ele>210.9</ele>
        <time>2024-03-02T08:53:15Z</time>
      </trkpt>
      <trkpt lat="44.36954" lon="4.44343">
        <ele>209.9</ele>
        <time>2024-03-02T08:53:25Z</time>
      </trkpt>
      <trkpt lat="44.36959" lon="4.44368">
        <ele>208.7</ele>
        <time>2024-03-02T08:53:35Z</time>
      </trkpt>
      <trkpt lat="44.36976" lon="4.44375">
        <ele>210.6</ele>
        <time>2024-03-02T08:53:44Z</time>
      </trkpt>
      <trkpt lat="44.36995" lon="4.44374">
        <ele>213.9</ele>
        <time>2024-03-02T08:53:54Z</time>
      </trkpt>
      <trkpt lat="44.37012" lon="4.4438">
        <ele>215.7</ele>
        <time>2024-03-02T08:54:04Z</time>
      </trkpt>
      <trkpt lat="44.37032" lon="4.44387">
        <ele>219.5</ele>
        <time>2024-03-02T08:54:14Z</time>
      </trkpt>
      <trkpt lat="44.37048" lon="4.44401">
        <ele>221.8</ele>
        <time>2024-03-02T08:54:23Z</time>
      </trkpt>
      <trkpt lat="44.37064" lon="4.44414">
        <ele>225.1</ele>
        <time>2024-03-02T08:54:34Z</time>
      </trkpt>
      <trkpt lat="44.37076" lon="4.44432">
        <ele>226.2</ele>
        <time>2024-03-02T08:54:43Z</time>
      </trkpt>
      <trkpt lat="44.37086" lon="4.44453">
        <ele>227.2</ele>
        <time>2024-03-02T08:54:52Z</time>
      </trkpt>
      <trkpt lat="44.37095" lon="4.44478">
        <ele>229</ele>
        <time>2024-03-02T08:55:02Z</time>
      </trkpt>
      <trkpt lat="44.37101" lon="4.44504">
        <ele>230.3</ele>
        <time>2024-03-02T08:55:11Z</time>
      </trkpt>
      <trkpt lat="44.37102" lon="4.44533">
        <ele>229.6</ele>
        <time>2024-03-02T08:55:22Z</time>
      </trkpt>
      <trkpt lat="44.37097" lon="4.44559">
        <ele>224</ele>
        <time>2024-03-02T08:55:28Z</time>
      </trkpt>
      <trkpt lat="44.37099" lon="4.44585">
        <ele>225.3</ele>
        <time>2024-03-02T08:55:35Z</time>
      </trkpt>
      <trkpt lat="44.37102" lon="4.44612">
        <ele>225.6</ele>
        <time>2024-03-02T08:55:42Z</time>
      </trkpt>
      <trkpt lat="44.37102" lon="4.4464">
        <ele>224.7</ele>
        <time>2024-03-02T08:55:49Z</time>
      </trkpt>
      <trkpt lat="44.37104" lon="4.44668">
        <ele>223.4</ele>
        <time>2024-03-02T08:55:56Z</time>
      </trkpt>
      <trkpt lat="44.37103" lon="4.44696">
        <ele>222.7</ele>
        <time>2024-03-02T08:56:05Z</time>
      </trkpt>
      <trkpt lat="44.371" lon="4.4472">
        <ele>221.2</ele>
        <time>2024-03-02T08:56:15Z</time>
      </trkpt>
      <trkpt lat="44.37081" lon="4.4473">
        <ele>214.3</ele>
        <time>2024-03-02T08:56:24Z</time>
      </trkpt>
      <trkpt lat="44.37077" lon="4.44756">
        <ele>212.9</ele>
        <time>2024-03-02T08:56:31Z</time>
      </trkpt>
      <trkpt lat="44.37073" lon="4.44783">
        <ele>213.2</ele>
        <time>2024-03-02T08:56:39Z</time>
      </trkpt>
      <trkpt lat="44.37066" lon="4.4481">
        <ele>213.2</ele>
        <time>2024-03-02T08:56:48Z</time>
      </trkpt>
      <trkpt lat="44.37058" lon="4.44835">
        <ele>211.7</ele>
        <time>2024-03-02T08:56:56Z</time>
      </trkpt>
      <trkpt lat="44.37055" lon="4.4486">
        <ele>213.8</ele>
        <time>2024-03-02T08:57:06Z</time>
      </trkpt>
      <trkpt lat="44.3704" lon="4.44876">
        <ele>209.7</ele>
        <time>2024-03-02T08:57:14Z</time>
      </trkpt>
      <trkpt lat="44.37025" lon="4.44892">
        <ele>205.7</ele>
        <time>2024-03-02T08:57:26Z</time>
      </trkpt>
      <trkpt lat="44.3701" lon="4.44909">
        <ele>204</ele>
        <time>2024-03-02T08:57:33Z</time>
      </trkpt>
      <trkpt lat="44.36995" lon="4.44929">
        <ele>200.5</ele>
        <time>2024-03-02T08:57:40Z</time>
      </trkpt>
      <trkpt lat="44.36981" lon="4.44946">
        <ele>198.5</ele>
        <time>2024-03-02T08:57:46Z</time>
      </trkpt>
      <trkpt lat="44.36966" lon="4.44965">
        <ele>198.2</ele>
        <time>2024-03-02T08:57:55Z</time>
      </trkpt>
      <trkpt lat="44.3695" lon="4.44977">
        <ele>195.8</ele>
        <time>2024-03-02T08:58:02Z</time>
      </trkpt>
      <trkpt lat="44.36934" lon="4.4499">
        <ele>194</ele>
        <time>2024-03-02T08:58:08Z</time>
      </trkpt>
      <trkpt lat="44.36916" lon="4.44994">
        <ele>190.8</ele>
        <time>2024-03-02T08:58:15Z</time>
      </trkpt>
      <trkpt lat="44.36898" lon="4.45002">
        <ele>189.5</ele>
        <time>2024-03-02T08:58:20Z</time>
      </trkpt>
      <trkpt lat="44.3688" lon="4.45011">
        <ele>188.7</ele>
        <time>2024-03-02T08:58:26Z</time>
      </trkpt>
      <trkpt lat="44.36859" lon="4.45013">
        <ele>188</ele>
        <time>2024-03-02T08:58:33Z</time>
      </trkpt>
      <trkpt lat="44.36844" lon="4.45025">
        <ele>189.8</ele>
        <time>2024-03-02T08:58:39Z</time>
      </trkpt>
      <trkpt lat="44.3683" lon="4.45044">
        <ele>191.2</ele>
        <time>2024-03-02T08:58:48Z</time>
      </trkpt>
      <trkpt lat="44.36822" lon="4.45066">
        <ele>192.5</ele>
        <time>2024-03-02T08:58:56Z</time>
      </trkpt>
      <trkpt lat="44.3682" lon="4.45094">
        <ele>194.1</ele>
        <time>2024-03-02T08:59:04Z</time>
      </trkpt>
      <trkpt lat="44.36819" lon="4.45121">
        <ele>195.8</ele>
        <time>2024-03-02T08:59:16Z</time>
      </trkpt>
      <trkpt lat="44.36826" lon="4.45145">
        <ele>197.6</ele>
        <time>2024-03-02T08:59:27Z</time>
      </trkpt>
      <trkpt lat="44.3684" lon="4.45163">
        <ele>199.4</ele>
        <time>2024-03-02T08:59:35Z</time>
      </trkpt>
      <trkpt lat="44.36841" lon="4.4519">
        <ele>201.9</ele>
        <time>2024-03-02T08:59:45Z</time>
      </trkpt>
      <trkpt lat="44.36844" lon="4.45206">
        <ele>203.6</ele>
        <time>2024-03-02T08:59:52Z</time>
      </trkpt>
      <trkpt lat="44.36856" lon="4.45226">
        <ele>206.2</ele>
        <time>2024-03-02T09:00:02Z</time>
      </trkpt>
      <trkpt lat="44.36863" lon="4.45251">
        <ele>208.5</ele>
        <time>2024-03-02T09:00:12Z</time>
      </trkpt>
      <trkpt lat="44.36872" lon="4.45273">
        <ele>210.9</ele>
        <time>2024-03-02T09:00:22Z</time>
      </trkpt>
      <trkpt lat="44.36886" lon="4.45292">
        <ele>213.3</ele>
        <time>2024-03-02T09:00:32Z</time>
      </trkpt>
      <trkpt lat="44.36893" lon="4.45316">
        <ele>214.9</ele>
        <time>2024-03-02T09:00:43Z</time>
      </trkpt>
      <trkpt lat="44.36908" lon="4.45332">
        <ele>216.3</ele>
        <time>2024-03-02T09:00:51Z</time>
      </trkpt>
      <trkpt lat="44.36922" lon="4.4535">
        <ele>217.6</ele>
        <time>2024-03-02T09:00:59Z</time>
      </trkpt>
      <trkpt lat="44.36932" lon="4.45371">
        <ele>219.3</ele>
        <time>2024-03-02T09:01:07Z</time>
      </trkpt>
      <trkpt lat="44.36938" lon="4.45395">
        <ele>221.1</ele>
        <time>2024-03-02T09:01:16Z</time>
      </trkpt>
      <trkpt lat="44.36941" lon="4.45421">
        <ele>222.7</ele>
        <time>2024-03-02T09:01:25Z</time>
      </trkpt>
      <trkpt lat="44.3695" lon="4.45445">
        <ele>224</ele>
        <time>2024-03-02T09:01:35Z</time>
      </trkpt>
      <trkpt lat="44.36958" lon="4.45468">
        <ele>225.4</ele>
        <time>2024-03-02T09:01:44Z</time>
      </trkpt>
      <trkpt lat="44.36966" lon="4.45492">
        <ele>227.2</ele>
        <time>2024-03-02T09:01:54Z</time>
      </trkpt>
      <trkpt lat="44.36968" lon="4.45493">
        <ele>227.5</ele>
        <time>2024-03-02T09:01:55Z</time>
      </trkpt>
      <trkpt lat="44.36985" lon="4.45503">
        <ele>229.4</ele>
        <time>2024-03-02T09:02:02Z</time>
      </trkpt>
      <trkpt lat="44.37001" lon="4.45516">
        <ele>231.7</ele>
        <time>2024-03-02T09:02:10Z</time>
      </trkpt>
      <trkpt lat="44.37008" lon="4.45543">
        <ele>234.1</ele>
        <time>2024-03-02T09:02:20Z</time>
      </trkpt>
      <trkpt lat="44.37012" lon="4.45569">
        <ele>236.1</ele>
        <time>2024-03-02T09:02:30Z</time>
      </trkpt>
      <trkpt lat="44.37015" lon="4.45598">
        <ele>238.2</ele>
        <time>2024-03-02T09:02:41Z</time>
      </trkpt>
      <trkpt lat="44.37024" lon="4.4562">
        <ele>240.4</ele>
        <time>2024-03-02T09:02:51Z</time>
      </trkpt>
      <trkpt lat="44.37028" lon="4.45636">
        <ele>242.1</ele>
        <time>2024-03-02T09:02:58Z</time>
      </trkpt>
      <trkpt lat="44.37036" lon="4.45658">
        <ele>244.7</ele>
        <time>2024-03-02T09:03:07Z</time>
      </trkpt>
      <trkpt lat="44.37043" lon="4.45684">
        <ele>246.6</ele>
        <time>2024-03-02T09:03:17Z</time>
      </trkpt>
      <trkpt lat="44.37046" lon="4.45711">
        <ele>248.4</ele>
        <time>2024-03-02T09:03:26Z</time>
      </trkpt>
      <trkpt lat="44.37059" lon="4.45726">
        <ele>250.6</ele>
        <time>2024-03-02T09:03:36Z</time>
      </trkpt>
      <trkpt lat="44.37074" lon="4.4574">
        <ele>253.2</ele>
        <time>2024-03-02T09:03:47Z</time>
      </trkpt>
      <trkpt lat="44.37083" lon="4.45761">
        <ele>255.3</ele>
        <time>2024-03-02T09:03:57Z</time>
      </trkpt>
      <trkpt lat="44.37075" lon="4.45786">
        <ele>257.1</ele>
        <time>2024-03-02T09:04:04Z</time>
      </trkpt>
      <trkpt lat="44.37063" lon="4.45807">
        <ele>258.7</ele>
        <time>2024-03-02T09:04:10Z</time>
      </trkpt>
      <trkpt lat="44.37062" lon="4.45832">
        <ele>260.6</ele>
        <time>2024-03-02T09:04:18Z</time>
      </trkpt>
      <trkpt lat="44.37073" lon="4.45854">
        <ele>262.6</ele>
        <time>2024-03-02T09:04:28Z</time>
      </trkpt>
      <trkpt lat="44.37079" lon="4.45879">
        <ele>264.5</ele>
        <time>2024-03-02T09:04:38Z</time>
      </trkpt>
      <trkpt lat="44.37086" lon="4.45903">
        <ele>266.4</ele>
        <time>2024-03-02T09:04:48Z</time>
      </trkpt>
      <trkpt lat="44.37087" lon="4.4593">
        <ele>269</ele>
        <time>2024-03-02T09:04:59Z</time>
      </trkpt>
      <trkpt lat="44.37093" lon="4.45956">
        <ele>272.4</ele>
        <time>2024-03-02T09:05:09Z</time>
      </trkpt>
      <trkpt lat="44.37088" lon="4.45981">
        <ele>276.4</ele>
        <time>2024-03-02T09:05:18Z</time>
      </trkpt>
      <trkpt lat="44.37078" lon="4.46004">
        <ele>277.7</ele>
        <time>2024-03-02T09:05:26Z</time>
      </trkpt>
      <trkpt lat="44.37075" lon="4.46029">
        <ele>278.6</ele>
        <time>2024-03-02T09:05:38Z</time>
      </trkpt>
      <trkpt lat="44.37072" lon="4.46051">
        <ele>279.1</ele>
        <time>2024-03-02T09:05:49Z</time>
      </trkpt>
      <trkpt lat="44.3706" lon="4.46071">
        <ele>279.6</ele>
        <time>2024-03-02T09:06:00Z</time>
      </trkpt>
      <trkpt lat="44.37072" lon="4.46089">
        <ele>280.1</ele>
        <time>2024-03-02T09:06:10Z</time>
      </trkpt>
      <trkpt lat="44.37073" lon="4.46092">
        <ele>280.1</ele>
        <time>2024-03-02T09:06:12Z</time>
      </trkpt>
      <trkpt lat="44.37054" lon="4.46087">
        <ele>280.3</ele>
        <time>2024-03-02T09:06:27Z</time>
      </trkpt>
      <trkpt lat="44.3705" lon="4.46082">
        <ele>280.4</ele>
        <time>2024-03-02T09:06:31Z</time>
      </trkpt>
      <trkpt lat="44.37066" lon="4.46056">
        <ele>280.8</ele>
        <time>2024-03-02T09:09:04Z</time>
      </trkpt>
      <trkpt lat="44.37064" lon="4.46028">
        <ele>282.1</ele>
        <time>2024-03-02T09:09:14Z</time>
      </trkpt>
      <trkpt lat="44.37061" lon="4.46001">
        <ele>283.5</ele>
        <time>2024-03-02T09:09:23Z</time>
      </trkpt>
      <trkpt lat="44.37055" lon="4.45977">
        <ele>284.8</ele>
        <time>2024-03-02T09:09:32Z</time>
      </trkpt>
      <trkpt lat="44.37047" lon="4.45951">
        <ele>286.4</ele>
        <time>2024-03-02T09:09:41Z</time>
      </trkpt>
      <trkpt lat="44.37036" lon="4.45928">
        <ele>288</ele>
        <time>2024-03-02T09:09:50Z</time>
      </trkpt>
      <trkpt lat="44.37023" lon="4.45906">
        <ele>289.6</ele>
        <time>2024-03-02T09:09:59Z</time>
      </trkpt>
      <trkpt lat="44.3701" lon="4.45885">
        <ele>291.4</ele>
        <time>2024-03-02T09:10:07Z</time>
      </trkpt>
      <trkpt lat="44.36998" lon="4.45863">
        <ele>293.1</ele>
        <time>2024-03-02T09:10:15Z</time>
      </trkpt>
      <trkpt lat="44.36985" lon="4.45843">
        <ele>294.8</ele>
        <time>2024-03-02T09:10:23Z</time>
      </trkpt>
      <trkpt lat="44.36971" lon="4.45825">
        <ele>296.3</ele>
        <time>2024-03-02T09:10:31Z</time>
      </trkpt>
      <trkpt lat="44.36959" lon="4.45805">
        <ele>297.8</ele>
        <time>2024-03-02T09:10:39Z</time>
      </trkpt>
      <trkpt lat="44.36951" lon="4.45793">
        <ele>298.7</ele>
        <time>2024-03-02T09:10:45Z</time>
      </trkpt>
      <trkpt lat="44.3695" lon="4.45795">
        <ele>298.8</ele>
        <time>2024-03-02T09:10:47Z</time>
      </trkpt>
      <trkpt lat="44.36961" lon="4.45818">
        <ele>300.3</ele>
        <time>2024-03-02T09:10:55Z</time>
      </trkpt>
      <trkpt lat="44.36969" lon="4.45844">
        <ele>301.9</ele>
        <time>2024-03-02T09:11:03Z</time>
      </trkpt>
      <trkpt lat="44.36978" lon="4.45869">
        <ele>303.2</ele>
        <time>2024-03-02T09:11:11Z</time>
      </trkpt>
      <trkpt lat="44.36985" lon="4.45894">
        <ele>304.1</ele>
        <time>2024-03-02T09:11:18Z</time>
      </trkpt>
      <trkpt lat="44.36991" lon="4.45919">
        <ele>305.4</ele>
        <time>2024-03-02T09:11:26Z</time>
      </trkpt>
      <trkpt lat="44.36999" lon="4.45944">
        <ele>306.9</ele>
        <time>2024-03-02T09:11:34Z</time>
      </trkpt>
      <trkpt lat="44.37007" lon="4.45969">
        <ele>307.9</ele>
        <time>2024-03-02T09:11:43Z</time>
      </trkpt>
      <trkpt lat="44.3701" lon="4.45995">
        <ele>308.7</ele>
        <time>2024-03-02T09:11:50Z</time>
      </trkpt>
      <trkpt lat="44.37012" lon="4.46021">
        <ele>309.6</ele>
        <time>2024-03-02T09:11:57Z</time>
      </trkpt>
      <trkpt lat="44.37013" lon="4.46049">
        <ele>310.4</ele>
        <time>2024-03-02T09:12:05Z</time>
      </trkpt>
      <trkpt lat="44.37013" lon="4.46078">
        <ele>311.1</ele>
        <time>2024-03-02T09:12:12Z</time>
      </trkpt>
      <trkpt lat="44.37017" lon="4.46106">
        <ele>311.5</ele>
        <time>2024-03-02T09:12:19Z</time>
      </trkpt>
      <trkpt lat="44.37021" lon="4.46135">
        <ele>311.8</ele>
        <time>2024-03-02T09:12:26Z</time>
      </trkpt>
      <trkpt lat="44.37026" lon="4.46161">
        <ele>312.3</ele>
        <time>2024-03-02T09:12:33Z</time>
      </trkpt>
      <trkpt lat="44.37032" lon="4.46187">
        <ele>312.7</ele>
        <time>2024-03-02T09:12:39Z</time>
      </trkpt>
      <trkpt lat="44.37036" lon="4.46215">
        <ele>312.9</ele>
        <time>2024-03-02T09:12:45Z</time>
      </trkpt>
      <trkpt lat="44.37043" lon="4.4624">
        <ele>313.1</ele>
        <time>2024-03-02T09:12:51Z</time>
      </trkpt>
      <trkpt lat="44.37048" lon="4.46266">
        <ele>313.6</ele>
        <time>2024-03-02T09:12:57Z</time>
      </trkpt>
      <trkpt lat="44.37051" lon="4.46292">
        <ele>314.2</ele>
        <time>2024-03-02T09:13:03Z</time>
      </trkpt>
      <trkpt lat="44.37054" lon="4.46318">
        <ele>315</ele>
        <time>2024-03-02T09:13:09Z</time>
      </trkpt>
      <trkpt lat="44.37057" lon="4.46343">
        <ele>315.9</ele>
        <time>2024-03-02T09:13:15Z</time>
      </trkpt>
      <trkpt lat="44.37059" lon="4.46369">
        <ele>316.8</ele>
        <time>2024-03-02T09:13:21Z</time>
      </trkpt>
      <trkpt lat="44.37061" lon="4.46395">
        <ele>317.4</ele>
        <time>2024-03-02T09:13:27Z</time>
      </trkpt>
      <trkpt lat="44.37061" lon="4.46422">
        <ele>317.8</ele>
        <time>2024-03-02T09:13:33Z</time>
      </trkpt>
      <trkpt lat="44.3706" lon="4.4645">
        <ele>318.3</ele>
        <time>2024-03-02T09:13:39Z</time>
      </trkpt>
      <trkpt lat="44.37059" lon="4.46477">
        <ele>318.7</ele>
        <time>2024-03-02T09:13:45Z</time>
      </trkpt>
      <trkpt lat="44.37058" lon="4.46505">
        <ele>319</ele>
        <time>2024-03-02T09:13:51Z</time>
      </trkpt>
      <trkpt lat="44.37058" lon="4.46531">
        <ele>319.4</ele>
        <time>2024-03-02T09:13:57Z</time>
      </trkpt>
      <trkpt lat="44.37055" lon="4.46559">
        <ele>320</ele>
        <time>2024-03-02T09:14:03Z</time>
      </trkpt>
      <trkpt lat="44.37041" lon="4.4658">
        <ele>323.6</ele>
        <time>2024-03-02T09:14:09Z</time>
      </trkpt>
      <trkpt lat="44.37028" lon="4.46598">
        <ele>324</ele>
        <time>2024-03-02T09:14:14Z</time>
      </trkpt>
      <trkpt lat="44.37017" lon="4.46622">
        <ele>323.7</ele>
        <time>2024-03-02T09:14:20Z</time>
      </trkpt>
      <trkpt lat="44.37004" lon="4.46645">
        <ele>323.4</ele>
        <time>2024-03-02T09:14:26Z</time>
      </trkpt>
      <trkpt lat="44.36992" lon="4.46665">
        <ele>323.7</ele>
        <time>2024-03-02T09:14:32Z</time>
      </trkpt>
      <trkpt lat="44.36979" lon="4.46685">
        <ele>324</ele>
        <time>2024-03-02T09:14:38Z</time>
      </trkpt>
      <trkpt lat="44.36964" lon="4.46702">
        <ele>324.9</ele>
        <time>2024-03-02T09:14:44Z</time>
      </trkpt>
      <trkpt lat="44.36956" lon="4.46728">
        <ele>326.5</ele>
        <time>2024-03-02T09:14:52Z</time>
      </trkpt>
      <trkpt lat="44.36952" lon="4.46752">
        <ele>327.8</ele>
        <time>2024-03-02T09:14:58Z</time>
      </trkpt>
      <trkpt lat="44.36946" lon="4.46778">
        <ele>328.7</ele>
        <time>2024-03-02T09:15:04Z</time>
      </trkpt>
      <trkpt lat="44.36941" lon="4.46802">
        <ele>330</ele>
        <time>2024-03-02T09:15:10Z</time>
      </trkpt>
      <trkpt lat="44.36939" lon="4.46828">
        <ele>331.3</ele>
        <time>2024-03-02T09:15:16Z</time>
      </trkpt>
      <trkpt lat="44.36942" lon="4.46853">
        <ele>332.4</ele>
        <time>2024-03-02T09:15:22Z</time>
      </trkpt>
      <trkpt lat="44.36932" lon="4.46877">
        <ele>333.1</ele>
        <time>2024-03-02T09:15:28Z</time>
      </trkpt>
      <trkpt lat="44.36916" lon="4.4689">
        <ele>333.4</ele>
        <time>2024-03-02T09:15:33Z</time>
      </trkpt>
      <trkpt lat="44.36898" lon="4.46906">
        <ele>333.2</ele>
        <time>2024-03-02T09:15:39Z</time>
      </trkpt>
      <trkpt lat="44.36882" lon="4.4692">
        <ele>332.5</ele>
        <time>2024-03-02T09:15:44Z</time>
      </trkpt>
      <trkpt lat="44.36874" lon="4.46945">
        <ele>330.8</ele>
        <time>2024-03-02T09:15:50Z</time>
      </trkpt>
      <trkpt lat="44.36872" lon="4.46975">
        <ele>329.5</ele>
        <time>2024-03-02T09:15:56Z</time>
      </trkpt>
      <trkpt lat="44.36864" lon="4.46997">
        <ele>328.3</ele>
        <time>2024-03-02T09:16:02Z</time>
      </trkpt>
      <trkpt lat="44.36849" lon="4.47015">
        <ele>327.5</ele>
        <time>2024-03-02T09:16:08Z</time>
      </trkpt>
      <trkpt lat="44.36833" lon="4.47032">
        <ele>326.8</ele>
        <time>2024-03-02T09:16:14Z</time>
      </trkpt>
      <trkpt lat="44.36827" lon="4.47057">
        <ele>326.5</ele>
        <time>2024-03-02T09:16:21Z</time>
      </trkpt>
      <trkpt lat="44.36821" lon="4.47084">
        <ele>326.7</ele>
        <time>2024-03-02T09:16:28Z</time>
      </trkpt>
      <trkpt lat="44.36809" lon="4.47106">
        <ele>326.8</ele>
        <time>2024-03-02T09:16:34Z</time>
      </trkpt>
      <trkpt lat="44.36801" lon="4.47131">
        <ele>326.4</ele>
        <time>2024-03-02T09:16:40Z</time>
      </trkpt>
      <trkpt lat="44.36798" lon="4.47157">
        <ele>325.8</ele>
        <time>2024-03-02T09:16:46Z</time>
      </trkpt>
      <trkpt lat="44.36795" lon="4.47184">
        <ele>325</ele>
        <time>2024-03-02T09:16:52Z</time>
      </trkpt>
      <trkpt lat="44.36794" lon="4.47213">
        <ele>324.2</ele>
        <time>2024-03-02T09:16:58Z</time>
      </trkpt>
      <trkpt lat="44.36797" lon="4.47241">
        <ele>323.3</ele>
        <time>2024-03-02T09:17:04Z</time>
      </trkpt>
      <trkpt lat="44.36803" lon="4.47269">
        <ele>322.2</ele>
        <time>2024-03-02T09:17:10Z</time>
      </trkpt>
      <trkpt lat="44.36804" lon="4.47297">
        <ele>320.5</ele>
        <time>2024-03-02T09:17:16Z</time>
      </trkpt>
      <trkpt lat="44.36806" lon="4.47325">
        <ele>319.6</ele>
        <time>2024-03-02T09:17:21Z</time>
      </trkpt>
      <trkpt lat="44.36813" lon="4.47349">
        <ele>319.5</ele>
        <time>2024-03-02T09:17:26Z</time>
      </trkpt>
      <trkpt lat="44.36821" lon="4.47376">
        <ele>320.7</ele>
        <time>2024-03-02T09:17:33Z</time>
      </trkpt>
      <trkpt lat="44.36824" lon="4.47402">
        <ele>322.1</ele>
        <time>2024-03-02T09:17:40Z</time>
      </trkpt>
      <trkpt lat="44.3683" lon="4.4743">
        <ele>324</ele>
        <time>2024-03-02T09:17:48Z</time>
      </trkpt>
      <trkpt lat="44.36838" lon="4.47453">
        <ele>325.8</ele>
        <time>2024-03-02T09:17:55Z</time>
      </trkpt>
      <trkpt lat="44.36843" lon="4.4748">
        <ele>327.5</ele>
        <time>2024-03-02T09:18:02Z</time>
      </trkpt>
      <trkpt lat="44.3685" lon="4.47507">
        <ele>328.9</ele>
        <time>2024-03-02T09:18:09Z</time>
      </trkpt>
      <trkpt lat="44.36853" lon="4.47532">
        <ele>329.8</ele>
        <time>2024-03-02T09:18:16Z</time>
      </trkpt>
      <trkpt lat="44.3686" lon="4.47557">
        <ele>330.2</ele>
        <time>2024-03-02T09:18:23Z</time>
      </trkpt>
      <trkpt lat="44.36866" lon="4.47584">
        <ele>330.7</ele>
        <time>2024-03-02T09:18:31Z</time>
      </trkpt>
      <trkpt lat="44.36872" lon="4.47609">
        <ele>330.8</ele>
        <time>2024-03-02T09:18:37Z</time>
      </trkpt>
      <trkpt lat="44.36877" lon="4.47633">
        <ele>330.8</ele>
        <time>2024-03-02T09:18:43Z</time>
      </trkpt>
      <trkpt lat="44.36883" lon="4.4766">
        <ele>330.4</ele>
        <time>2024-03-02T09:18:49Z</time>
      </trkpt>
      <trkpt lat="44.3689" lon="4.47686">
        <ele>330.3</ele>
        <time>2024-03-02T09:18:55Z</time>
      </trkpt>
      <trkpt lat="44.36899" lon="4.47709">
        <ele>330.4</ele>
        <time>2024-03-02T09:19:01Z</time>
      </trkpt>
      <trkpt lat="44.36906" lon="4.47733">
        <ele>330.4</ele>
        <time>2024-03-02T09:19:07Z</time>
      </trkpt>
      <trkpt lat="44.36912" lon="4.47758">
        <ele>330.3</ele>
        <time>2024-03-02T09:19:13Z</time>
      </trkpt>
      <trkpt lat="44.36916" lon="4.47784">
        <ele>330</ele>
        <time>2024-03-02T09:19:19Z</time>
      </trkpt>
      <trkpt lat="44.3692" lon="4.47809">
        <ele>329.6</ele>
        <time>2024-03-02T09:19:24Z</time>
      </trkpt>
      <trkpt lat="44.36927" lon="4.47834">
        <ele>329.6</ele>
        <time>2024-03-02T09:19:29Z</time>
      </trkpt>
      <trkpt lat="44.36932" lon="4.47861">
        <ele>329.6</ele>
        <time>2024-03-02T09:19:34Z</time>
      </trkpt>
      <trkpt lat="44.36938" lon="4.47887">
        <ele>329.4</ele>
        <time>2024-03-02T09:19:39Z</time>
      </trkpt>
      <trkpt lat="44.36945" lon="4.47911">
        <ele>329.2</ele>
        <time>2024-03-02T09:19:44Z</time>
      </trkpt>
      <trkpt lat="44.3695" lon="4.47936">
        <ele>322.5</ele>
        <time>2024-03-02T09:19:49Z</time>
      </trkpt>
      <trkpt lat="44.3695" lon="4.47953">
        <ele>316.1</ele>
        <time>2024-03-02T09:19:53Z</time>
      </trkpt>
      <trkpt lat="44.36946" lon="4.47955">
        <ele>310.1</ele>
        <time>2024-03-02T09:19:55Z</time>
      </trkpt>
      <trkpt lat="44.36944" lon="4.47956">
        <ele>304.3</ele>
        <time>2024-03-02T09:19:59Z</time>
      </trkpt>
      <trkpt lat="44.36956" lon="4.47978">
        <ele>304.6</ele>
        <time>2024-03-02T09:20:07Z</time>
      </trkpt>
      <trkpt lat="44.36961" lon="4.47998">
        <ele>304.3</ele>
        <time>2024-03-02T09:20:13Z</time>
      </trkpt>
      <trkpt lat="44.36941" lon="4.48006">
        <ele>302.5</ele>
        <time>2024-03-02T09:20:19Z</time>
      </trkpt>
      <trkpt lat="44.3692" lon="4.48004">
        <ele>301</ele>
        <time>2024-03-02T09:20:25Z</time>
      </trkpt>
      <trkpt lat="44.369" lon="4.48003">
        <ele>299.4</ele>
        <time>2024-03-02T09:20:31Z</time>
      </trkpt>
      <trkpt lat="44.36879" lon="4.48002">
        <ele>297.7</ele>
        <time>2024-03-02T09:20:37Z</time>
      </trkpt>
      <trkpt lat="44.36859" lon="4.48">
        <ele>296.5</ele>
        <time>2024-03-02T09:20:43Z</time>
      </trkpt>
      <trkpt lat="44.36839" lon="4.47999">
        <ele>295.5</ele>
        <time>2024-03-02T09:20:49Z</time>
      </trkpt>
      <trkpt lat="44.36819" lon="4.48">
        <ele>294.9</ele>
        <time>2024-03-02T09:20:55Z</time>
      </trkpt>
      <trkpt lat="44.368" lon="4.47998">
        <ele>294.6</ele>
        <time>2024-03-02T09:21:01Z</time>
      </trkpt>
      <trkpt lat="44.3678" lon="4.48003">
        <ele>294.6</ele>
        <time>2024-03-02T09:21:08Z</time>
      </trkpt>
      <trkpt lat="44.36761" lon="4.4801">
        <ele>294.5</ele>
        <time>2024-03-02T09:21:15Z</time>
      </trkpt>
      <trkpt lat="44.36753" lon="4.48034">
        <ele>294.5</ele>
        <time>2024-03-02T09:21:21Z</time>
      </trkpt>
      <trkpt lat="44.36762" lon="4.48058">
        <ele>294.4</ele>
        <time>2024-03-02T09:21:27Z</time>
      </trkpt>
      <trkpt lat="44.36775" lon="4.48078">
        <ele>294.2</ele>
        <time>2024-03-02T09:21:33Z</time>
      </trkpt>
      <trkpt lat="44.36789" lon="4.48101">
        <ele>293.8</ele>
        <time>2024-03-02T09:21:39Z</time>
      </trkpt>
      <trkpt lat="44.36802" lon="4.48124">
        <ele>293.3</ele>
        <time>2024-03-02T09:21:45Z</time>
      </trkpt>
      <trkpt lat="44.36814" lon="4.48146">
        <ele>292.6</ele>
        <time>2024-03-02T09:21:51Z</time>
      </trkpt>
      <trkpt lat="44.36825" lon="4.48166">
        <ele>292.1</ele>
        <time>2024-03-02T09:21:57Z</time>
      </trkpt>
      <trkpt lat="44.36837" lon="4.48187">
        <ele>291.4</ele>
        <time>2024-03-02T09:22:03Z</time>
      </trkpt>
      <trkpt lat="44.3685" lon="4.4821">
        <ele>290.6</ele>
        <time>2024-03-02T09:22:09Z</time>
      </trkpt>
      <trkpt lat="44.36861" lon="4.48233">
        <ele>289.6</ele>
        <time>2024-03-02T09:22:15Z</time>
      </trkpt>
      <trkpt lat="44.36872" lon="4.48253">
        <ele>288.7</ele>
        <time>2024-03-02T09:22:20Z</time>
      </trkpt>
      <trkpt lat="44.36886" lon="4.48276">
        <ele>287.3</ele>
        <time>2024-03-02T09:22:26Z</time>
      </trkpt>
      <trkpt lat="44.36898" lon="4.48299">
        <ele>286.2</ele>
        <time>2024-03-02T09:22:32Z</time>
      </trkpt>
      <trkpt lat="44.3691" lon="4.48318">
        <ele>285.5</ele>
        <time>2024-03-02T09:22:37Z</time>
      </trkpt>
      <trkpt lat="44.36923" lon="4.48342">
        <ele>285.4</ele>
        <time>2024-03-02T09:22:43Z</time>
      </trkpt>
      <trkpt lat="44.36934" lon="4.48365">
        <ele>285.6</ele>
        <time>2024-03-02T09:22:49Z</time>
      </trkpt>
      <trkpt lat="44.36945" lon="4.48388">
        <ele>285.5</ele>
        <time>2024-03-02T09:22:56Z</time>
      </trkpt>
      <trkpt lat="44.36957" lon="4.48411">
        <ele>285.1</ele>
        <time>2024-03-02T09:23:02Z</time>
      </trkpt>
      <trkpt lat="44.36965" lon="4.48433">
        <ele>285.4</ele>
        <time>2024-03-02T09:23:08Z</time>
      </trkpt>
      <trkpt lat="44.36971" lon="4.4846">
        <ele>287.1</ele>
        <time>2024-03-02T09:23:16Z</time>
      </trkpt>
      <trkpt lat="44.36979" lon="4.48486">
        <ele>288.3</ele>
        <time>2024-03-02T09:23:23Z</time>
      </trkpt>
      <trkpt lat="44.36988" lon="4.48511">
        <ele>288.8</ele>
        <time>2024-03-02T09:23:30Z</time>
      </trkpt>
      <trkpt lat="44.36997" lon="4.48536">
        <ele>289.2</ele>
        <time>2024-03-02T09:23:37Z</time>
      </trkpt>
      <trkpt lat="44.37007" lon="4.48558">
        <ele>289.5</ele>
        <time>2024-03-02T09:23:43Z</time>
      </trkpt>
      <trkpt lat="44.37016" lon="4.48581">
        <ele>289.7</ele>
        <time>2024-03-02T09:23:49Z</time>
      </trkpt>
      <trkpt lat="44.37024" lon="4.48606">
        <ele>290.4</ele>
        <time>2024-03-02T09:23:56Z</time>
      </trkpt>
      <trkpt lat="44.37034" lon="4.48629">
        <ele>291.6</ele>
        <time>2024-03-02T09:24:03Z</time>
      </trkpt>
      <trkpt lat="44.37051" lon="4.48644">
        <ele>292.9</ele>
        <time>2024-03-02T09:24:11Z</time>
      </trkpt>
      <trkpt lat="44.3707" lon="4.48646">
        <ele>293.7</ele>
        <time>2024-03-02T09:24:17Z</time>
      </trkpt>
      <trkpt lat="44.37081" lon="4.48663">
        <ele>294.2</ele>
        <time>2024-03-02T09:24:23Z</time>
      </trkpt>
      <trkpt lat="44.37078" lon="4.48689">
        <ele>294.9</ele>
        <time>2024-03-02T09:24:29Z</time>
      </trkpt>
      <trkpt lat="44.37077" lon="4.48715">
        <ele>295.7</ele>
        <time>2024-03-02T09:24:35Z</time>
      </trkpt>
      <trkpt lat="44.37075" lon="4.48742">
        <ele>296.3</ele>
        <time>2024-03-02T09:24:41Z</time>
      </trkpt>
      <trkpt lat="44.37071" lon="4.48769">
        <ele>296.8</ele>
        <time>2024-03-02T09:24:47Z</time>
      </trkpt>
      <trkpt lat="44.37067" lon="4.48796">
        <ele>297</ele>
        <time>2024-03-02T09:24:53Z</time>
      </trkpt>
      <trkpt lat="44.37065" lon="4.48822">
        <ele>297.4</ele>
        <time>2024-03-02T09:24:59Z</time>
      </trkpt>
      <trkpt lat="44.37063" lon="4.48847">
        <ele>297.6</ele>
        <time>2024-03-02T09:25:05Z</time>
      </trkpt>
      <trkpt lat="44.3706" lon="4.48876">
        <ele>297.8</ele>
        <time>2024-03-02T09:25:12Z</time>
      </trkpt>
      <trkpt lat="44.37057" lon="4.48902">
        <ele>298.1</ele>
        <time>2024-03-02T09:25:18Z</time>
      </trkpt>
      <trkpt lat="44.37049" lon="4.48922">
        <ele>298.2</ele>
        <time>2024-03-02T09:25:24Z</time>
      </trkpt>
      <trkpt lat="44.37029" lon="4.48917">
        <ele>297.8</ele>
        <time>2024-03-02T09:25:31Z</time>
      </trkpt>
      <trkpt lat="44.37009" lon="4.4891">
        <ele>297</ele>
        <time>2024-03-02T09:25:38Z</time>
      </trkpt>
      <trkpt lat="44.36991" lon="4.48901">
        <ele>296.1</ele>
        <time>2024-03-02T09:25:44Z</time>
      </trkpt>
      <trkpt lat="44.36972" lon="4.48893">
        <ele>295.2</ele>
        <time>2024-03-02T09:25:51Z</time>
      </trkpt>
      <trkpt lat="44.36953" lon="4.48887">
        <ele>294.4</ele>
        <time>2024-03-02T09:25:57Z</time>
      </trkpt>
      <trkpt lat="44.36935" lon="4.4888">
        <ele>293.5</ele>
        <time>2024-03-02T09:26:02Z</time>
      </trkpt>
      <trkpt lat="44.36916" lon="4.48872">
        <ele>292.3</ele>
        <time>2024-03-02T09:26:08Z</time>
      </trkpt>
      <trkpt lat="44.36895" lon="4.48866">
        <ele>291</ele>
        <time>2024-03-02T09:26:14Z</time>
      </trkpt>
      <trkpt lat="44.36876" lon="4.48859">
        <ele>289.7</ele>
        <time>2024-03-02T09:26:20Z</time>
      </trkpt>
      <trkpt lat="44.36857" lon="4.48851">
        <ele>288.5</ele>
        <time>2024-03-02T09:26:25Z</time>
      </trkpt>
      <trkpt lat="44.36839" lon="4.48845">
        <ele>287.7</ele>
        <time>2024-03-02T09:26:30Z</time>
      </trkpt>
      <trkpt lat="44.3682" lon="4.48838">
        <ele>287.2</ele>
        <time>2024-03-02T09:26:35Z</time>
      </trkpt>
      <trkpt lat="44.36799" lon="4.48832">
        <ele>287.3</ele>
        <time>2024-03-02T09:26:41Z</time>
      </trkpt>
      <trkpt lat="44.36781" lon="4.48824">
        <ele>287.9</ele>
        <time>2024-03-02T09:26:47Z</time>
      </trkpt>
      <trkpt lat="44.36764" lon="4.48817">
        <ele>288.9</ele>
        <time>2024-03-02T09:26:53Z</time>
      </trkpt>
      <trkpt lat="44.36747" lon="4.48808">
        <ele>289.8</ele>
        <time>2024-03-02T09:26:59Z</time>
      </trkpt>
      <trkpt lat="44.36729" lon="4.48798">
        <ele>290.9</ele>
        <time>2024-03-02T09:27:06Z</time>
      </trkpt>
      <trkpt lat="44.36711" lon="4.48791">
        <ele>291.9</ele>
        <time>2024-03-02T09:27:12Z</time>
      </trkpt>
      <trkpt lat="44.36693" lon="4.48784">
        <ele>293.1</ele>
        <time>2024-03-02T09:27:18Z</time>
      </trkpt>
      <trkpt lat="44.36673" lon="4.48775">
        <ele>294.3</ele>
        <time>2024-03-02T09:27:25Z</time>
      </trkpt>
      <trkpt lat="44.36656" lon="4.48766">
        <ele>295.4</ele>
        <time>2024-03-02T09:27:31Z</time>
      </trkpt>
      <trkpt lat="44.36637" lon="4.48757">
        <ele>296.6</ele>
        <time>2024-03-02T09:27:38Z</time>
      </trkpt>
      <trkpt lat="44.36617" lon="4.48748">
        <ele>298</ele>
        <time>2024-03-02T09:27:45Z</time>
      </trkpt>
      <trkpt lat="44.36598" lon="4.48742">
        <ele>299.3</ele>
        <time>2024-03-02T09:27:52Z</time>
      </trkpt>
      <trkpt lat="44.36578" lon="4.48738">
        <ele>300.7</ele>
        <time>2024-03-02T09:27:59Z</time>
      </trkpt>
      <trkpt lat="44.3656" lon="4.48732">
        <ele>301.8</ele>
        <time>2024-03-02T09:28:06Z</time>
      </trkpt>
      <trkpt lat="44.36543" lon="4.48725">
        <ele>302.7</ele>
        <time>2024-03-02T09:28:12Z</time>
      </trkpt>
      <trkpt lat="44.36523" lon="4.48717">
        <ele>303.6</ele>
        <time>2024-03-02T09:28:19Z</time>
      </trkpt>
      <trkpt lat="44.36505" lon="4.48708">
        <ele>304.6</ele>
        <time>2024-03-02T09:28:26Z</time>
      </trkpt>
      <trkpt lat="44.36484" lon="4.487">
        <ele>305.6</ele>
        <time>2024-03-02T09:28:33Z</time>
      </trkpt>
      <trkpt lat="44.36466" lon="4.48693">
        <ele>306.4</ele>
        <time>2024-03-02T09:28:39Z</time>
      </trkpt>
      <trkpt lat="44.36448" lon="4.48685">
        <ele>306.9</ele>
        <time>2024-03-02T09:28:45Z</time>
      </trkpt>
      <trkpt lat="44.36428" lon="4.48675">
        <ele>307.3</ele>
        <time>2024-03-02T09:28:52Z</time>
      </trkpt>
      <trkpt lat="44.36409" lon="4.4867">
        <ele>307.7</ele>
        <time>2024-03-02T09:28:58Z</time>
      </trkpt>
      <trkpt lat="44.36391" lon="4.4867">
        <ele>308</ele>
        <time>2024-03-02T09:29:04Z</time>
      </trkpt>
      <trkpt lat="44.36372" lon="4.48672">
        <ele>308.6</ele>
        <time>2024-03-02T09:29:10Z</time>
      </trkpt>
      <trkpt lat="44.36353" lon="4.48676">
        <ele>309.2</ele>
        <time>2024-03-02T09:29:17Z</time>
      </trkpt>
      <trkpt lat="44.36334" lon="4.48681">
        <ele>309.8</ele>
        <time>2024-03-02T09:29:24Z</time>
      </trkpt>
      <trkpt lat="44.36316" lon="4.48686">
        <ele>310.2</ele>
        <time>2024-03-02T09:29:30Z</time>
      </trkpt>
      <trkpt lat="44.36297" lon="4.48688">
        <ele>310.4</ele>
        <time>2024-03-02T09:29:37Z</time>
      </trkpt>
      <trkpt lat="44.36279" lon="4.4869">
        <ele>310.4</ele>
        <time>2024-03-02T09:29:43Z</time>
      </trkpt>
      <trkpt lat="44.36261" lon="4.48692">
        <ele>310.5</ele>
        <time>2024-03-02T09:29:48Z</time>
      </trkpt>
      <trkpt lat="44.36241" lon="4.48695">
        <ele>310.6</ele>
        <time>2024-03-02T09:29:54Z</time>
      </trkpt>
      <trkpt lat="44.3622" lon="4.48696">
        <ele>310.6</ele>
        <time>2024-03-02T09:29:59Z</time>
      </trkpt>
      <trkpt lat="44.362" lon="4.48699">
        <ele>310.3</ele>
        <time>2024-03-02T09:30:05Z</time>
      </trkpt>
      <trkpt lat="44.3618" lon="4.48703">
        <ele>310.1</ele>
        <time>2024-03-02T09:30:11Z</time>
      </trkpt>
      <trkpt lat="44.3616" lon="4.48703">
        <ele>309.8</ele>
        <time>2024-03-02T09:30:16Z</time>
      </trkpt>
      <trkpt lat="44.36139" lon="4.48707">
        <ele>309.5</ele>
        <time>2024-03-02T09:30:22Z</time>
      </trkpt>
      <trkpt lat="44.36121" lon="4.487">
        <ele>308.9</ele>
        <time>2024-03-02T09:30:28Z</time>
      </trkpt>
      <trkpt lat="44.36118" lon="4.48675">
        <ele>308.8</ele>
        <time>2024-03-02T09:30:34Z</time>
      </trkpt>
      <trkpt lat="44.36117" lon="4.4865">
        <ele>308.7</ele>
        <time>2024-03-02T09:30:40Z</time>
      </trkpt>
      <trkpt lat="44.3611" lon="4.48624">
        <ele>308.6</ele>
        <time>2024-03-02T09:30:46Z</time>
      </trkpt>
      <trkpt lat="44.36104" lon="4.48596">
        <ele>308.1</ele>
        <time>2024-03-02T09:30:52Z</time>
      </trkpt>
      <trkpt lat="44.36093" lon="4.4857">
        <ele>307.1</ele>
        <time>2024-03-02T09:30:58Z</time>
      </trkpt>
      <trkpt lat="44.36077" lon="4.48556">
        <ele>305.9</ele>
        <time>2024-03-02T09:31:03Z</time>
      </trkpt>
      <trkpt lat="44.36073" lon="4.48532">
        <ele>305.5</ele>
        <time>2024-03-02T09:31:09Z</time>
      </trkpt>
      <trkpt lat="44.3608" lon="4.48508">
        <ele>306.5</ele>
        <time>2024-03-02T09:31:17Z</time>
      </trkpt>
      <trkpt lat="44.36075" lon="4.48481">
        <ele>308.3</ele>
        <time>2024-03-02T09:31:25Z</time>
      </trkpt>
      <trkpt lat="44.36069" lon="4.48455">
        <ele>309.5</ele>
        <time>2024-03-02T09:31:32Z</time>
      </trkpt>
      <trkpt lat="44.36064" lon="4.48427">
        <ele>310.2</ele>
        <time>2024-03-02T09:31:39Z</time>
      </trkpt>
      <trkpt lat="44.3606" lon="4.48399">
        <ele>310.5</ele>
        <time>2024-03-02T09:31:46Z</time>
      </trkpt>
      <trkpt lat="44.36055" lon="4.48374">
        <ele>310.7</ele>
        <time>2024-03-02T09:31:52Z</time>
      </trkpt>
      <trkpt lat="44.36051" lon="4.48346">
        <ele>311.1</ele>
        <time>2024-03-02T09:31:59Z</time>
      </trkpt>
      <trkpt lat="44.36048" lon="4.48321">
        <ele>311.6</ele>
        <time>2024-03-02T09:32:05Z</time>
      </trkpt>
      <trkpt lat="44.36042" lon="4.48296">
        <ele>312.3</ele>
        <time>2024-03-02T09:32:12Z</time>
      </trkpt>
      <trkpt lat="44.36037" lon="4.48268">
        <ele>313</ele>
        <time>2024-03-02T09:32:19Z</time>
      </trkpt>
      <trkpt lat="44.36031" lon="4.48241">
        <ele>313.3</ele>
        <time>2024-03-02T09:32:25Z</time>
      </trkpt>
      <trkpt lat="44.36027" lon="4.48212">
        <ele>313.7</ele>
        <time>2024-03-02T09:32:32Z</time>
      </trkpt>
      <trkpt lat="44.36022" lon="4.48187">
        <ele>313.8</ele>
        <time>2024-03-02T09:32:38Z</time>
      </trkpt>
      <trkpt lat="44.36016" lon="4.48162">
        <ele>313.9</ele>
        <time>2024-03-02T09:32:44Z</time>
      </trkpt>
      <trkpt lat="44.3601" lon="4.48137">
        <ele>314.1</ele>
        <time>2024-03-02T09:32:50Z</time>
      </trkpt>
      <trkpt lat="44.36005" lon="4.48109">
        <ele>314.2</ele>
        <time>2024-03-02T09:32:56Z</time>
      </trkpt>
      <trkpt lat="44.36001" lon="4.48083">
        <ele>313.7</ele>
        <time>2024-03-02T09:33:02Z</time>
      </trkpt>
      <trkpt lat="44.35991" lon="4.4806">
        <ele>313.1</ele>
        <time>2024-03-02T09:33:07Z</time>
      </trkpt>
      <trkpt lat="44.35984" lon="4.48033">
        <ele>312.7</ele>
        <time>2024-03-02T09:33:13Z</time>
      </trkpt>
      <trkpt lat="44.3598" lon="4.48006">
        <ele>313.1</ele>
        <time>2024-03-02T09:33:19Z</time>
      </trkpt>
      <trkpt lat="44.35979" lon="4.47979">
        <ele>314</ele>
        <time>2024-03-02T09:33:25Z</time>
      </trkpt>
      <trkpt lat="44.35975" lon="4.47953">
        <ele>314.7</ele>
        <time>2024-03-02T09:33:31Z</time>
      </trkpt>
      <trkpt lat="44.35969" lon="4.47926">
        <ele>314.9</ele>
        <time>2024-03-02T09:33:38Z</time>
      </trkpt>
      <trkpt lat="44.35962" lon="4.47901">
        <ele>315.2</ele>
        <time>2024-03-02T09:33:44Z</time>
      </trkpt>
      <trkpt lat="44.35956" lon="4.47873">
        <ele>315.6</ele>
        <time>2024-03-02T09:33:50Z</time>
      </trkpt>
      <trkpt lat="44.35952" lon="4.47845">
        <ele>315.6</ele>
        <time>2024-03-02T09:33:57Z</time>
      </trkpt>
      <trkpt lat="44.35941" lon="4.47825">
        <ele>315.5</ele>
        <time>2024-03-02T09:34:03Z</time>
      </trkpt>
      <trkpt lat="44.35927" lon="4.47805">
        <ele>315.1</ele>
        <time>2024-03-02T09:34:09Z</time>
      </trkpt>
      <trkpt lat="44.35915" lon="4.47785">
        <ele>314.9</ele>
        <time>2024-03-02T09:34:15Z</time>
      </trkpt>
      <trkpt lat="44.35904" lon="4.47763">
        <ele>314.9</ele>
        <time>2024-03-02T09:34:21Z</time>
      </trkpt>
      <trkpt lat="44.35889" lon="4.47745">
        <ele>314.7</ele>
        <time>2024-03-02T09:34:27Z</time>
      </trkpt>
      <trkpt lat="44.35875" lon="4.47726">
        <ele>314.5</ele>
        <time>2024-03-02T09:34:33Z</time>
      </trkpt>
      <trkpt lat="44.35862" lon="4.47706">
        <ele>314.2</ele>
        <time>2024-03-02T09:34:39Z</time>
      </trkpt>
      <trkpt lat="44.35851" lon="4.47681">
        <ele>313.8</ele>
        <time>2024-03-02T09:34:46Z</time>
      </trkpt>
      <trkpt lat="44.35839" lon="4.47661">
        <ele>313.7</ele>
        <time>2024-03-02T09:34:52Z</time>
      </trkpt>
      <trkpt lat="44.35827" lon="4.4764">
        <ele>313.7</ele>
        <time>2024-03-02T09:34:58Z</time>
      </trkpt>
      <trkpt lat="44.35809" lon="4.47628">
        <ele>313.8</ele>
        <time>2024-03-02T09:35:05Z</time>
      </trkpt>
      <trkpt lat="44.35792" lon="4.47621">
        <ele>314.1</ele>
        <time>2024-03-02T09:35:13Z</time>
      </trkpt>
      <trkpt lat="44.3578" lon="4.47606">
        <ele>314.1</ele>
        <time>2024-03-02T09:35:19Z</time>
      </trkpt>
      <trkpt lat="44.35791" lon="4.47585">
        <ele>314</ele>
        <time>2024-03-02T09:35:25Z</time>
      </trkpt>
      <trkpt lat="44.35802" lon="4.47562">
        <ele>314.1</ele>
        <time>2024-03-02T09:35:32Z</time>
      </trkpt>
      <trkpt lat="44.35799" lon="4.47557">
        <ele>314.1</ele>
        <time>2024-03-02T09:35:34Z</time>
      </trkpt>
      <trkpt lat="44.35787" lon="4.47537">
        <ele>314.1</ele>
        <time>2024-03-02T09:35:41Z</time>
      </trkpt>
      <trkpt lat="44.35775" lon="4.47515">
        <ele>314.3</ele>
        <time>2024-03-02T09:35:47Z</time>
      </trkpt>
      <trkpt lat="44.35761" lon="4.47494">
        <ele>314.3</ele>
        <time>2024-03-02T09:35:53Z</time>
      </trkpt>
      <trkpt lat="44.35746" lon="4.47474">
        <ele>314.2</ele>
        <time>2024-03-02T09:36:00Z</time>
      </trkpt>
      <trkpt lat="44.35733" lon="4.47453">
        <ele>314.2</ele>
        <time>2024-03-02T09:36:07Z</time>
      </trkpt>
      <trkpt lat="44.35722" lon="4.47429">
        <ele>314.3</ele>
        <time>2024-03-02T09:36:14Z</time>
      </trkpt>
      <trkpt lat="44.35713" lon="4.47406">
        <ele>314.1</ele>
        <time>2024-03-02T09:36:21Z</time>
      </trkpt>
      <trkpt lat="44.35704" lon="4.47382">
        <ele>313.9</ele>
        <time>2024-03-02T09:36:27Z</time>
      </trkpt>
      <trkpt lat="44.35692" lon="4.47358">
        <ele>314</ele>
        <time>2024-03-02T09:36:33Z</time>
      </trkpt>
      <trkpt lat="44.35684" lon="4.47335">
        <ele>313.9</ele>
        <time>2024-03-02T09:36:39Z</time>
      </trkpt>
      <trkpt lat="44.35678" lon="4.47311">
        <ele>313.7</ele>
        <time>2024-03-02T09:36:45Z</time>
      </trkpt>
      <trkpt lat="44.35668" lon="4.47284">
        <ele>313.2</ele>
        <time>2024-03-02T09:36:51Z</time>
      </trkpt>
      <trkpt lat="44.3566" lon="4.47259">
        <ele>312.5</ele>
        <time>2024-03-02T09:36:57Z</time>
      </trkpt>
      <trkpt lat="44.35644" lon="4.47242">
        <ele>311.7</ele>
        <time>2024-03-02T09:37:02Z</time>
      </trkpt>
      <trkpt lat="44.35625" lon="4.47231">
        <ele>309.8</ele>
        <time>2024-03-02T09:37:08Z</time>
      </trkpt>
      <trkpt lat="44.35607" lon="4.47222">
        <ele>307.9</ele>
        <time>2024-03-02T09:37:13Z</time>
      </trkpt>
      <trkpt lat="44.35592" lon="4.47215">
        <ele>306.2</ele>
        <time>2024-03-02T09:37:18Z</time>
      </trkpt>
      <trkpt lat="44.35597" lon="4.4719">
        <ele>304</ele>
        <time>2024-03-02T09:37:23Z</time>
      </trkpt>
      <trkpt lat="44.3561" lon="4.4717">
        <ele>301</ele>
        <time>2024-03-02T09:37:29Z</time>
      </trkpt>
      <trkpt lat="44.35623" lon="4.47149">
        <ele>297.4</ele>
        <time>2024-03-02T09:37:36Z</time>
      </trkpt>
      <trkpt lat="44.35638" lon="4.47131">
        <ele>294.4</ele>
        <time>2024-03-02T09:37:42Z</time>
      </trkpt>
      <trkpt lat="44.35651" lon="4.47111">
        <ele>292.6</ele>
        <time>2024-03-02T09:37:47Z</time>
      </trkpt>
      <trkpt lat="44.35663" lon="4.47092">
        <ele>291</ele>
        <time>2024-03-02T09:37:52Z</time>
      </trkpt>
      <trkpt lat="44.35678" lon="4.4707">
        <ele>289.1</ele>
        <time>2024-03-02T09:37:58Z</time>
      </trkpt>
      <trkpt lat="44.35681" lon="4.4706">
        <ele>287.9</ele>
        <time>2024-03-02T09:38:01Z</time>
      </trkpt>
      <trkpt lat="44.35676" lon="4.47055">
        <ele>286.8</ele>
        <time>2024-03-02T09:38:04Z</time>
      </trkpt>
      <trkpt lat="44.35658" lon="4.47063">
        <ele>283.7</ele>
        <time>2024-03-02T09:38:11Z</time>
      </trkpt>
      <trkpt lat="44.35647" lon="4.47073">
        <ele>282.3</ele>
        <time>2024-03-02T09:38:18Z</time>
      </trkpt>
      <trkpt lat="44.35634" lon="4.47053">
        <ele>280.8</ele>
        <time>2024-03-02T09:38:26Z</time>
      </trkpt>
      <trkpt lat="44.35622" lon="4.47029">
        <ele>279.3</ele>
        <time>2024-03-02T09:38:30Z</time>
      </trkpt>
      <trkpt lat="44.35613" lon="4.47003">
        <ele>277.4</ele>
        <time>2024-03-02T09:38:35Z</time>
      </trkpt>
      <trkpt lat="44.35599" lon="4.46985">
        <ele>275.6</ele>
        <time>2024-03-02T09:38:41Z</time>
      </trkpt>
      <trkpt lat="44.3558" lon="4.46969">
        <ele>273.6</ele>
        <time>2024-03-02T09:38:48Z</time>
      </trkpt>
      <trkpt lat="44.35578" lon="4.46964">
        <ele>273.2</ele>
        <time>2024-03-02T09:38:49Z</time>
      </trkpt>
      <trkpt lat="44.35571" lon="4.46938">
        <ele>270.7</ele>
        <time>2024-03-02T09:38:54Z</time>
      </trkpt>
      <trkpt lat="44.35566" lon="4.46926">
        <ele>271.1</ele>
        <time>2024-03-02T09:38:59Z</time>
      </trkpt>
      <trkpt lat="44.35565" lon="4.46922">
        <ele>271.2</ele>
        <time>2024-03-02T09:39:24Z</time>
      </trkpt>
      <trkpt lat="44.35555" lon="4.46899">
        <ele>272</ele>
        <time>2024-03-02T09:39:32Z</time>
      </trkpt>
      <trkpt lat="44.35548" lon="4.46874">
        <ele>268.3</ele>
        <time>2024-03-02T09:39:39Z</time>
      </trkpt>
      <trkpt lat="44.35543" lon="4.46848">
        <ele>265.7</ele>
        <time>2024-03-02T09:39:45Z</time>
      </trkpt>
      <trkpt lat="44.35539" lon="4.4682">
        <ele>264.4</ele>
        <time>2024-03-02T09:39:51Z</time>
      </trkpt>
      <trkpt lat="44.35532" lon="4.46796">
        <ele>263.1</ele>
        <time>2024-03-02T09:39:56Z</time>
      </trkpt>
      <trkpt lat="44.3552" lon="4.46773">
        <ele>261.8</ele>
        <time>2024-03-02T09:40:02Z</time>
      </trkpt>
      <trkpt lat="44.35511" lon="4.4675">
        <ele>260.8</ele>
        <time>2024-03-02T09:40:08Z</time>
      </trkpt>
      <trkpt lat="44.35506" lon="4.46721">
        <ele>259.3</ele>
        <time>2024-03-02T09:40:16Z</time>
      </trkpt>
      <trkpt lat="44.35499" lon="4.46696">
        <ele>257</ele>
        <time>2024-03-02T09:40:21Z</time>
      </trkpt>
      <trkpt lat="44.35493" lon="4.4667">
        <ele>255</ele>
        <time>2024-03-02T09:40:26Z</time>
      </trkpt>
      <trkpt lat="44.35484" lon="4.46649">
        <ele>252.8</ele>
        <time>2024-03-02T09:40:30Z</time>
      </trkpt>
      <trkpt lat="44.35474" lon="4.46625">
        <ele>250.3</ele>
        <time>2024-03-02T09:40:35Z</time>
      </trkpt>
      <trkpt lat="44.35463" lon="4.46604">
        <ele>247.8</ele>
        <time>2024-03-02T09:40:40Z</time>
      </trkpt>
      <trkpt lat="44.35455" lon="4.46576">
        <ele>244.3</ele>
        <time>2024-03-02T09:40:45Z</time>
      </trkpt>
      <trkpt lat="44.35444" lon="4.46546">
        <ele>239.7</ele>
        <time>2024-03-02T09:40:50Z</time>
      </trkpt>
      <trkpt lat="44.35436" lon="4.46521">
        <ele>236.7</ele>
        <time>2024-03-02T09:40:54Z</time>
      </trkpt>
      <trkpt lat="44.35429" lon="4.46497">
        <ele>234.8</ele>
        <time>2024-03-02T09:41:00Z</time>
      </trkpt>
      <trkpt lat="44.35417" lon="4.46471">
        <ele>232.2</ele>
        <time>2024-03-02T09:41:05Z</time>
      </trkpt>
      <trkpt lat="44.35403" lon="4.4645">
        <ele>230.9</ele>
        <time>2024-03-02T09:41:10Z</time>
      </trkpt>
      <trkpt lat="44.35393" lon="4.46428">
        <ele>229.7</ele>
        <time>2024-03-02T09:41:15Z</time>
      </trkpt>
      <trkpt lat="44.35382" lon="4.46409">
        <ele>227.2</ele>
        <time>2024-03-02T09:41:21Z</time>
      </trkpt>
      <trkpt lat="44.35368" lon="4.46392">
        <ele>224.4</ele>
        <time>2024-03-02T09:41:26Z</time>
      </trkpt>
      <trkpt lat="44.35352" lon="4.46372">
        <ele>221.7</ele>
        <time>2024-03-02T09:41:32Z</time>
      </trkpt>
      <trkpt lat="44.35339" lon="4.46353">
        <ele>220.3</ele>
        <time>2024-03-02T09:41:38Z</time>
      </trkpt>
      <trkpt lat="44.35327" lon="4.46331">
        <ele>217</ele>
        <time>2024-03-02T09:41:43Z</time>
      </trkpt>
      <trkpt lat="44.35317" lon="4.46307">
        <ele>212.9</ele>
        <time>2024-03-02T09:41:48Z</time>
      </trkpt>
      <trkpt lat="44.35302" lon="4.46289">
        <ele>209.1</ele>
        <time>2024-03-02T09:41:53Z</time>
      </trkpt>
      <trkpt lat="44.35287" lon="4.46269">
        <ele>204.6</ele>
        <time>2024-03-02T09:41:59Z</time>
      </trkpt>
      <trkpt lat="44.35283" lon="4.46243">
        <ele>200.2</ele>
        <time>2024-03-02T09:42:04Z</time>
      </trkpt>
      <trkpt lat="44.35288" lon="4.46218">
        <ele>197.4</ele>
        <time>2024-03-02T09:42:10Z</time>
      </trkpt>
      <trkpt lat="44.35288" lon="4.46211">
        <ele>196.8</ele>
        <time>2024-03-02T09:42:15Z</time>
      </trkpt>
      <trkpt lat="44.35304" lon="4.46221">
        <ele>193</ele>
        <time>2024-03-02T09:42:33Z</time>
      </trkpt>
      <trkpt lat="44.35321" lon="4.4623">
        <ele>189.8</ele>
        <time>2024-03-02T09:42:40Z</time>
      </trkpt>
      <trkpt lat="44.35322" lon="4.46226">
        <ele>189.4</ele>
        <time>2024-03-02T09:42:41Z</time>
      </trkpt>
      <trkpt lat="44.35319" lon="4.462">
        <ele>186.3</ele>
        <time>2024-03-02T09:42:50Z</time>
      </trkpt>
      <trkpt lat="44.35312" lon="4.46176">
        <ele>183.1</ele>
        <time>2024-03-02T09:42:57Z</time>
      </trkpt>
      <trkpt lat="44.35302" lon="4.46152">
        <ele>179</ele>
        <time>2024-03-02T09:43:05Z</time>
      </trkpt>
      <trkpt lat="44.35299" lon="4.46145">
        <ele>177.6</ele>
        <time>2024-03-02T09:43:08Z</time>
      </trkpt>
      <trkpt lat="44.353" lon="4.46142">
        <ele>176.7</ele>
        <time>2024-03-02T09:43:10Z</time>
      </trkpt>
      <trkpt lat="44.35312" lon="4.46135">
        <ele>167.2</ele>
        <time>2024-03-02T09:43:17Z</time>
      </trkpt>
      <trkpt lat="44.35294" lon="4.46125">
        <ele>163.6</ele>
        <time>2024-03-02T09:43:26Z</time>
      </trkpt>
      <trkpt lat="44.35275" lon="4.46127">
        <ele>160.2</ele>
        <time>2024-03-02T09:43:34Z</time>
      </trkpt>
      <trkpt lat="44.35257" lon="4.46137">
        <ele>156.1</ele>
        <time>2024-03-02T09:43:43Z</time>
      </trkpt>
      <trkpt lat="44.35254" lon="4.4614">
        <ele>155.1</ele>
        <time>2024-03-02T09:43:45Z</time>
      </trkpt>
      <trkpt lat="44.35242" lon="4.46161">
        <ele>150.5</ele>
        <time>2024-03-02T09:43:53Z</time>
      </trkpt>
      <trkpt lat="44.35228" lon="4.4618">
        <ele>146.3</ele>
        <time>2024-03-02T09:44:02Z</time>
      </trkpt>
      <trkpt lat="44.35213" lon="4.462">
        <ele>141.8</ele>
        <time>2024-03-02T09:44:09Z</time>
      </trkpt>
      <trkpt lat="44.35195" lon="4.46212">
        <ele>138.8</ele>
        <time>2024-03-02T09:44:16Z</time>
      </trkpt>
      <trkpt lat="44.35174" lon="4.46215">
        <ele>137.5</ele>
        <time>2024-03-02T09:44:23Z</time>
      </trkpt>
      <trkpt lat="44.35155" lon="4.46213">
        <ele>136.3</ele>
        <time>2024-03-02T09:44:30Z</time>
      </trkpt>
      <trkpt lat="44.35139" lon="4.46205">
        <ele>133.9</ele>
        <time>2024-03-02T09:44:36Z</time>
      </trkpt>
      <trkpt lat="44.35132" lon="4.46189">
        <ele>131.1</ele>
        <time>2024-03-02T09:44:41Z</time>
      </trkpt>
      <trkpt lat="44.35128" lon="4.46186">
        <ele>130.1</ele>
        <time>2024-03-02T09:44:43Z</time>
      </trkpt>
      <trkpt lat="44.35115" lon="4.46205">
        <ele>126.8</ele>
        <time>2024-03-02T09:44:49Z</time>
      </trkpt>
      <trkpt lat="44.35104" lon="4.46225">
        <ele>124.9</ele>
        <time>2024-03-02T09:44:55Z</time>
      </trkpt>
      <trkpt lat="44.351" lon="4.4623">
        <ele>124.4</ele>
        <time>2024-03-02T09:44:56Z</time>
      </trkpt>
      <trkpt lat="44.35087" lon="4.46249">
        <ele>122.6</ele>
        <time>2024-03-02T09:45:03Z</time>
      </trkpt>
      <trkpt lat="44.35084" lon="4.46256">
        <ele>122</ele>
        <time>2024-03-02T09:45:06Z</time>
      </trkpt>
      <trkpt lat="44.35074" lon="4.46277">
        <ele>120.7</ele>
        <time>2024-03-02T09:45:15Z</time>
      </trkpt>
      <trkpt lat="44.35056" lon="4.46284">
        <ele>120.5</ele>
        <time>2024-03-02T09:45:23Z</time>
      </trkpt>
      <trkpt lat="44.35055" lon="4.46286">
        <ele>120.5</ele>
        <time>2024-03-02T09:45:24Z</time>
      </trkpt>
      <trkpt lat="44.35038" lon="4.46303">
        <ele>120.9</ele>
        <time>2024-03-02T09:45:32Z</time>
      </trkpt>
      <trkpt lat="44.35021" lon="4.46316">
        <ele>121.3</ele>
        <time>2024-03-02T09:45:41Z</time>
      </trkpt>
      <trkpt lat="44.35003" lon="4.46326">
        <ele>121.3</ele>
        <time>2024-03-02T09:45:49Z</time>
      </trkpt>
      <trkpt lat="44.34985" lon="4.46336">
        <ele>120.8</ele>
        <time>2024-03-02T09:45:56Z</time>
      </trkpt>
      <trkpt lat="44.34966" lon="4.46344">
        <ele>120</ele>
        <time>2024-03-02T09:46:03Z</time>
      </trkpt>
      <trkpt lat="44.34946" lon="4.46342">
        <ele>118.4</ele>
        <time>2024-03-02T09:46:09Z</time>
      </trkpt>
      <trkpt lat="44.34931" lon="4.46357">
        <ele>116.1</ele>
        <time>2024-03-02T09:46:17Z</time>
      </trkpt>
      <trkpt lat="44.34919" lon="4.4636">
        <ele>115.2</ele>
        <time>2024-03-02T09:46:22Z</time>
      </trkpt>
      <trkpt lat="44.34904" lon="4.46376">
        <ele>115.5</ele>
        <time>2024-03-02T09:46:30Z</time>
      </trkpt>
      <trkpt lat="44.34888" lon="4.46393">
        <ele>116.6</ele>
        <time>2024-03-02T09:46:42Z</time>
      </trkpt>
      <trkpt lat="44.34881" lon="4.46401">
        <ele>117.4</ele>
        <time>2024-03-02T09:46:47Z</time>
      </trkpt>
      <trkpt lat="44.34865" lon="4.46404">
        <ele>119.6</ele>
        <time>2024-03-02T09:46:57Z</time>
      </trkpt>
      <trkpt lat="44.34847" lon="4.46405">
        <ele>121.4</ele>
        <time>2024-03-02T09:47:04Z</time>
      </trkpt>
      <trkpt lat="44.34826" lon="4.46402">
        <ele>121.4</ele>
        <time>2024-03-02T09:47:11Z</time>
      </trkpt>
      <trkpt lat="44.3482" lon="4.46403">
        <ele>121</ele>
        <time>2024-03-02T09:47:13Z</time>
      </trkpt>
      <trkpt lat="44.34801" lon="4.46408">
        <ele>118.5</ele>
        <time>2024-03-02T09:47:20Z</time>
      </trkpt>
      <trkpt lat="44.34781" lon="4.46413">
        <ele>116.5</ele>
        <time>2024-03-02T09:47:29Z</time>
      </trkpt>
      <trkpt lat="44.34762" lon="4.46421">
        <ele>115.2</ele>
        <time>2024-03-02T09:47:35Z</time>
      </trkpt>
      <trkpt lat="44.34744" lon="4.46424">
        <ele>113.4</ele>
        <time>2024-03-02T09:47:40Z</time>
      </trkpt>
      <trkpt lat="44.34727" lon="4.46437">
        <ele>112</ele>
        <time>2024-03-02T09:47:47Z</time>
      </trkpt>
      <trkpt lat="44.3471" lon="4.46454">
        <ele>110.7</ele>
        <time>2024-03-02T09:47:54Z</time>
      </trkpt>
      <trkpt lat="44.34696" lon="4.46476">
        <ele>108.5</ele>
        <time>2024-03-02T09:48:00Z</time>
      </trkpt>
      <trkpt lat="44.34687" lon="4.46487">
        <ele>106.9</ele>
        <time>2024-03-02T09:48:05Z</time>
      </trkpt>
      <trkpt lat="44.34668" lon="4.46486">
        <ele>105.3</ele>
        <time>2024-03-02T09:48:11Z</time>
      </trkpt>
      <trkpt lat="44.3465" lon="4.46482">
        <ele>103.4</ele>
        <time>2024-03-02T09:48:18Z</time>
      </trkpt>
      <trkpt lat="44.34634" lon="4.46494">
        <ele>102.4</ele>
        <time>2024-03-02T09:48:25Z</time>
      </trkpt>
      <trkpt lat="44.34622" lon="4.465">
        <ele>102</ele>
        <time>2024-03-02T09:48:31Z</time>
      </trkpt>
      <trkpt lat="44.34605" lon="4.46506">
        <ele>101.3</ele>
        <time>2024-03-02T09:48:39Z</time>
      </trkpt>
      <trkpt lat="44.34585" lon="4.46519">
        <ele>100.4</ele>
        <time>2024-03-02T09:48:45Z</time>
      </trkpt>
      <trkpt lat="44.34576" lon="4.46525">
        <ele>100</ele>
        <time>2024-03-02T09:48:49Z</time>
      </trkpt>
      <trkpt lat="44.34556" lon="4.46521">
        <ele>99.2</ele>
        <time>2024-03-02T09:48:55Z</time>
      </trkpt>
      <trkpt lat="44.34537" lon="4.46524">
        <ele>97.5</ele>
        <time>2024-03-02T09:49:01Z</time>
      </trkpt>
      <trkpt lat="44.34517" lon="4.46534">
        <ele>95.6</ele>
        <time>2024-03-02T09:49:08Z</time>
      </trkpt>
      <trkpt lat="44.345" lon="4.46545">
        <ele>94</ele>
        <time>2024-03-02T09:49:14Z</time>
      </trkpt>
      <trkpt lat="44.34482" lon="4.46548">
        <ele>92.3</ele>
        <time>2024-03-02T09:49:19Z</time>
      </trkpt>
      <trkpt lat="44.34463" lon="4.4655">
        <ele>91.6</ele>
        <time>2024-03-02T09:49:25Z</time>
      </trkpt>
      <trkpt lat="44.34445" lon="4.46554">
        <ele>91.4</ele>
        <time>2024-03-02T09:49:31Z</time>
      </trkpt>
      <trkpt lat="44.34427" lon="4.46558">
        <ele>92.4</ele>
        <time>2024-03-02T09:49:38Z</time>
      </trkpt>
      <trkpt lat="44.3441" lon="4.46566">
        <ele>93.4</ele>
        <time>2024-03-02T09:49:46Z</time>
      </trkpt>
      <trkpt lat="44.3439" lon="4.46566">
        <ele>94.3</ele>
        <time>2024-03-02T09:49:52Z</time>
      </trkpt>
      <trkpt lat="44.34369" lon="4.46563">
        <ele>93.7</ele>
        <time>2024-03-02T09:49:59Z</time>
      </trkpt>
      <trkpt lat="44.34348" lon="4.46562">
        <ele>90.4</ele>
        <time>2024-03-02T09:50:05Z</time>
      </trkpt>
      <trkpt lat="44.34328" lon="4.46564">
        <ele>87.7</ele>
        <time>2024-03-02T09:50:11Z</time>
      </trkpt>
      <trkpt lat="44.34308" lon="4.46559">
        <ele>85.4</ele>
        <time>2024-03-02T09:50:16Z</time>
      </trkpt>
      <trkpt lat="44.34289" lon="4.46551">
        <ele>81.7</ele>
        <time>2024-03-02T09:50:22Z</time>
      </trkpt>
      <trkpt lat="44.34271" lon="4.46546">
        <ele>78.2</ele>
        <time>2024-03-02T09:50:27Z</time>
      </trkpt>
      <trkpt lat="44.34252" lon="4.46545">
        <ele>75.3</ele>
        <time>2024-03-02T09:50:38Z</time>
      </trkpt>
      <trkpt lat="44.34232" lon="4.46541">
        <ele>71.2</ele>
        <time>2024-03-02T09:50:45Z</time>
      </trkpt>
      <trkpt lat="44.34215" lon="4.46537">
        <ele>68.6</ele>
        <time>2024-03-02T09:50:51Z</time>
      </trkpt>
      <trkpt lat="44.34196" lon="4.46537">
        <ele>68.6</ele>
        <time>2024-03-02T09:50:57Z</time>
      </trkpt>
      <trkpt lat="44.34178" lon="4.46543">
        <ele>68.6</ele>
        <time>2024-03-02T09:51:05Z</time>
      </trkpt>
      <trkpt lat="44.34163" lon="4.46557">
        <ele>68.8</ele>
        <time>2024-03-02T09:51:15Z</time>
      </trkpt>
      <trkpt lat="44.3415" lon="4.46579">
        <ele>70.1</ele>
        <time>2024-03-02T09:51:26Z</time>
      </trkpt>
      <trkpt lat="44.34143" lon="4.46584">
        <ele>70.7</ele>
        <time>2024-03-02T09:51:29Z</time>
      </trkpt>
      <trkpt lat="44.34126" lon="4.46594">
        <ele>71.5</ele>
        <time>2024-03-02T09:51:38Z</time>
      </trkpt>
      <trkpt lat="44.34116" lon="4.4662">
        <ele>71.6</ele>
        <time>2024-03-02T09:51:48Z</time>
      </trkpt>
      <trkpt lat="44.34101" lon="4.46635">
        <ele>70.4</ele>
        <time>2024-03-02T09:51:54Z</time>
      </trkpt>
      <trkpt lat="44.34101" lon="4.4664">
        <ele>70</ele>
        <time>2024-03-02T09:51:55Z</time>
      </trkpt>
      <trkpt lat="44.34104" lon="4.46666">
        <ele>69.6</ele>
        <time>2024-03-02T09:52:00Z</time>
      </trkpt>
      <trkpt lat="44.34113" lon="4.46689">
        <ele>70.9</ele>
        <time>2024-03-02T09:52:07Z</time>
      </trkpt>
      <trkpt lat="44.34112" lon="4.46716">
        <ele>71.1</ele>
        <time>2024-03-02T09:52:14Z</time>
      </trkpt>
      <trkpt lat="44.3411" lon="4.46745">
        <ele>70.2</ele>
        <time>2024-03-02T09:52:20Z</time>
      </trkpt>
      <trkpt lat="44.34117" lon="4.4677">
        <ele>70</ele>
        <time>2024-03-02T09:52:26Z</time>
      </trkpt>
      <trkpt lat="44.34117" lon="4.46783">
        <ele>69.9</ele>
        <time>2024-03-02T09:52:36Z</time>
      </trkpt>
      <trkpt lat="44.34116" lon="4.46783">
        <ele>69.9</ele>
        <time>2024-03-02T09:52:40Z</time>
      </trkpt>
      <trkpt lat="44.34102" lon="4.46756">
        <ele>70.1</ele>
        <time>2024-03-02T09:53:15Z</time>
      </trkpt>
      <trkpt lat="44.34102" lon="4.4673">
        <ele>70.5</ele>
        <time>2024-03-02T09:53:23Z</time>
      </trkpt>
      <trkpt lat="44.34108" lon="4.46706">
        <ele>71.3</ele>
        <time>2024-03-02T09:53:34Z</time>
      </trkpt>
      <trkpt lat="44.34112" lon="4.46704">
        <ele>71.5</ele>
        <time>2024-03-02T09:53:38Z</time>
      </trkpt>
      <trkpt lat="44.34114" lon="4.46706">
        <ele>71.6</ele>
        <time>2024-03-02T09:53:41Z</time>
      </trkpt>
      <trkpt lat="44.34117" lon="4.46706">
        <ele>71.8</ele>
        <time>2024-03-02T09:53:45Z</time>
      </trkpt>
      <trkpt lat="44.34133" lon="4.46719">
        <ele>75</ele>
        <time>2024-03-02T09:53:59Z</time>
      </trkpt>
      <trkpt lat="44.34136" lon="4.46723">
        <ele>75.7</ele>
        <time>2024-03-02T09:54:05Z</time>
      </trkpt>
      <trkpt lat="44.34149" lon="4.4674">
        <ele>80.3</ele>
        <time>2024-03-02T09:54:23Z</time>
      </trkpt>
      <trkpt lat="44.34152" lon="4.46746">
        <ele>80.9</ele>
        <time>2024-03-02T09:54:29Z</time>
      </trkpt>
      <trkpt lat="44.34168" lon="4.46759">
        <ele>86.7</ele>
        <time>2024-03-02T09:54:43Z</time>
      </trkpt>
      <trkpt lat="44.34184" lon="4.46765">
        <ele>93.4</ele>
        <time>2024-03-02T09:55:00Z</time>
      </trkpt>
      <trkpt lat="44.34186" lon="4.46763">
        <ele>94.5</ele>
        <time>2024-03-02T09:55:06Z</time>
      </trkpt>
      <trkpt lat="44.34184" lon="4.46763">
        <ele>94.7</ele>
        <time>2024-03-02T09:55:09Z</time>
      </trkpt>
      <trkpt lat="44.34186" lon="4.46765">
        <ele>94.9</ele>
        <time>2024-03-02T09:55:12Z</time>
      </trkpt>
      <trkpt lat="44.34195" lon="4.46787">
        <ele>97</ele>
        <time>2024-03-02T09:55:22Z</time>
      </trkpt>
      <trkpt lat="44.34206" lon="4.4681">
        <ele>98.2</ele>
        <time>2024-03-02T09:55:29Z</time>
      </trkpt>
      <trkpt lat="44.34219" lon="4.4683">
        <ele>99.9</ele>
        <time>2024-03-02T09:55:36Z</time>
      </trkpt>
      <trkpt lat="44.34231" lon="4.46848">
        <ele>102.4</ele>
        <time>2024-03-02T09:55:44Z</time>
      </trkpt>
      <trkpt lat="44.34244" lon="4.46867">
        <ele>105.7</ele>
        <time>2024-03-02T09:55:58Z</time>
      </trkpt>
      <trkpt lat="44.34257" lon="4.46887">
        <ele>109.5</ele>
        <time>2024-03-02T09:56:11Z</time>
      </trkpt>
      <trkpt lat="44.34265" lon="4.4691">
        <ele>113.2</ele>
        <time>2024-03-02T09:56:26Z</time>
      </trkpt>
      <trkpt lat="44.34279" lon="4.46929">
        <ele>117</ele>
        <time>2024-03-02T09:56:38Z</time>
      </trkpt>
      <trkpt lat="44.34288" lon="4.46943">
        <ele>120</ele>
        <time>2024-03-02T09:56:48Z</time>
      </trkpt>
      <trkpt lat="44.3429" lon="4.4694">
        <ele>120.6</ele>
        <time>2024-03-02T09:56:51Z</time>
      </trkpt>
      <trkpt lat="44.34288" lon="4.46913">
        <ele>124.7</ele>
        <time>2024-03-02T09:57:08Z</time>
      </trkpt>
      <trkpt lat="44.34293" lon="4.46888">
        <ele>128.5</ele>
        <time>2024-03-02T09:57:22Z</time>
      </trkpt>
      <trkpt lat="44.34294" lon="4.46862">
        <ele>132.5</ele>
        <time>2024-03-02T09:57:36Z</time>
      </trkpt>
      <trkpt lat="44.34299" lon="4.4684">
        <ele>136.8</ele>
        <time>2024-03-02T09:57:49Z</time>
      </trkpt>
      <trkpt lat="44.34306" lon="4.46841">
        <ele>138.5</ele>
        <time>2024-03-02T09:57:57Z</time>
      </trkpt>
      <trkpt lat="44.34306" lon="4.46845">
        <ele>139.2</ele>
        <time>2024-03-02T09:57:59Z</time>
      </trkpt>
      <trkpt lat="44.34309" lon="4.4687">
        <ele>141.9</ele>
        <time>2024-03-02T09:58:12Z</time>
      </trkpt>
      <trkpt lat="44.34315" lon="4.46894">
        <ele>145</ele>
        <time>2024-03-02T09:58:24Z</time>
      </trkpt>
      <trkpt lat="44.34319" lon="4.469">
        <ele>146.4</ele>
        <time>2024-03-02T09:58:29Z</time>
      </trkpt>
      <trkpt lat="44.34322" lon="4.46908">
        <ele>147.9</ele>
        <time>2024-03-02T09:58:33Z</time>
      </trkpt>
      <trkpt lat="44.34319" lon="4.46933">
        <ele>151.9</ele>
        <time>2024-03-02T09:58:41Z</time>
      </trkpt>
      <trkpt lat="44.3433" lon="4.46957">
        <ele>154</ele>
        <time>2024-03-02T09:58:48Z</time>
      </trkpt>
      <trkpt lat="44.34344" lon="4.46976">
        <ele>155.3</ele>
        <time>2024-03-02T09:58:55Z</time>
      </trkpt>
      <trkpt lat="44.34359" lon="4.46995">
        <ele>158.1</ele>
        <time>2024-03-02T09:59:03Z</time>
      </trkpt>
      <trkpt lat="44.34366" lon="4.4702">
        <ele>161.6</ele>
        <time>2024-03-02T09:59:13Z</time>
      </trkpt>
      <trkpt lat="44.34371" lon="4.47046">
        <ele>164.8</ele>
        <time>2024-03-02T09:59:24Z</time>
      </trkpt>
      <trkpt lat="44.34383" lon="4.47066">
        <ele>167.7</ele>
        <time>2024-03-02T09:59:35Z</time>
      </trkpt>
      <trkpt lat="44.34398" lon="4.47078">
        <ele>170.7</ele>
        <time>2024-03-02T09:59:47Z</time>
      </trkpt>
      <trkpt lat="44.34412" lon="4.47094">
        <ele>173.8</ele>
        <time>2024-03-02T09:59:59Z</time>
      </trkpt>
      <trkpt lat="44.34426" lon="4.47113">
        <ele>177.3</ele>
        <time>2024-03-02T10:00:08Z</time>
      </trkpt>
      <trkpt lat="44.34438" lon="4.47136">
        <ele>179.9</ele>
        <time>2024-03-02T10:00:18Z</time>
      </trkpt>
      <trkpt lat="44.3445" lon="4.47158">
        <ele>181.5</ele>
        <time>2024-03-02T10:00:26Z</time>
      </trkpt>
      <trkpt lat="44.34459" lon="4.4718">
        <ele>183.8</ele>
        <time>2024-03-02T10:00:33Z</time>
      </trkpt>
      <trkpt lat="44.34475" lon="4.47193">
        <ele>186.6</ele>
        <time>2024-03-02T10:00:42Z</time>
      </trkpt>
      <trkpt lat="44.34482" lon="4.47216">
        <ele>189.3</ele>
        <time>2024-03-02T10:00:53Z</time>
      </trkpt>
      <trkpt lat="44.34481" lon="4.47242">
        <ele>192.5</ele>
        <time>2024-03-02T10:01:01Z</time>
      </trkpt>
      <trkpt lat="44.34487" lon="4.47267">
        <ele>197.6</ele>
        <time>2024-03-02T10:01:11Z</time>
      </trkpt>
      <trkpt lat="44.34495" lon="4.47291">
        <ele>203.3</ele>
        <time>2024-03-02T10:01:20Z</time>
      </trkpt>
      <trkpt lat="44.34501" lon="4.47316">
        <ele>208.4</ele>
        <time>2024-03-02T10:01:31Z</time>
      </trkpt>
      <trkpt lat="44.34502" lon="4.47343">
        <ele>213</ele>
        <time>2024-03-02T10:01:41Z</time>
      </trkpt>
      <trkpt lat="44.34504" lon="4.47368">
        <ele>217.4</ele>
        <time>2024-03-02T10:01:52Z</time>
      </trkpt>
      <trkpt lat="44.34512" lon="4.47391">
        <ele>221.5</ele>
        <time>2024-03-02T10:02:06Z</time>
      </trkpt>
      <trkpt lat="44.34511" lon="4.47393">
        <ele>221.7</ele>
        <time>2024-03-02T10:02:07Z</time>
      </trkpt>
      <trkpt lat="44.34507" lon="4.474">
        <ele>223.1</ele>
        <time>2024-03-02T10:02:12Z</time>
      </trkpt>
      <trkpt lat="44.34498" lon="4.47416">
        <ele>230.7</ele>
        <time>2024-03-02T10:02:23Z</time>
      </trkpt>
      <trkpt lat="44.34512" lon="4.4743">
        <ele>234.3</ele>
        <time>2024-03-02T10:02:40Z</time>
      </trkpt>
      <trkpt lat="44.3453" lon="4.47437">
        <ele>238.2</ele>
        <time>2024-03-02T10:02:50Z</time>
      </trkpt>
      <trkpt lat="44.34547" lon="4.47447">
        <ele>242.8</ele>
        <time>2024-03-02T10:02:59Z</time>
      </trkpt>
      <trkpt lat="44.34561" lon="4.47462">
        <ele>247.5</ele>
        <time>2024-03-02T10:03:12Z</time>
      </trkpt>
      <trkpt lat="44.34578" lon="4.47471">
        <ele>251.8</ele>
        <time>2024-03-02T10:03:28Z</time>
      </trkpt>
      <trkpt lat="44.34596" lon="4.47474">
        <ele>255.8</ele>
        <time>2024-03-02T10:03:37Z</time>
      </trkpt>
      <trkpt lat="44.34614" lon="4.47485">
        <ele>259.1</ele>
        <time>2024-03-02T10:03:47Z</time>
      </trkpt>
      <trkpt lat="44.34631" lon="4.47496">
        <ele>262.4</ele>
        <time>2024-03-02T10:03:56Z</time>
      </trkpt>
      <trkpt lat="44.34649" lon="4.475">
        <ele>265.9</ele>
        <time>2024-03-02T10:04:06Z</time>
      </trkpt>
      <trkpt lat="44.34669" lon="4.47504">
        <ele>269.7</ele>
        <time>2024-03-02T10:04:15Z</time>
      </trkpt>
      <trkpt lat="44.34687" lon="4.47507">
        <ele>271.3</ele>
        <time>2024-03-02T10:04:28Z</time>
      </trkpt>
      <trkpt lat="44.34695" lon="4.47502">
        <ele>272.2</ele>
        <time>2024-03-02T10:04:40Z</time>
      </trkpt>
      <trkpt lat="44.34697" lon="4.47502">
        <ele>272.3</ele>
        <time>2024-03-02T10:04:42Z</time>
      </trkpt>
      <trkpt lat="44.34698" lon="4.47502">
        <ele>272.5</ele>
        <time>2024-03-02T10:04:44Z</time>
      </trkpt>
      <trkpt lat="44.34702" lon="4.47496">
        <ele>273</ele>
        <time>2024-03-02T10:04:55Z</time>
      </trkpt>
      <trkpt lat="44.34701" lon="4.47489">
        <ele>273.5</ele>
        <time>2024-03-02T10:04:58Z</time>
      </trkpt>
      <trkpt lat="44.34713" lon="4.47498">
        <ele>274.9</ele>
        <time>2024-03-02T10:08:36Z</time>
      </trkpt>
      <trkpt lat="44.34732" lon="4.47507">
        <ele>278.3</ele>
        <time>2024-03-02T10:08:45Z</time>
      </trkpt>
      <trkpt lat="44.3475" lon="4.47512">
        <ele>281.5</ele>
        <time>2024-03-02T10:08:56Z</time>
      </trkpt>
      <trkpt lat="44.34768" lon="4.4751">
        <ele>284.9</ele>
        <time>2024-03-02T10:09:08Z</time>
      </trkpt>
      <trkpt lat="44.34785" lon="4.47515">
        <ele>289.1</ele>
        <time>2024-03-02T10:09:19Z</time>
      </trkpt>
      <trkpt lat="44.34793" lon="4.47526">
        <ele>292</ele>
        <time>2024-03-02T10:09:28Z</time>
      </trkpt>
      <trkpt lat="44.34811" lon="4.4753">
        <ele>296.3</ele>
        <time>2024-03-02T10:09:44Z</time>
      </trkpt>
      <trkpt lat="44.34825" lon="4.4755">
        <ele>299.5</ele>
        <time>2024-03-02T10:09:59Z</time>
      </trkpt>
      <trkpt lat="44.34843" lon="4.47558">
        <ele>302.5</ele>
        <time>2024-03-02T10:10:08Z</time>
      </trkpt>
      <trkpt lat="44.34855" lon="4.47578">
        <ele>305.2</ele>
        <time>2024-03-02T10:10:19Z</time>
      </trkpt>
      <trkpt lat="44.34863" lon="4.47603">
        <ele>307.1</ele>
        <time>2024-03-02T10:10:28Z</time>
      </trkpt>
      <trkpt lat="44.34871" lon="4.47628">
        <ele>308.4</ele>
        <time>2024-03-02T10:10:36Z</time>
      </trkpt>
      <trkpt lat="44.34878" lon="4.47653">
        <ele>309.4</ele>
        <time>2024-03-02T10:10:44Z</time>
      </trkpt>
      <trkpt lat="44.34892" lon="4.47671">
        <ele>310.1</ele>
        <time>2024-03-02T10:10:52Z</time>
      </trkpt>
      <trkpt lat="44.34905" lon="4.47689">
        <ele>310.6</ele>
        <time>2024-03-02T10:10:58Z</time>
      </trkpt>
      <trkpt lat="44.3491" lon="4.47716">
        <ele>311</ele>
        <time>2024-03-02T10:11:05Z</time>
      </trkpt>
      <trkpt lat="44.34907" lon="4.47742">
        <ele>311</ele>
        <time>2024-03-02T10:11:11Z</time>
      </trkpt>
      <trkpt lat="44.34899" lon="4.47766">
        <ele>311.2</ele>
        <time>2024-03-02T10:11:17Z</time>
      </trkpt>
      <trkpt lat="44.349" lon="4.4779">
        <ele>311.9</ele>
        <time>2024-03-02T10:11:24Z</time>
      </trkpt>
      <trkpt lat="44.3491" lon="4.47813">
        <ele>312.4</ele>
        <time>2024-03-02T10:11:31Z</time>
      </trkpt>
      <trkpt lat="44.3492" lon="4.47836">
        <ele>312.7</ele>
        <time>2024-03-02T10:11:38Z</time>
      </trkpt>
      <trkpt lat="44.3493" lon="4.47856">
        <ele>312.9</ele>
        <time>2024-03-02T10:11:45Z</time>
      </trkpt>
      <trkpt lat="44.34946" lon="4.47872">
        <ele>313</ele>
        <time>2024-03-02T10:11:51Z</time>
      </trkpt>
      <trkpt lat="44.34965" lon="4.47883">
        <ele>313</ele>
        <time>2024-03-02T10:11:57Z</time>
      </trkpt>
      <trkpt lat="44.34983" lon="4.47894">
        <ele>313.1</ele>
        <time>2024-03-02T10:12:03Z</time>
      </trkpt>
      <trkpt lat="44.35002" lon="4.47904">
        <ele>313.1</ele>
        <time>2024-03-02T10:12:09Z</time>
      </trkpt>
      <trkpt lat="44.35017" lon="4.47921">
        <ele>313.3</ele>
        <time>2024-03-02T10:12:16Z</time>
      </trkpt>
      <trkpt lat="44.35023" lon="4.47947">
        <ele>313.4</ele>
        <time>2024-03-02T10:12:22Z</time>
      </trkpt>
      <trkpt lat="44.35027" lon="4.47972">
        <ele>313.6</ele>
        <time>2024-03-02T10:12:28Z</time>
      </trkpt>
      <trkpt lat="44.35034" lon="4.47985">
        <ele>313.6</ele>
        <time>2024-03-02T10:12:33Z</time>
      </trkpt>
      <trkpt lat="44.35038" lon="4.47984">
        <ele>313.7</ele>
        <time>2024-03-02T10:12:35Z</time>
      </trkpt>
      <trkpt lat="44.35054" lon="4.47972">
        <ele>313.3</ele>
        <time>2024-03-02T10:12:42Z</time>
      </trkpt>
      <trkpt lat="44.35063" lon="4.47957">
        <ele>313.2</ele>
        <time>2024-03-02T10:12:48Z</time>
      </trkpt>
      <trkpt lat="44.35059" lon="4.47931">
        <ele>313</ele>
        <time>2024-03-02T10:12:57Z</time>
      </trkpt>
      <trkpt lat="44.35058" lon="4.47904">
        <ele>312.7</ele>
        <time>2024-03-02T10:13:03Z</time>
      </trkpt>
      <trkpt lat="44.35059" lon="4.47875">
        <ele>312.2</ele>
        <time>2024-03-02T10:13:09Z</time>
      </trkpt>
      <trkpt lat="44.35063" lon="4.47849">
        <ele>311.7</ele>
        <time>2024-03-02T10:13:15Z</time>
      </trkpt>
      <trkpt lat="44.35063" lon="4.47822">
        <ele>311.2</ele>
        <time>2024-03-02T10:13:21Z</time>
      </trkpt>
      <trkpt lat="44.35074" lon="4.47802">
        <ele>310.9</ele>
        <time>2024-03-02T10:13:27Z</time>
      </trkpt>
      <trkpt lat="44.35087" lon="4.47784">
        <ele>310.6</ele>
        <time>2024-03-02T10:13:34Z</time>
      </trkpt>
      <trkpt lat="44.35104" lon="4.47767">
        <ele>310.2</ele>
        <time>2024-03-02T10:13:40Z</time>
      </trkpt>
      <trkpt lat="44.35118" lon="4.47752">
        <ele>309.7</ele>
        <time>2024-03-02T10:13:45Z</time>
      </trkpt>
      <trkpt lat="44.35136" lon="4.47746">
        <ele>309.5</ele>
        <time>2024-03-02T10:13:51Z</time>
      </trkpt>
      <trkpt lat="44.35154" lon="4.47763">
        <ele>309.5</ele>
        <time>2024-03-02T10:13:58Z</time>
      </trkpt>
      <trkpt lat="44.35172" lon="4.47772">
        <ele>309.6</ele>
        <time>2024-03-02T10:14:05Z</time>
      </trkpt>
      <trkpt lat="44.35185" lon="4.47792">
        <ele>309.6</ele>
        <time>2024-03-02T10:14:11Z</time>
      </trkpt>
      <trkpt lat="44.35198" lon="4.4781">
        <ele>309.7</ele>
        <time>2024-03-02T10:14:17Z</time>
      </trkpt>
      <trkpt lat="44.35213" lon="4.47829">
        <ele>309.9</ele>
        <time>2024-03-02T10:14:24Z</time>
      </trkpt>
      <trkpt lat="44.35229" lon="4.47849">
        <ele>310.2</ele>
        <time>2024-03-02T10:14:31Z</time>
      </trkpt>
      <trkpt lat="44.35243" lon="4.47866">
        <ele>310.3</ele>
        <time>2024-03-02T10:14:37Z</time>
      </trkpt>
      <trkpt lat="44.35256" lon="4.47884">
        <ele>310.6</ele>
        <time>2024-03-02T10:14:43Z</time>
      </trkpt>
      <trkpt lat="44.35271" lon="4.47904">
        <ele>310.9</ele>
        <time>2024-03-02T10:14:50Z</time>
      </trkpt>
      <trkpt lat="44.35286" lon="4.47923">
        <ele>311.1</ele>
        <time>2024-03-02T10:14:56Z</time>
      </trkpt>
      <trkpt lat="44.35301" lon="4.47942">
        <ele>311.5</ele>
        <time>2024-03-02T10:15:03Z</time>
      </trkpt>
      <trkpt lat="44.35317" lon="4.47959">
        <ele>311.7</ele>
        <time>2024-03-02T10:15:09Z</time>
      </trkpt>
      <trkpt lat="44.35331" lon="4.47977">
        <ele>311.9</ele>
        <time>2024-03-02T10:15:15Z</time>
      </trkpt>
      <trkpt lat="44.35346" lon="4.47996">
        <ele>312.2</ele>
        <time>2024-03-02T10:15:22Z</time>
      </trkpt>
      <trkpt lat="44.3536" lon="4.48014">
        <ele>312.7</ele>
        <time>2024-03-02T10:15:28Z</time>
      </trkpt>
      <trkpt lat="44.35373" lon="4.48032">
        <ele>313.2</ele>
        <time>2024-03-02T10:15:34Z</time>
      </trkpt>
      <trkpt lat="44.35388" lon="4.48049">
        <ele>313.3</ele>
        <time>2024-03-02T10:15:40Z</time>
      </trkpt>
      <trkpt lat="44.35401" lon="4.48066">
        <ele>313.4</ele>
        <time>2024-03-02T10:15:46Z</time>
      </trkpt>
      <trkpt lat="44.35415" lon="4.48085">
        <ele>313.6</ele>
        <time>2024-03-02T10:15:52Z</time>
      </trkpt>
      <trkpt lat="44.3543" lon="4.48103">
        <ele>313.8</ele>
        <time>2024-03-02T10:15:58Z</time>
      </trkpt>
      <trkpt lat="44.35445" lon="4.48123">
        <ele>314.2</ele>
        <time>2024-03-02T10:16:04Z</time>
      </trkpt>
      <trkpt lat="44.35459" lon="4.48141">
        <ele>314.3</ele>
        <time>2024-03-02T10:16:10Z</time>
      </trkpt>
      <trkpt lat="44.35475" lon="4.48155">
        <ele>314.5</ele>
        <time>2024-03-02T10:16:16Z</time>
      </trkpt>
      <trkpt lat="44.35489" lon="4.48174">
        <ele>314.9</ele>
        <time>2024-03-02T10:16:22Z</time>
      </trkpt>
      <trkpt lat="44.35503" lon="4.48196">
        <ele>315.5</ele>
        <time>2024-03-02T10:16:29Z</time>
      </trkpt>
      <trkpt lat="44.35519" lon="4.48209">
        <ele>315.7</ele>
        <time>2024-03-02T10:16:35Z</time>
      </trkpt>
      <trkpt lat="44.35534" lon="4.48226">
        <ele>315.8</ele>
        <time>2024-03-02T10:16:41Z</time>
      </trkpt>
      <trkpt lat="44.35545" lon="4.48249">
        <ele>316</ele>
        <time>2024-03-02T10:16:47Z</time>
      </trkpt>
      <trkpt lat="44.35558" lon="4.48269">
        <ele>316.2</ele>
        <time>2024-03-02T10:16:53Z</time>
      </trkpt>
      <trkpt lat="44.35572" lon="4.48291">
        <ele>316.3</ele>
        <time>2024-03-02T10:17:00Z</time>
      </trkpt>
      <trkpt lat="44.35586" lon="4.48312">
        <ele>316.2</ele>
        <time>2024-03-02T10:17:07Z</time>
      </trkpt>
      <trkpt lat="44.35601" lon="4.48327">
        <ele>316.2</ele>
        <time>2024-03-02T10:17:13Z</time>
      </trkpt>
      <trkpt lat="44.35616" lon="4.48344">
        <ele>316.5</ele>
        <time>2024-03-02T10:17:19Z</time>
      </trkpt>
      <trkpt lat="44.35631" lon="4.48364">
        <ele>316.8</ele>
        <time>2024-03-02T10:17:26Z</time>
      </trkpt>
      <trkpt lat="44.35647" lon="4.48382">
        <ele>317</ele>
        <time>2024-03-02T10:17:32Z</time>
      </trkpt>
      <trkpt lat="44.35663" lon="4.48396">
        <ele>316.9</ele>
        <time>2024-03-02T10:17:37Z</time>
      </trkpt>
      <trkpt lat="44.35678" lon="4.48413">
        <ele>316.9</ele>
        <time>2024-03-02T10:17:43Z</time>
      </trkpt>
      <trkpt lat="44.35694" lon="4.48429">
        <ele>316.9</ele>
        <time>2024-03-02T10:17:49Z</time>
      </trkpt>
      <trkpt lat="44.3571" lon="4.48447">
        <ele>316.4</ele>
        <time>2024-03-02T10:17:55Z</time>
      </trkpt>
      <trkpt lat="44.35726" lon="4.48464">
        <ele>315.7</ele>
        <time>2024-03-02T10:18:01Z</time>
      </trkpt>
      <trkpt lat="44.35742" lon="4.48484">
        <ele>314.9</ele>
        <time>2024-03-02T10:18:07Z</time>
      </trkpt>
      <trkpt lat="44.35756" lon="4.48502">
        <ele>314.4</ele>
        <time>2024-03-02T10:18:13Z</time>
      </trkpt>
      <trkpt lat="44.35771" lon="4.4852">
        <ele>313.9</ele>
        <time>2024-03-02T10:18:19Z</time>
      </trkpt>
      <trkpt lat="44.35788" lon="4.48536">
        <ele>313.5</ele>
        <time>2024-03-02T10:18:25Z</time>
      </trkpt>
      <trkpt lat="44.35804" lon="4.48554">
        <ele>312.9</ele>
        <time>2024-03-02T10:18:31Z</time>
      </trkpt>
      <trkpt lat="44.35818" lon="4.4857">
        <ele>312.3</ele>
        <time>2024-03-02T10:18:36Z</time>
      </trkpt>
      <trkpt lat="44.35834" lon="4.48589">
        <ele>311.2</ele>
        <time>2024-03-02T10:18:42Z</time>
      </trkpt>
      <trkpt lat="44.3585" lon="4.48607">
        <ele>310.2</ele>
        <time>2024-03-02T10:18:48Z</time>
      </trkpt>
      <trkpt lat="44.35867" lon="4.48625">
        <ele>309.5</ele>
        <time>2024-03-02T10:18:54Z</time>
      </trkpt>
      <trkpt lat="44.35884" lon="4.48642">
        <ele>308.9</ele>
        <time>2024-03-02T10:19:00Z</time>
      </trkpt>
      <trkpt lat="44.35898" lon="4.48662">
        <ele>308.1</ele>
        <time>2024-03-02T10:19:06Z</time>
      </trkpt>
      <trkpt lat="44.35913" lon="4.48678">
        <ele>307.3</ele>
        <time>2024-03-02T10:19:12Z</time>
      </trkpt>
      <trkpt lat="44.35927" lon="4.48696">
        <ele>306.8</ele>
        <time>2024-03-02T10:19:18Z</time>
      </trkpt>
      <trkpt lat="44.3594" lon="4.48714">
        <ele>306.8</ele>
        <time>2024-03-02T10:19:24Z</time>
      </trkpt>
      <trkpt lat="44.35954" lon="4.4873">
        <ele>306.8</ele>
        <time>2024-03-02T10:19:29Z</time>
      </trkpt>
      <trkpt lat="44.35973" lon="4.48742">
        <ele>306.9</ele>
        <time>2024-03-02T10:19:35Z</time>
      </trkpt>
      <trkpt lat="44.35985" lon="4.48765">
        <ele>306.9</ele>
        <time>2024-03-02T10:19:41Z</time>
      </trkpt>
      <trkpt lat="44.35996" lon="4.48788">
        <ele>307.1</ele>
        <time>2024-03-02T10:19:47Z</time>
      </trkpt>
      <trkpt lat="44.36005" lon="4.48812">
        <ele>307.4</ele>
        <time>2024-03-02T10:19:53Z</time>
      </trkpt>
      <trkpt lat="44.36015" lon="4.48836">
        <ele>307.8</ele>
        <time>2024-03-02T10:19:59Z</time>
      </trkpt>
      <trkpt lat="44.36024" lon="4.4886">
        <ele>308.5</ele>
        <time>2024-03-02T10:20:05Z</time>
      </trkpt>
      <trkpt lat="44.36032" lon="4.48883">
        <ele>309.3</ele>
        <time>2024-03-02T10:20:11Z</time>
      </trkpt>
      <trkpt lat="44.3604" lon="4.48908">
        <ele>310</ele>
        <time>2024-03-02T10:20:18Z</time>
      </trkpt>
      <trkpt lat="44.36049" lon="4.48933">
        <ele>310.6</ele>
        <time>2024-03-02T10:20:24Z</time>
      </trkpt>
      <trkpt lat="44.36058" lon="4.48958">
        <ele>311</ele>
        <time>2024-03-02T10:20:30Z</time>
      </trkpt>
      <trkpt lat="44.36065" lon="4.48982">
        <ele>311.4</ele>
        <time>2024-03-02T10:20:36Z</time>
      </trkpt>
      <trkpt lat="44.36072" lon="4.49007">
        <ele>311.6</ele>
        <time>2024-03-02T10:20:42Z</time>
      </trkpt>
      <trkpt lat="44.3608" lon="4.49033">
        <ele>311.8</ele>
        <time>2024-03-02T10:20:49Z</time>
      </trkpt>
      <trkpt lat="44.36088" lon="4.49056">
        <ele>312</ele>
        <time>2024-03-02T10:20:55Z</time>
      </trkpt>
      <trkpt lat="44.36097" lon="4.49079">
        <ele>312.3</ele>
        <time>2024-03-02T10:21:01Z</time>
      </trkpt>
      <trkpt lat="44.36107" lon="4.49104">
        <ele>312.6</ele>
        <time>2024-03-02T10:21:08Z</time>
      </trkpt>
      <trkpt lat="44.36117" lon="4.49126">
        <ele>312.8</ele>
        <time>2024-03-02T10:21:14Z</time>
      </trkpt>
      <trkpt lat="44.36127" lon="4.49153">
        <ele>313.1</ele>
        <time>2024-03-02T10:21:20Z</time>
      </trkpt>
      <trkpt lat="44.36135" lon="4.49178">
        <ele>313.3</ele>
        <time>2024-03-02T10:21:26Z</time>
      </trkpt>
      <trkpt lat="44.36143" lon="4.49202">
        <ele>313.5</ele>
        <time>2024-03-02T10:21:32Z</time>
      </trkpt>
      <trkpt lat="44.36151" lon="4.49226">
        <ele>313.7</ele>
        <time>2024-03-02T10:21:38Z</time>
      </trkpt>
      <trkpt lat="44.36159" lon="4.49249">
        <ele>313.8</ele>
        <time>2024-03-02T10:21:44Z</time>
      </trkpt>
      <trkpt lat="44.36168" lon="4.49272">
        <ele>313.9</ele>
        <time>2024-03-02T10:21:50Z</time>
      </trkpt>
      <trkpt lat="44.36177" lon="4.49294">
        <ele>314.1</ele>
        <time>2024-03-02T10:21:56Z</time>
      </trkpt>
      <trkpt lat="44.36185" lon="4.49317">
        <ele>314.5</ele>
        <time>2024-03-02T10:22:02Z</time>
      </trkpt>
      <trkpt lat="44.36192" lon="4.49341">
        <ele>314.8</ele>
        <time>2024-03-02T10:22:08Z</time>
      </trkpt>
      <trkpt lat="44.36201" lon="4.49364">
        <ele>315.1</ele>
        <time>2024-03-02T10:22:14Z</time>
      </trkpt>
      <trkpt lat="44.3621" lon="4.49387">
        <ele>315.5</ele>
        <time>2024-03-02T10:22:20Z</time>
      </trkpt>
      <trkpt lat="44.3622" lon="4.49413">
        <ele>315.6</ele>
        <time>2024-03-02T10:22:26Z</time>
      </trkpt>
      <trkpt lat="44.36229" lon="4.49438">
        <ele>315.7</ele>
        <time>2024-03-02T10:22:32Z</time>
      </trkpt>
      <trkpt lat="44.36238" lon="4.4946">
        <ele>315.8</ele>
        <time>2024-03-02T10:22:38Z</time>
      </trkpt>
      <trkpt lat="44.36246" lon="4.49484">
        <ele>316</ele>
        <time>2024-03-02T10:22:44Z</time>
      </trkpt>
      <trkpt lat="44.36253" lon="4.49509">
        <ele>316.1</ele>
        <time>2024-03-02T10:22:50Z</time>
      </trkpt>
      <trkpt lat="44.36259" lon="4.49534">
        <ele>316.5</ele>
        <time>2024-03-02T10:22:56Z</time>
      </trkpt>
      <trkpt lat="44.36267" lon="4.49557">
        <ele>316.8</ele>
        <time>2024-03-02T10:23:02Z</time>
      </trkpt>
      <trkpt lat="44.36274" lon="4.49581">
        <ele>317.1</ele>
        <time>2024-03-02T10:23:08Z</time>
      </trkpt>
      <trkpt lat="44.36281" lon="4.49605">
        <ele>317.3</ele>
        <time>2024-03-02T10:23:14Z</time>
      </trkpt>
      <trkpt lat="44.36292" lon="4.49629">
        <ele>317.5</ele>
        <time>2024-03-02T10:23:20Z</time>
      </trkpt>
      <trkpt lat="44.36301" lon="4.49654">
        <ele>317.7</ele>
        <time>2024-03-02T10:23:26Z</time>
      </trkpt>
      <trkpt lat="44.36308" lon="4.49678">
        <ele>318</ele>
        <time>2024-03-02T10:23:32Z</time>
      </trkpt>
      <trkpt lat="44.36318" lon="4.49704">
        <ele>318.2</ele>
        <time>2024-03-02T10:23:39Z</time>
      </trkpt>
      <trkpt lat="44.36327" lon="4.49728">
        <ele>318.6</ele>
        <time>2024-03-02T10:23:45Z</time>
      </trkpt>
      <trkpt lat="44.36335" lon="4.49752">
        <ele>318.7</ele>
        <time>2024-03-02T10:23:51Z</time>
      </trkpt>
      <trkpt lat="44.36344" lon="4.49775">
        <ele>319</ele>
        <time>2024-03-02T10:23:57Z</time>
      </trkpt>
      <trkpt lat="44.3635" lon="4.49798">
        <ele>319.4</ele>
        <time>2024-03-02T10:24:03Z</time>
      </trkpt>
      <trkpt lat="44.36358" lon="4.49822">
        <ele>319.5</ele>
        <time>2024-03-02T10:24:09Z</time>
      </trkpt>
      <trkpt lat="44.36367" lon="4.49846">
        <ele>319.8</ele>
        <time>2024-03-02T10:24:15Z</time>
      </trkpt>
      <trkpt lat="44.36374" lon="4.49873">
        <ele>320</ele>
        <time>2024-03-02T10:24:21Z</time>
      </trkpt>
      <trkpt lat="44.36383" lon="4.49898">
        <ele>320.2</ele>
        <time>2024-03-02T10:24:27Z</time>
      </trkpt>
      <trkpt lat="44.36394" lon="4.49923">
        <ele>320.5</ele>
        <time>2024-03-02T10:24:33Z</time>
      </trkpt>
      <trkpt lat="44.36404" lon="4.49947">
        <ele>320.8</ele>
        <time>2024-03-02T10:24:39Z</time>
      </trkpt>
      <trkpt lat="44.36414" lon="4.49971">
        <ele>321</ele>
        <time>2024-03-02T10:24:45Z</time>
      </trkpt>
      <trkpt lat="44.36423" lon="4.49995">
        <ele>321.5</ele>
        <time>2024-03-02T10:24:51Z</time>
      </trkpt>
      <trkpt lat="44.36431" lon="4.50018">
        <ele>322.1</ele>
        <time>2024-03-02T10:24:57Z</time>
      </trkpt>
      <trkpt lat="44.36439" lon="4.50043">
        <ele>322.7</ele>
        <time>2024-03-02T10:25:04Z</time>
      </trkpt>
      <trkpt lat="44.36449" lon="4.50064">
        <ele>323.1</ele>
        <time>2024-03-02T10:25:10Z</time>
      </trkpt>
      <trkpt lat="44.3646" lon="4.50085">
        <ele>323.4</ele>
        <time>2024-03-02T10:25:16Z</time>
      </trkpt>
      <trkpt lat="44.3647" lon="4.50109">
        <ele>323.9</ele>
        <time>2024-03-02T10:25:22Z</time>
      </trkpt>
      <trkpt lat="44.36477" lon="4.50136">
        <ele>324.5</ele>
        <time>2024-03-02T10:25:29Z</time>
      </trkpt>
      <trkpt lat="44.36495" lon="4.5014">
        <ele>325</ele>
        <time>2024-03-02T10:25:35Z</time>
      </trkpt>
      <trkpt lat="44.36516" lon="4.50141">
        <ele>325.5</ele>
        <time>2024-03-02T10:25:42Z</time>
      </trkpt>
      <trkpt lat="44.36536" lon="4.50144">
        <ele>325.8</ele>
        <time>2024-03-02T10:25:49Z</time>
      </trkpt>
      <trkpt lat="44.36556" lon="4.50146">
        <ele>326.1</ele>
        <time>2024-03-02T10:25:55Z</time>
      </trkpt>
      <trkpt lat="44.36575" lon="4.50146">
        <ele>326.5</ele>
        <time>2024-03-02T10:26:01Z</time>
      </trkpt>
      <trkpt lat="44.36596" lon="4.50146">
        <ele>326.7</ele>
        <time>2024-03-02T10:26:07Z</time>
      </trkpt>
      <trkpt lat="44.36615" lon="4.50144">
        <ele>326.9</ele>
        <time>2024-03-02T10:26:13Z</time>
      </trkpt>
      <trkpt lat="44.36635" lon="4.50141">
        <ele>327.3</ele>
        <time>2024-03-02T10:26:19Z</time>
      </trkpt>
      <trkpt lat="44.36654" lon="4.50139">
        <ele>327.8</ele>
        <time>2024-03-02T10:26:25Z</time>
      </trkpt>
      <trkpt lat="44.36673" lon="4.50139">
        <ele>328.3</ele>
        <time>2024-03-02T10:26:31Z</time>
      </trkpt>
      <trkpt lat="44.36692" lon="4.50139">
        <ele>328.6</ele>
        <time>2024-03-02T10:26:37Z</time>
      </trkpt>
      <trkpt lat="44.36712" lon="4.50138">
        <ele>328.9</ele>
        <time>2024-03-02T10:26:43Z</time>
      </trkpt>
      <trkpt lat="44.36731" lon="4.50139">
        <ele>328.9</ele>
        <time>2024-03-02T10:26:49Z</time>
      </trkpt>
      <trkpt lat="44.3675" lon="4.5014">
        <ele>328.8</ele>
        <time>2024-03-02T10:26:55Z</time>
      </trkpt>
      <trkpt lat="44.36771" lon="4.50141">
        <ele>328.9</ele>
        <time>2024-03-02T10:27:01Z</time>
      </trkpt>
      <trkpt lat="44.36791" lon="4.50143">
        <ele>329.1</ele>
        <time>2024-03-02T10:27:07Z</time>
      </trkpt>
      <trkpt lat="44.36809" lon="4.50148">
        <ele>329.2</ele>
        <time>2024-03-02T10:27:13Z</time>
      </trkpt>
      <trkpt lat="44.36828" lon="4.50156">
        <ele>329.4</ele>
        <time>2024-03-02T10:27:19Z</time>
      </trkpt>
      <trkpt lat="44.36846" lon="4.50163">
        <ele>329.7</ele>
        <time>2024-03-02T10:27:25Z</time>
      </trkpt>
      <trkpt lat="44.36864" lon="4.5017">
        <ele>329.9</ele>
        <time>2024-03-02T10:27:31Z</time>
      </trkpt>
      <trkpt lat="44.36883" lon="4.50178">
        <ele>330.2</ele>
        <time>2024-03-02T10:27:37Z</time>
      </trkpt>
      <trkpt lat="44.36901" lon="4.50187">
        <ele>330.7</ele>
        <time>2024-03-02T10:27:43Z</time>
      </trkpt>
      <trkpt lat="44.36919" lon="4.50195">
        <ele>331.3</ele>
        <time>2024-03-02T10:27:50Z</time>
      </trkpt>
      <trkpt lat="44.36938" lon="4.502">
        <ele>332</ele>
        <time>2024-03-02T10:27:57Z</time>
      </trkpt>
      <trkpt lat="44.36957" lon="4.50204">
        <ele>332.6</ele>
        <time>2024-03-02T10:28:04Z</time>
      </trkpt>
      <trkpt lat="44.36975" lon="4.50213">
        <ele>333.4</ele>
        <time>2024-03-02T10:28:11Z</time>
      </trkpt>
      <trkpt lat="44.36994" lon="4.50221">
        <ele>334.4</ele>
        <time>2024-03-02T10:28:18Z</time>
      </trkpt>
      <trkpt lat="44.37012" lon="4.50228">
        <ele>336.8</ele>
        <time>2024-03-02T10:28:25Z</time>
      </trkpt>
      <trkpt lat="44.37031" lon="4.50234">
        <ele>337.7</ele>
        <time>2024-03-02T10:28:32Z</time>
      </trkpt>
      <trkpt lat="44.3705" lon="4.50241">
        <ele>338.7</ele>
        <time>2024-03-02T10:28:39Z</time>
      </trkpt>
      <trkpt lat="44.37069" lon="4.5025">
        <ele>339.8</ele>
        <time>2024-03-02T10:28:46Z</time>
      </trkpt>
      <trkpt lat="44.37088" lon="4.5026">
        <ele>340.9</ele>
        <time>2024-03-02T10:28:53Z</time>
      </trkpt>
      <trkpt lat="44.37106" lon="4.50268">
        <ele>342.1</ele>
        <time>2024-03-02T10:29:00Z</time>
      </trkpt>
      <trkpt lat="44.37124" lon="4.50273">
        <ele>343.5</ele>
        <time>2024-03-02T10:29:07Z</time>
      </trkpt>
      <trkpt lat="44.37144" lon="4.50281">
        <ele>344.9</ele>
        <time>2024-03-02T10:29:14Z</time>
      </trkpt>
      <trkpt lat="44.37162" lon="4.50289">
        <ele>346.3</ele>
        <time>2024-03-02T10:29:21Z</time>
      </trkpt>
      <trkpt lat="44.3718" lon="4.50297">
        <ele>347.6</ele>
        <time>2024-03-02T10:29:28Z</time>
      </trkpt>
      <trkpt lat="44.37198" lon="4.50305">
        <ele>348.9</ele>
        <time>2024-03-02T10:29:35Z</time>
      </trkpt>
      <trkpt lat="44.37217" lon="4.50312">
        <ele>350.3</ele>
        <time>2024-03-02T10:29:42Z</time>
      </trkpt>
      <trkpt lat="44.37236" lon="4.50317">
        <ele>351.4</ele>
        <time>2024-03-02T10:29:49Z</time>
      </trkpt>
      <trkpt lat="44.37255" lon="4.50324">
        <ele>352.2</ele>
        <time>2024-03-02T10:29:56Z</time>
      </trkpt>
      <trkpt lat="44.37273" lon="4.5033">
        <ele>352.8</ele>
        <time>2024-03-02T10:30:02Z</time>
      </trkpt>
      <trkpt lat="44.37293" lon="4.50336">
        <ele>353.1</ele>
        <time>2024-03-02T10:30:08Z</time>
      </trkpt>
      <trkpt lat="44.37311" lon="4.50341">
        <ele>353.5</ele>
        <time>2024-03-02T10:30:14Z</time>
      </trkpt>
      <trkpt lat="44.37329" lon="4.50347">
        <ele>353.9</ele>
        <time>2024-03-02T10:30:20Z</time>
      </trkpt>
      <trkpt lat="44.37348" lon="4.50352">
        <ele>354.6</ele>
        <time>2024-03-02T10:30:26Z</time>
      </trkpt>
      <trkpt lat="44.37365" lon="4.50359">
        <ele>355.6</ele>
        <time>2024-03-02T10:30:32Z</time>
      </trkpt>
      <trkpt lat="44.37383" lon="4.50364">
        <ele>357</ele>
        <time>2024-03-02T10:30:39Z</time>
      </trkpt>
      <trkpt lat="44.37401" lon="4.5037">
        <ele>358.9</ele>
        <time>2024-03-02T10:30:46Z</time>
      </trkpt>
      <trkpt lat="44.37419" lon="4.50377">
        <ele>361</ele>
        <time>2024-03-02T10:30:54Z</time>
      </trkpt>
      <trkpt lat="44.37438" lon="4.5038">
        <ele>363.4</ele>
        <time>2024-03-02T10:31:02Z</time>
      </trkpt>
      <trkpt lat="44.37458" lon="4.50384">
        <ele>365.7</ele>
        <time>2024-03-02T10:31:11Z</time>
      </trkpt>
      <trkpt lat="44.37476" lon="4.5039">
        <ele>367.2</ele>
        <time>2024-03-02T10:31:18Z</time>
      </trkpt>
      <trkpt lat="44.37493" lon="4.50396">
        <ele>368.7</ele>
        <time>2024-03-02T10:31:25Z</time>
      </trkpt>
      <trkpt lat="44.3751" lon="4.50406">
        <ele>370.2</ele>
        <time>2024-03-02T10:31:32Z</time>
      </trkpt>
      <trkpt lat="44.37529" lon="4.50417">
        <ele>371.6</ele>
        <time>2024-03-02T10:31:39Z</time>
      </trkpt>
      <trkpt lat="44.37547" lon="4.50429">
        <ele>372.8</ele>
        <time>2024-03-02T10:31:46Z</time>
      </trkpt>
      <trkpt lat="44.37564" lon="4.5044">
        <ele>373.8</ele>
        <time>2024-03-02T10:31:53Z</time>
      </trkpt>
      <trkpt lat="44.37583" lon="4.50447">
        <ele>374.8</ele>
        <time>2024-03-02T10:32:02Z</time>
      </trkpt>
      <trkpt lat="44.37601" lon="4.50447">
        <ele>376</ele>
        <time>2024-03-02T10:32:10Z</time>
      </trkpt>
      <trkpt lat="44.37619" lon="4.50445">
        <ele>377.8</ele>
        <time>2024-03-02T10:32:18Z</time>
      </trkpt>
      <trkpt lat="44.37639" lon="4.5044">
        <ele>380.1</ele>
        <time>2024-03-02T10:32:27Z</time>
      </trkpt>
      <trkpt lat="44.37658" lon="4.50441">
        <ele>381.9</ele>
        <time>2024-03-02T10:32:35Z</time>
      </trkpt>
      <trkpt lat="44.37677" lon="4.50439">
        <ele>383.2</ele>
        <time>2024-03-02T10:32:42Z</time>
      </trkpt>
      <trkpt lat="44.37693" lon="4.50453">
        <ele>384.6</ele>
        <time>2024-03-02T10:32:51Z</time>
      </trkpt>
      <trkpt lat="44.3771" lon="4.50455">
        <ele>386.1</ele>
        <time>2024-03-02T10:33:01Z</time>
      </trkpt>
      <trkpt lat="44.37722" lon="4.50436">
        <ele>387.2</ele>
        <time>2024-03-02T10:33:09Z</time>
      </trkpt>
      <trkpt lat="44.37738" lon="4.50422">
        <ele>388.1</ele>
        <time>2024-03-02T10:33:18Z</time>
      </trkpt>
      <trkpt lat="44.37752" lon="4.50402">
        <ele>389.9</ele>
        <time>2024-03-02T10:33:26Z</time>
      </trkpt>
      <trkpt lat="44.37765" lon="4.50381">
        <ele>390.6</ele>
        <time>2024-03-02T10:33:34Z</time>
      </trkpt>
      <trkpt lat="44.37781" lon="4.50363">
        <ele>391.3</ele>
        <time>2024-03-02T10:33:42Z</time>
      </trkpt>
      <trkpt lat="44.37798" lon="4.50352">
        <ele>393</ele>
        <time>2024-03-02T10:33:49Z</time>
      </trkpt>
      <trkpt lat="44.37815" lon="4.50337">
        <ele>394.9</ele>
        <time>2024-03-02T10:33:57Z</time>
      </trkpt>
      <trkpt lat="44.37835" lon="4.50332">
        <ele>396.3</ele>
        <time>2024-03-02T10:34:04Z</time>
      </trkpt>
      <trkpt lat="44.37853" lon="4.5033">
        <ele>397.5</ele>
        <time>2024-03-02T10:34:10Z</time>
      </trkpt>
      <trkpt lat="44.37868" lon="4.50348">
        <ele>398.6</ele>
        <time>2024-03-02T10:34:17Z</time>
      </trkpt>
      <trkpt lat="44.37881" lon="4.50369">
        <ele>399.9</ele>
        <time>2024-03-02T10:34:25Z</time>
      </trkpt>
      <trkpt lat="44.37896" lon="4.50385">
        <ele>400.8</ele>
        <time>2024-03-02T10:34:33Z</time>
      </trkpt>
      <trkpt lat="44.37917" lon="4.50386">
        <ele>400.6</ele>
        <time>2024-03-02T10:34:40Z</time>
      </trkpt>
      <trkpt lat="44.37935" lon="4.50388">
        <ele>400</ele>
        <time>2024-03-02T10:34:46Z</time>
      </trkpt>
      <trkpt lat="44.37953" lon="4.50392">
        <ele>399</ele>
        <time>2024-03-02T10:34:52Z</time>
      </trkpt>
      <trkpt lat="44.3797" lon="4.50402">
        <ele>397.8</ele>
        <time>2024-03-02T10:34:58Z</time>
      </trkpt>
      <trkpt lat="44.37987" lon="4.50413">
        <ele>396.6</ele>
        <time>2024-03-02T10:35:04Z</time>
      </trkpt>
      <trkpt lat="44.38004" lon="4.50422">
        <ele>395.8</ele>
        <time>2024-03-02T10:35:10Z</time>
      </trkpt>
      <trkpt lat="44.38025" lon="4.50426">
        <ele>394.7</ele>
        <time>2024-03-02T10:35:16Z</time>
      </trkpt>
      <trkpt lat="44.38043" lon="4.50413">
        <ele>394.4</ele>
        <time>2024-03-02T10:35:22Z</time>
      </trkpt>
      <trkpt lat="44.3806" lon="4.50397">
        <ele>395.1</ele>
        <time>2024-03-02T10:35:28Z</time>
      </trkpt>
      <trkpt lat="44.38074" lon="4.50377">
        <ele>396.5</ele>
        <time>2024-03-02T10:35:34Z</time>
      </trkpt>
      <trkpt lat="44.38087" lon="4.50356">
        <ele>398.2</ele>
        <time>2024-03-02T10:35:41Z</time>
      </trkpt>
      <trkpt lat="44.38102" lon="4.5034">
        <ele>399.9</ele>
        <time>2024-03-02T10:35:48Z</time>
      </trkpt>
      <trkpt lat="44.38116" lon="4.50321">
        <ele>401.5</ele>
        <time>2024-03-02T10:35:57Z</time>
      </trkpt>
      <trkpt lat="44.38127" lon="4.50297">
        <ele>402.3</ele>
        <time>2024-03-02T10:36:05Z</time>
      </trkpt>
      <trkpt lat="44.3813" lon="4.50273">
        <ele>402.6</ele>
        <time>2024-03-02T10:36:11Z</time>
      </trkpt>
      <trkpt lat="44.38127" lon="4.50247">
        <ele>402.6</ele>
        <time>2024-03-02T10:36:17Z</time>
      </trkpt>
      <trkpt lat="44.38131" lon="4.5022">
        <ele>402.5</ele>
        <time>2024-03-02T10:36:23Z</time>
      </trkpt>
      <trkpt lat="44.3813" lon="4.50194">
        <ele>402.5</ele>
        <time>2024-03-02T10:36:29Z</time>
      </trkpt>
      <trkpt lat="44.38134" lon="4.50165">
        <ele>402.4</ele>
        <time>2024-03-02T10:36:36Z</time>
      </trkpt>
      <trkpt lat="44.38127" lon="4.50139">
        <ele>401.9</ele>
        <time>2024-03-02T10:36:42Z</time>
      </trkpt>
      <trkpt lat="44.38117" lon="4.50117">
        <ele>401.3</ele>
        <time>2024-03-02T10:36:48Z</time>
      </trkpt>
      <trkpt lat="44.381" lon="4.50099">
        <ele>400.4</ele>
        <time>2024-03-02T10:36:54Z</time>
      </trkpt>
      <trkpt lat="44.38091" lon="4.50077">
        <ele>399.7</ele>
        <time>2024-03-02T10:36:59Z</time>
      </trkpt>
      <trkpt lat="44.38079" lon="4.50054">
        <ele>399.1</ele>
        <time>2024-03-02T10:37:05Z</time>
      </trkpt>
      <trkpt lat="44.38065" lon="4.50031">
        <ele>398.8</ele>
        <time>2024-03-02T10:37:11Z</time>
      </trkpt>
      <trkpt lat="44.38059" lon="4.50006">
        <ele>399</ele>
        <time>2024-03-02T10:37:17Z</time>
      </trkpt>
      <trkpt lat="44.38064" lon="4.49998">
        <ele>399.2</ele>
        <time>2024-03-02T10:37:19Z</time>
      </trkpt>
      <trkpt lat="44.38084" lon="4.49997">
        <ele>399.9</ele>
        <time>2024-03-02T10:37:25Z</time>
      </trkpt>
      <trkpt lat="44.38103" lon="4.49999">
        <ele>400.5</ele>
        <time>2024-03-02T10:37:31Z</time>
      </trkpt>
      <trkpt lat="44.38122" lon="4.50002">
        <ele>400.6</ele>
        <time>2024-03-02T10:37:37Z</time>
      </trkpt>
      <trkpt lat="44.38141" lon="4.50003">
        <ele>400.8</ele>
        <time>2024-03-02T10:37:43Z</time>
      </trkpt>
      <trkpt lat="44.38162" lon="4.50003">
        <ele>400.8</ele>
        <time>2024-03-02T10:37:49Z</time>
      </trkpt>
      <trkpt lat="44.38183" lon="4.50002">
        <ele>400.7</ele>
        <time>2024-03-02T10:37:55Z</time>
      </trkpt>
      <trkpt lat="44.38202" lon="4.50002">
        <ele>400.3</ele>
        <time>2024-03-02T10:38:01Z</time>
      </trkpt>
      <trkpt lat="44.38223" lon="4.50004">
        <ele>399.5</ele>
        <time>2024-03-02T10:38:07Z</time>
      </trkpt>
      <trkpt lat="44.38244" lon="4.50004">
        <ele>398.4</ele>
        <time>2024-03-02T10:38:13Z</time>
      </trkpt>
      <trkpt lat="44.38265" lon="4.50005">
        <ele>397.6</ele>
        <time>2024-03-02T10:38:19Z</time>
      </trkpt>
      <trkpt lat="44.38285" lon="4.50005">
        <ele>396.8</ele>
        <time>2024-03-02T10:38:25Z</time>
      </trkpt>
      <trkpt lat="44.38305" lon="4.50008">
        <ele>396.4</ele>
        <time>2024-03-02T10:38:31Z</time>
      </trkpt>
      <trkpt lat="44.38324" lon="4.50009">
        <ele>397.3</ele>
        <time>2024-03-02T10:38:37Z</time>
      </trkpt>
      <trkpt lat="44.38343" lon="4.5001">
        <ele>398.9</ele>
        <time>2024-03-02T10:38:44Z</time>
      </trkpt>
      <trkpt lat="44.38362" lon="4.50012">
        <ele>400.2</ele>
        <time>2024-03-02T10:38:51Z</time>
      </trkpt>
      <trkpt lat="44.38381" lon="4.50013">
        <ele>401.1</ele>
        <time>2024-03-02T10:38:57Z</time>
      </trkpt>
      <trkpt lat="44.38399" lon="4.50012">
        <ele>401.9</ele>
        <time>2024-03-02T10:39:03Z</time>
      </trkpt>
      <trkpt lat="44.3842" lon="4.50014">
        <ele>402.7</ele>
        <time>2024-03-02T10:39:10Z</time>
      </trkpt>
      <trkpt lat="44.38439" lon="4.50016">
        <ele>403.2</ele>
        <time>2024-03-02T10:39:16Z</time>
      </trkpt>
      <trkpt lat="44.38459" lon="4.50017">
        <ele>403.8</ele>
        <time>2024-03-02T10:39:22Z</time>
      </trkpt>
      <trkpt lat="44.38478" lon="4.50019">
        <ele>404.2</ele>
        <time>2024-03-02T10:39:28Z</time>
      </trkpt>
      <trkpt lat="44.38496" lon="4.50022">
        <ele>404.6</ele>
        <time>2024-03-02T10:39:34Z</time>
      </trkpt>
      <trkpt lat="44.38514" lon="4.50023">
        <ele>405</ele>
        <time>2024-03-02T10:39:40Z</time>
      </trkpt>
      <trkpt lat="44.38533" lon="4.50023">
        <ele>405.3</ele>
        <time>2024-03-02T10:39:46Z</time>
      </trkpt>
      <trkpt lat="44.38552" lon="4.50023">
        <ele>405.5</ele>
        <time>2024-03-02T10:39:52Z</time>
      </trkpt>
      <trkpt lat="44.38572" lon="4.50023">
        <ele>405.5</ele>
        <time>2024-03-02T10:39:58Z</time>
      </trkpt>
      <trkpt lat="44.3859" lon="4.50023">
        <ele>405.4</ele>
        <time>2024-03-02T10:40:03Z</time>
      </trkpt>
      <trkpt lat="44.38611" lon="4.50024">
        <ele>405.2</ele>
        <time>2024-03-02T10:40:09Z</time>
      </trkpt>
      <trkpt lat="44.3863" lon="4.50027">
        <ele>404.8</ele>
        <time>2024-03-02T10:40:15Z</time>
      </trkpt>
      <trkpt lat="44.38649" lon="4.5003">
        <ele>404.3</ele>
        <time>2024-03-02T10:40:21Z</time>
      </trkpt>
      <trkpt lat="44.38668" lon="4.5003">
        <ele>403.6</ele>
        <time>2024-03-02T10:40:27Z</time>
      </trkpt>
      <trkpt lat="44.38687" lon="4.50031">
        <ele>402.3</ele>
        <time>2024-03-02T10:40:33Z</time>
      </trkpt>
      <trkpt lat="44.38705" lon="4.50033">
        <ele>400.8</ele>
        <time>2024-03-02T10:40:38Z</time>
      </trkpt>
      <trkpt lat="44.38726" lon="4.50036">
        <ele>398.5</ele>
        <time>2024-03-02T10:40:44Z</time>
      </trkpt>
      <trkpt lat="44.38745" lon="4.50037">
        <ele>396.5</ele>
        <time>2024-03-02T10:40:49Z</time>
      </trkpt>
      <trkpt lat="44.38765" lon="4.50038">
        <ele>394.6</ele>
        <time>2024-03-02T10:40:54Z</time>
      </trkpt>
      <trkpt lat="44.38784" lon="4.50048">
        <ele>392.9</ele>
        <time>2024-03-02T10:41:00Z</time>
      </trkpt>
      <trkpt lat="44.38803" lon="4.50061">
        <ele>391.1</ele>
        <time>2024-03-02T10:41:06Z</time>
      </trkpt>
      <trkpt lat="44.38819" lon="4.50074">
        <ele>389.5</ele>
        <time>2024-03-02T10:41:11Z</time>
      </trkpt>
      <trkpt lat="44.38836" lon="4.50083">
        <ele>387.5</ele>
        <time>2024-03-02T10:41:16Z</time>
      </trkpt>
      <trkpt lat="44.38852" lon="4.50098">
        <ele>384.8</ele>
        <time>2024-03-02T10:41:21Z</time>
      </trkpt>
      <trkpt lat="44.38871" lon="4.50105">
        <ele>382.3</ele>
        <time>2024-03-02T10:41:26Z</time>
      </trkpt>
      <trkpt lat="44.38889" lon="4.50107">
        <ele>380.1</ele>
        <time>2024-03-02T10:41:31Z</time>
      </trkpt>
      <trkpt lat="44.38907" lon="4.50094">
        <ele>376.8</ele>
        <time>2024-03-02T10:41:36Z</time>
      </trkpt>
      <trkpt lat="44.38923" lon="4.50081">
        <ele>373.6</ele>
        <time>2024-03-02T10:41:41Z</time>
      </trkpt>
      <trkpt lat="44.38941" lon="4.50067">
        <ele>370.4</ele>
        <time>2024-03-02T10:41:46Z</time>
      </trkpt>
      <trkpt lat="44.38958" lon="4.50055">
        <ele>368</ele>
        <time>2024-03-02T10:41:51Z</time>
      </trkpt>
      <trkpt lat="44.38976" lon="4.5004">
        <ele>367</ele>
        <time>2024-03-02T10:41:56Z</time>
      </trkpt>
      <trkpt lat="44.38991" lon="4.50025">
        <ele>366.4</ele>
        <time>2024-03-02T10:42:01Z</time>
      </trkpt>
      <trkpt lat="44.39006" lon="4.50009">
        <ele>365.9</ele>
        <time>2024-03-02T10:42:06Z</time>
      </trkpt>
      <trkpt lat="44.39023" lon="4.49991">
        <ele>365.5</ele>
        <time>2024-03-02T10:42:12Z</time>
      </trkpt>
      <trkpt lat="44.39037" lon="4.49976">
        <ele>365</ele>
        <time>2024-03-02T10:42:17Z</time>
      </trkpt>
      <trkpt lat="44.39053" lon="4.49959">
        <ele>364.1</ele>
        <time>2024-03-02T10:42:23Z</time>
      </trkpt>
      <trkpt lat="44.3907" lon="4.49939">
        <ele>362.9</ele>
        <time>2024-03-02T10:42:29Z</time>
      </trkpt>
      <trkpt lat="44.39086" lon="4.49926">
        <ele>362.3</ele>
        <time>2024-03-02T10:42:34Z</time>
      </trkpt>
      <trkpt lat="44.39105" lon="4.49921">
        <ele>361.9</ele>
        <time>2024-03-02T10:42:39Z</time>
      </trkpt>
      <trkpt lat="44.39125" lon="4.49926">
        <ele>360.3</ele>
        <time>2024-03-02T10:42:45Z</time>
      </trkpt>
      <trkpt lat="44.39142" lon="4.49926">
        <ele>358.2</ele>
        <time>2024-03-02T10:42:51Z</time>
      </trkpt>
      <trkpt lat="44.39138" lon="4.49898">
        <ele>356.8</ele>
        <time>2024-03-02T10:42:57Z</time>
      </trkpt>
      <trkpt lat="44.39131" lon="4.49871">
        <ele>355.9</ele>
        <time>2024-03-02T10:43:04Z</time>
      </trkpt>
      <trkpt lat="44.39127" lon="4.49843">
        <ele>355.4</ele>
        <time>2024-03-02T10:43:11Z</time>
      </trkpt>
      <trkpt lat="44.39119" lon="4.49819">
        <ele>355.1</ele>
        <time>2024-03-02T10:43:17Z</time>
      </trkpt>
      <trkpt lat="44.39111" lon="4.49793">
        <ele>354.7</ele>
        <time>2024-03-02T10:43:23Z</time>
      </trkpt>
      <trkpt lat="44.391" lon="4.49772">
        <ele>354.3</ele>
        <time>2024-03-02T10:43:29Z</time>
      </trkpt>
      <trkpt lat="44.39096" lon="4.49771">
        <ele>354.1</ele>
        <time>2024-03-02T10:43:35Z</time>
      </trkpt>
      <trkpt lat="44.39094" lon="4.49773">
        <ele>354</ele>
        <time>2024-03-02T10:43:37Z</time>
      </trkpt>
      <trkpt lat="44.39093" lon="4.4977">
        <ele>353.8</ele>
        <time>2024-03-02T10:43:40Z</time>
      </trkpt>
      <trkpt lat="44.39084" lon="4.49746">
        <ele>352.9</ele>
        <time>2024-03-02T10:43:50Z</time>
      </trkpt>
      <trkpt lat="44.39072" lon="4.49724">
        <ele>352.4</ele>
        <time>2024-03-02T10:43:58Z</time>
      </trkpt>
      <trkpt lat="44.39062" lon="4.497">
        <ele>352.1</ele>
        <time>2024-03-02T10:44:06Z</time>
      </trkpt>
      <trkpt lat="44.39049" lon="4.49678">
        <ele>351.6</ele>
        <time>2024-03-02T10:44:13Z</time>
      </trkpt>
      <trkpt lat="44.39034" lon="4.49658">
        <ele>351.4</ele>
        <time>2024-03-02T10:44:20Z</time>
      </trkpt>
      <trkpt lat="44.39022" lon="4.49635">
        <ele>351.4</ele>
        <time>2024-03-02T10:44:27Z</time>
      </trkpt>
      <trkpt lat="44.39015" lon="4.49612">
        <ele>351.2</ele>
        <time>2024-03-02T10:44:33Z</time>
      </trkpt>
      <trkpt lat="44.39011" lon="4.49586">
        <ele>350.9</ele>
        <time>2024-03-02T10:44:39Z</time>
      </trkpt>
      <trkpt lat="44.39018" lon="4.49563">
        <ele>350.4</ele>
        <time>2024-03-02T10:44:45Z</time>
      </trkpt>
      <trkpt lat="44.3903" lon="4.49543">
        <ele>350</ele>
        <time>2024-03-02T10:44:50Z</time>
      </trkpt>
      <trkpt lat="44.39037" lon="4.4953">
        <ele>349.6</ele>
        <time>2024-03-02T10:44:54Z</time>
      </trkpt>
      <trkpt lat="44.39048" lon="4.49507">
        <ele>349.3</ele>
        <time>2024-03-02T10:45:00Z</time>
      </trkpt>
      <trkpt lat="44.39056" lon="4.49482">
        <ele>349.4</ele>
        <time>2024-03-02T10:45:07Z</time>
      </trkpt>
      <trkpt lat="44.39068" lon="4.49462">
        <ele>349.4</ele>
        <time>2024-03-02T10:45:13Z</time>
      </trkpt>
      <trkpt lat="44.39075" lon="4.49435">
        <ele>349</ele>
        <time>2024-03-02T10:45:19Z</time>
      </trkpt>
      <trkpt lat="44.39075" lon="4.49409">
        <ele>348.5</ele>
        <time>2024-03-02T10:45:25Z</time>
      </trkpt>
      <trkpt lat="44.39068" lon="4.49388">
        <ele>348</ele>
        <time>2024-03-02T10:45:31Z</time>
      </trkpt>
      <trkpt lat="44.39058" lon="4.49369">
        <ele>347.7</ele>
        <time>2024-03-02T10:45:38Z</time>
      </trkpt>
      <trkpt lat="44.39054" lon="4.49342">
        <ele>347.4</ele>
        <time>2024-03-02T10:45:44Z</time>
      </trkpt>
      <trkpt lat="44.39051" lon="4.49315">
        <ele>346.8</ele>
        <time>2024-03-02T10:45:50Z</time>
      </trkpt>
      <trkpt lat="44.3904" lon="4.49296">
        <ele>346.3</ele>
        <time>2024-03-02T10:45:56Z</time>
      </trkpt>
      <trkpt lat="44.39028" lon="4.49276">
        <ele>346</ele>
        <time>2024-03-02T10:46:02Z</time>
      </trkpt>
      <trkpt lat="44.39028" lon="4.49269">
        <ele>345.9</ele>
        <time>2024-03-02T10:46:07Z</time>
      </trkpt>
      <trkpt lat="44.39029" lon="4.49265">
        <ele>345.8</ele>
        <time>2024-03-02T10:46:10Z</time>
      </trkpt>
      <trkpt lat="44.39041" lon="4.49248">
        <ele>345.8</ele>
        <time>2024-03-02T10:46:18Z</time>
      </trkpt>
      <trkpt lat="44.39039" lon="4.49221">
        <ele>345.9</ele>
        <time>2024-03-02T10:46:24Z</time>
      </trkpt>
      <trkpt lat="44.39038" lon="4.49192">
        <ele>345.9</ele>
        <time>2024-03-02T10:46:30Z</time>
      </trkpt>
      <trkpt lat="44.39043" lon="4.49164">
        <ele>345.6</ele>
        <time>2024-03-02T10:46:36Z</time>
      </trkpt>
      <trkpt lat="44.39044" lon="4.4916">
        <ele>345.5</ele>
        <time>2024-03-02T10:46:37Z</time>
      </trkpt>
      <trkpt lat="44.39059" lon="4.49145">
        <ele>345.6</ele>
        <time>2024-03-02T10:46:42Z</time>
      </trkpt>
      <trkpt lat="44.39077" lon="4.49128">
        <ele>345.8</ele>
        <time>2024-03-02T10:46:48Z</time>
      </trkpt>
      <trkpt lat="44.39091" lon="4.49107">
        <ele>346.4</ele>
        <time>2024-03-02T10:46:54Z</time>
      </trkpt>
      <trkpt lat="44.39106" lon="4.4909">
        <ele>347.2</ele>
        <time>2024-03-02T10:47:01Z</time>
      </trkpt>
      <trkpt lat="44.39116" lon="4.49066">
        <ele>346.3</ele>
        <time>2024-03-02T10:47:08Z</time>
      </trkpt>
      <trkpt lat="44.39124" lon="4.49042">
        <ele>344.2</ele>
        <time>2024-03-02T10:47:14Z</time>
      </trkpt>
      <trkpt lat="44.39123" lon="4.49018">
        <ele>341.7</ele>
        <time>2024-03-02T10:47:26Z</time>
      </trkpt>
      <trkpt lat="44.39118" lon="4.49017">
        <ele>341.3</ele>
        <time>2024-03-02T10:47:29Z</time>
      </trkpt>
      <trkpt lat="44.39114" lon="4.49014">
        <ele>341.2</ele>
        <time>2024-03-02T10:47:31Z</time>
      </trkpt>
      <trkpt lat="44.39105" lon="4.48989">
        <ele>341.4</ele>
        <time>2024-03-02T10:47:38Z</time>
      </trkpt>
      <trkpt lat="44.39092" lon="4.48966">
        <ele>341.3</ele>
        <time>2024-03-02T10:47:44Z</time>
      </trkpt>
      <trkpt lat="44.39082" lon="4.48945">
        <ele>341.1</ele>
        <time>2024-03-02T10:47:49Z</time>
      </trkpt>
      <trkpt lat="44.39065" lon="4.48933">
        <ele>341.3</ele>
        <time>2024-03-02T10:47:55Z</time>
      </trkpt>
      <trkpt lat="44.39055" lon="4.48912">
        <ele>341.8</ele>
        <time>2024-03-02T10:48:01Z</time>
      </trkpt>
      <trkpt lat="44.39043" lon="4.48891">
        <ele>342.1</ele>
        <time>2024-03-02T10:48:08Z</time>
      </trkpt>
      <trkpt lat="44.39038" lon="4.48864">
        <ele>340.8</ele>
        <time>2024-03-02T10:48:15Z</time>
      </trkpt>
      <trkpt lat="44.39048" lon="4.48843">
        <ele>338.7</ele>
        <time>2024-03-02T10:48:22Z</time>
      </trkpt>
      <trkpt lat="44.3905" lon="4.48842">
        <ele>338.5</ele>
        <time>2024-03-02T10:48:23Z</time>
      </trkpt>
      <trkpt lat="44.39053" lon="4.48844">
        <ele>338.3</ele>
        <time>2024-03-02T10:48:25Z</time>
      </trkpt>
      <trkpt lat="44.39058" lon="4.4885">
        <ele>338</ele>
        <time>2024-03-02T10:48:29Z</time>
      </trkpt>
      <trkpt lat="44.39077" lon="4.48849">
        <ele>338.8</ele>
        <time>2024-03-02T10:48:36Z</time>
      </trkpt>
      <trkpt lat="44.39094" lon="4.48834">
        <ele>339.9</ele>
        <time>2024-03-02T10:48:44Z</time>
      </trkpt>
      <trkpt lat="44.39109" lon="4.48819">
        <ele>339.9</ele>
        <time>2024-03-02T10:48:52Z</time>
      </trkpt>
      <trkpt lat="44.39122" lon="4.48801">
        <ele>338.3</ele>
        <time>2024-03-02T10:48:57Z</time>
      </trkpt>
      <trkpt lat="44.39137" lon="4.48781">
        <ele>336.4</ele>
        <time>2024-03-02T10:49:02Z</time>
      </trkpt>
      <trkpt lat="44.39152" lon="4.48763">
        <ele>334.5</ele>
        <time>2024-03-02T10:49:07Z</time>
      </trkpt>
      <trkpt lat="44.3915" lon="4.4874">
        <ele>333.3</ele>
        <time>2024-03-02T10:49:16Z</time>
      </trkpt>
      <trkpt lat="44.39147" lon="4.48715">
        <ele>332.6</ele>
        <time>2024-03-02T10:49:22Z</time>
      </trkpt>
      <trkpt lat="44.39151" lon="4.48689">
        <ele>331.9</ele>
        <time>2024-03-02T10:49:28Z</time>
      </trkpt>
      <trkpt lat="44.39151" lon="4.48661">
        <ele>330.9</ele>
        <time>2024-03-02T10:49:34Z</time>
      </trkpt>
      <trkpt lat="44.39149" lon="4.48635">
        <ele>330.1</ele>
        <time>2024-03-02T10:49:40Z</time>
      </trkpt>
      <trkpt lat="44.39149" lon="4.4861">
        <ele>329.7</ele>
        <time>2024-03-02T10:49:46Z</time>
      </trkpt>
      <trkpt lat="44.39145" lon="4.48583">
        <ele>329.3</ele>
        <time>2024-03-02T10:49:52Z</time>
      </trkpt>
      <trkpt lat="44.39136" lon="4.48561">
        <ele>328.5</ele>
        <time>2024-03-02T10:49:59Z</time>
      </trkpt>
      <trkpt lat="44.3915" lon="4.48542">
        <ele>326.5</ele>
        <time>2024-03-02T10:50:06Z</time>
      </trkpt>
      <trkpt lat="44.39152" lon="4.48535">
        <ele>325.9</ele>
        <time>2024-03-02T10:50:08Z</time>
      </trkpt>
      <trkpt lat="44.39155" lon="4.48508">
        <ele>324.8</ele>
        <time>2024-03-02T10:50:14Z</time>
      </trkpt>
      <trkpt lat="44.39157" lon="4.48482">
        <ele>324.4</ele>
        <time>2024-03-02T10:50:21Z</time>
      </trkpt>
      <trkpt lat="44.39153" lon="4.48454">
        <ele>323.7</ele>
        <time>2024-03-02T10:50:27Z</time>
      </trkpt>
      <trkpt lat="44.3915" lon="4.48425">
        <ele>323.3</ele>
        <time>2024-03-02T10:50:33Z</time>
      </trkpt>
      <trkpt lat="44.39139" lon="4.48402">
        <ele>322.9</ele>
        <time>2024-03-02T10:50:40Z</time>
      </trkpt>
      <trkpt lat="44.39127" lon="4.48378">
        <ele>322.4</ele>
        <time>2024-03-02T10:50:46Z</time>
      </trkpt>
      <trkpt lat="44.39112" lon="4.48359">
        <ele>321.8</ele>
        <time>2024-03-02T10:50:52Z</time>
      </trkpt>
      <trkpt lat="44.39096" lon="4.48346">
        <ele>321.3</ele>
        <time>2024-03-02T10:50:57Z</time>
      </trkpt>
      <trkpt lat="44.39084" lon="4.48325">
        <ele>320.9</ele>
        <time>2024-03-02T10:51:03Z</time>
      </trkpt>
      <trkpt lat="44.39072" lon="4.48306">
        <ele>320.5</ele>
        <time>2024-03-02T10:51:09Z</time>
      </trkpt>
      <trkpt lat="44.39067" lon="4.48294">
        <ele>320.4</ele>
        <time>2024-03-02T10:51:14Z</time>
      </trkpt>
      <trkpt lat="44.39073" lon="4.48274">
        <ele>320.6</ele>
        <time>2024-03-02T10:51:23Z</time>
      </trkpt>
      <trkpt lat="44.39064" lon="4.48248">
        <ele>321</ele>
        <time>2024-03-02T10:51:29Z</time>
      </trkpt>
      <trkpt lat="44.39061" lon="4.4822">
        <ele>320.8</ele>
        <time>2024-03-02T10:51:35Z</time>
      </trkpt>
      <trkpt lat="44.39066" lon="4.48195">
        <ele>320.6</ele>
        <time>2024-03-02T10:51:41Z</time>
      </trkpt>
      <trkpt lat="44.39066" lon="4.48184">
        <ele>320.3</ele>
        <time>2024-03-02T10:51:44Z</time>
      </trkpt>
      <trkpt lat="44.39054" lon="4.48173">
        <ele>319.7</ele>
        <time>2024-03-02T10:51:52Z</time>
      </trkpt>
      <trkpt lat="44.39052" lon="4.48172">
        <ele>319.7</ele>
        <time>2024-03-02T10:51:55Z</time>
      </trkpt>
      <trkpt lat="44.39035" lon="4.48158">
        <ele>320.3</ele>
        <time>2024-03-02T10:52:04Z</time>
      </trkpt>
      <trkpt lat="44.39025" lon="4.48135">
        <ele>320.1</ele>
        <time>2024-03-02T10:52:10Z</time>
      </trkpt>
      <trkpt lat="44.3901" lon="4.48117">
        <ele>318.9</ele>
        <time>2024-03-02T10:52:17Z</time>
      </trkpt>
      <trkpt lat="44.39011" lon="4.48114">
        <ele>318.7</ele>
        <time>2024-03-02T10:52:19Z</time>
      </trkpt>
      <trkpt lat="44.39013" lon="4.48089">
        <ele>317.9</ele>
        <time>2024-03-02T10:52:27Z</time>
      </trkpt>
      <trkpt lat="44.39011" lon="4.48058">
        <ele>317.9</ele>
        <time>2024-03-02T10:52:34Z</time>
      </trkpt>
      <trkpt lat="44.39006" lon="4.48033">
        <ele>317.7</ele>
        <time>2024-03-02T10:52:39Z</time>
      </trkpt>
      <trkpt lat="44.39005" lon="4.48008">
        <ele>317.4</ele>
        <time>2024-03-02T10:52:44Z</time>
      </trkpt>
      <trkpt lat="44.39" lon="4.47981">
        <ele>316.7</ele>
        <time>2024-03-02T10:52:50Z</time>
      </trkpt>
      <trkpt lat="44.38993" lon="4.47975">
        <ele>316.4</ele>
        <time>2024-03-02T10:52:54Z</time>
      </trkpt>
      <trkpt lat="44.38974" lon="4.47972">
        <ele>316.5</ele>
        <time>2024-03-02T10:53:03Z</time>
      </trkpt>
      <trkpt lat="44.38972" lon="4.47968">
        <ele>316.6</ele>
        <time>2024-03-02T10:53:05Z</time>
      </trkpt>
      <trkpt lat="44.38975" lon="4.47943">
        <ele>316.7</ele>
        <time>2024-03-02T10:53:11Z</time>
      </trkpt>
      <trkpt lat="44.38991" lon="4.47928">
        <ele>315.6</ele>
        <time>2024-03-02T10:53:19Z</time>
      </trkpt>
      <trkpt lat="44.38998" lon="4.47914">
        <ele>315.4</ele>
        <time>2024-03-02T10:53:24Z</time>
      </trkpt>
      <trkpt lat="44.39004" lon="4.47891">
        <ele>315</ele>
        <time>2024-03-02T10:53:29Z</time>
      </trkpt>
      <trkpt lat="44.39023" lon="4.47879">
        <ele>314</ele>
        <time>2024-03-02T10:53:36Z</time>
      </trkpt>
      <trkpt lat="44.39028" lon="4.47869">
        <ele>313.7</ele>
        <time>2024-03-02T10:53:42Z</time>
      </trkpt>
      <trkpt lat="44.39025" lon="4.47866">
        <ele>313.6</ele>
        <time>2024-03-02T10:53:44Z</time>
      </trkpt>
      <trkpt lat="44.39017" lon="4.47858">
        <ele>313.3</ele>
        <time>2024-03-02T10:53:50Z</time>
      </trkpt>
      <trkpt lat="44.39017" lon="4.47831">
        <ele>312.7</ele>
        <time>2024-03-02T10:53:59Z</time>
      </trkpt>
      <trkpt lat="44.39003" lon="4.47816">
        <ele>312.1</ele>
        <time>2024-03-02T10:54:06Z</time>
      </trkpt>
      <trkpt lat="44.38992" lon="4.47793">
        <ele>311.6</ele>
        <time>2024-03-02T10:54:12Z</time>
      </trkpt>
      <trkpt lat="44.38985" lon="4.47768">
        <ele>311.7</ele>
        <time>2024-03-02T10:54:19Z</time>
      </trkpt>
      <trkpt lat="44.38977" lon="4.47744">
        <ele>311.9</ele>
        <time>2024-03-02T10:54:25Z</time>
      </trkpt>
      <trkpt lat="44.38972" lon="4.47718">
        <ele>311.6</ele>
        <time>2024-03-02T10:54:31Z</time>
      </trkpt>
      <trkpt lat="44.3897" lon="4.4769">
        <ele>311</ele>
        <time>2024-03-02T10:54:37Z</time>
      </trkpt>
      <trkpt lat="44.38968" lon="4.4766">
        <ele>310</ele>
        <time>2024-03-02T10:54:43Z</time>
      </trkpt>
      <trkpt lat="44.3896" lon="4.47644">
        <ele>308.9</ele>
        <time>2024-03-02T10:54:50Z</time>
      </trkpt>
      <trkpt lat="44.38954" lon="4.4764">
        <ele>308.4</ele>
        <time>2024-03-02T10:54:54Z</time>
      </trkpt>
      <trkpt lat="44.3896" lon="4.47617">
        <ele>308.2</ele>
        <time>2024-03-02T10:55:02Z</time>
      </trkpt>
      <trkpt lat="44.38961" lon="4.47588">
        <ele>308.5</ele>
        <time>2024-03-02T10:55:08Z</time>
      </trkpt>
      <trkpt lat="44.38967" lon="4.47563">
        <ele>308.2</ele>
        <time>2024-03-02T10:55:14Z</time>
      </trkpt>
      <trkpt lat="44.38971" lon="4.47554">
        <ele>308.1</ele>
        <time>2024-03-02T10:55:16Z</time>
      </trkpt>
      <trkpt lat="44.38989" lon="4.47542">
        <ele>308.7</ele>
        <time>2024-03-02T10:55:22Z</time>
      </trkpt>
      <trkpt lat="44.39006" lon="4.47532">
        <ele>309.4</ele>
        <time>2024-03-02T10:55:28Z</time>
      </trkpt>
      <trkpt lat="44.39025" lon="4.47522">
        <ele>309</ele>
        <time>2024-03-02T10:55:34Z</time>
      </trkpt>
      <trkpt lat="44.39043" lon="4.47517">
        <ele>308.4</ele>
        <time>2024-03-02T10:55:39Z</time>
      </trkpt>
      <trkpt lat="44.39061" lon="4.47513">
        <ele>308.2</ele>
        <time>2024-03-02T10:55:45Z</time>
      </trkpt>
      <trkpt lat="44.39079" lon="4.47506">
        <ele>307.7</ele>
        <time>2024-03-02T10:55:52Z</time>
      </trkpt>
      <trkpt lat="44.39098" lon="4.47501">
        <ele>306.9</ele>
        <time>2024-03-02T10:55:58Z</time>
      </trkpt>
      <trkpt lat="44.39115" lon="4.47497">
        <ele>305.9</ele>
        <time>2024-03-02T10:56:05Z</time>
      </trkpt>
      <trkpt lat="44.39132" lon="4.47479">
        <ele>303.8</ele>
        <time>2024-03-02T10:56:11Z</time>
      </trkpt>
      <trkpt lat="44.39136" lon="4.47477">
        <ele>303.5</ele>
        <time>2024-03-02T10:56:12Z</time>
      </trkpt>
      <trkpt lat="44.39156" lon="4.47469">
        <ele>302.3</ele>
        <time>2024-03-02T10:56:18Z</time>
      </trkpt>
      <trkpt lat="44.39171" lon="4.47451">
        <ele>301.7</ele>
        <time>2024-03-02T10:56:25Z</time>
      </trkpt>
      <trkpt lat="44.39188" lon="4.47442">
        <ele>301.2</ele>
        <time>2024-03-02T10:56:31Z</time>
      </trkpt>
      <trkpt lat="44.39202" lon="4.47423">
        <ele>300.6</ele>
        <time>2024-03-02T10:56:36Z</time>
      </trkpt>
      <trkpt lat="44.39212" lon="4.47415">
        <ele>300.1</ele>
        <time>2024-03-02T10:56:40Z</time>
      </trkpt>
      <trkpt lat="44.3923" lon="4.4741">
        <ele>300</ele>
        <time>2024-03-02T10:56:47Z</time>
      </trkpt>
      <trkpt lat="44.39248" lon="4.47404">
        <ele>301</ele>
        <time>2024-03-02T10:56:55Z</time>
      </trkpt>
      <trkpt lat="44.39267" lon="4.47397">
        <ele>301.4</ele>
        <time>2024-03-02T10:57:02Z</time>
      </trkpt>
      <trkpt lat="44.39285" lon="4.47402">
        <ele>302.5</ele>
        <time>2024-03-02T10:57:09Z</time>
      </trkpt>
      <trkpt lat="44.39302" lon="4.47411">
        <ele>304.8</ele>
        <time>2024-03-02T10:57:17Z</time>
      </trkpt>
      <trkpt lat="44.39321" lon="4.47414">
        <ele>306.8</ele>
        <time>2024-03-02T10:57:25Z</time>
      </trkpt>
      <trkpt lat="44.39339" lon="4.47421">
        <ele>308.9</ele>
        <time>2024-03-02T10:57:33Z</time>
      </trkpt>
      <trkpt lat="44.39358" lon="4.47425">
        <ele>311.3</ele>
        <time>2024-03-02T10:57:42Z</time>
      </trkpt>
      <trkpt lat="44.39376" lon="4.4743">
        <ele>314.3</ele>
        <time>2024-03-02T10:57:51Z</time>
      </trkpt>
      <trkpt lat="44.39393" lon="4.47441">
        <ele>316.4</ele>
        <time>2024-03-02T10:57:59Z</time>
      </trkpt>
      <trkpt lat="44.39393" lon="4.47467">
        <ele>318.1</ele>
        <time>2024-03-02T10:58:07Z</time>
      </trkpt>
      <trkpt lat="44.39387" lon="4.47493">
        <ele>320.3</ele>
        <time>2024-03-02T10:58:16Z</time>
      </trkpt>
      <trkpt lat="44.39379" lon="4.47516">
        <ele>322.8</ele>
        <time>2024-03-02T10:58:25Z</time>
      </trkpt>
      <trkpt lat="44.39371" lon="4.47541">
        <ele>325.3</ele>
        <time>2024-03-02T10:58:34Z</time>
      </trkpt>
      <trkpt lat="44.39366" lon="4.47568">
        <ele>328.1</ele>
        <time>2024-03-02T10:58:44Z</time>
      </trkpt>
      <trkpt lat="44.39367" lon="4.47596">
        <ele>331.2</ele>
        <time>2024-03-02T10:58:54Z</time>
      </trkpt>
      <trkpt lat="44.39365" lon="4.47623">
        <ele>334</ele>
        <time>2024-03-02T10:59:03Z</time>
      </trkpt>
      <trkpt lat="44.39373" lon="4.47647">
        <ele>336.7</ele>
        <time>2024-03-02T10:59:11Z</time>
      </trkpt>
      <trkpt lat="44.39378" lon="4.47673">
        <ele>338.8</ele>
        <time>2024-03-02T10:59:20Z</time>
      </trkpt>
      <trkpt lat="44.3938" lon="4.47701">
        <ele>341.1</ele>
        <time>2024-03-02T10:59:29Z</time>
      </trkpt>
      <trkpt lat="44.39379" lon="4.47706">
        <ele>341.6</ele>
        <time>2024-03-02T10:59:31Z</time>
      </trkpt>
      <trkpt lat="44.39377" lon="4.47709">
        <ele>342</ele>
        <time>2024-03-02T10:59:33Z</time>
      </trkpt>
      <trkpt lat="44.39366" lon="4.47688">
        <ele>343.8</ele>
        <time>2024-03-02T10:59:40Z</time>
      </trkpt>
      <trkpt lat="44.39356" lon="4.47664">
        <ele>345.5</ele>
        <time>2024-03-02T10:59:47Z</time>
      </trkpt>
      <trkpt lat="44.39347" lon="4.47642">
        <ele>347.3</ele>
        <time>2024-03-02T10:59:55Z</time>
      </trkpt>
      <trkpt lat="44.39336" lon="4.4762">
        <ele>349.4</ele>
        <time>2024-03-02T11:00:03Z</time>
      </trkpt>
      <trkpt lat="44.3933" lon="4.4761">
        <ele>350.6</ele>
        <time>2024-03-02T11:00:08Z</time>
      </trkpt>
      <trkpt lat="44.39333" lon="4.47635">
        <ele>352.5</ele>
        <time>2024-03-02T11:00:16Z</time>
      </trkpt>
      <trkpt lat="44.39336" lon="4.4766">
        <ele>354</ele>
        <time>2024-03-02T11:00:24Z</time>
      </trkpt>
      <trkpt lat="44.39335" lon="4.47686">
        <ele>355.7</ele>
        <time>2024-03-02T11:00:32Z</time>
      </trkpt>
      <trkpt lat="44.39342" lon="4.47714">
        <ele>357.7</ele>
        <time>2024-03-02T11:00:40Z</time>
      </trkpt>
      <trkpt lat="44.39351" lon="4.47739">
        <ele>359.3</ele>
        <time>2024-03-02T11:00:47Z</time>
      </trkpt>
      <trkpt lat="44.39358" lon="4.47763">
        <ele>360.7</ele>
        <time>2024-03-02T11:00:53Z</time>
      </trkpt>
      <trkpt lat="44.39368" lon="4.47788">
        <ele>361.7</ele>
        <time>2024-03-02T11:01:01Z</time>
      </trkpt>
      <trkpt lat="44.3937" lon="4.47791">
        <ele>361.7</ele>
        <time>2024-03-02T11:01:03Z</time>
      </trkpt>
      <trkpt lat="44.39389" lon="4.47786">
        <ele>361.9</ele>
        <time>2024-03-02T11:01:09Z</time>
      </trkpt>
      <trkpt lat="44.39407" lon="4.47783">
        <ele>362.2</ele>
        <time>2024-03-02T11:01:15Z</time>
      </trkpt>
      <trkpt lat="44.39428" lon="4.4778">
        <ele>362</ele>
        <time>2024-03-02T11:01:22Z</time>
      </trkpt>
      <trkpt lat="44.39447" lon="4.47781">
        <ele>361.5</ele>
        <time>2024-03-02T11:01:27Z</time>
      </trkpt>
      <trkpt lat="44.39465" lon="4.47777">
        <ele>361.5</ele>
        <time>2024-03-02T11:01:32Z</time>
      </trkpt>
      <trkpt lat="44.39484" lon="4.47781">
        <ele>362.3</ele>
        <time>2024-03-02T11:01:38Z</time>
      </trkpt>
      <trkpt lat="44.39491" lon="4.47781">
        <ele>362.9</ele>
        <time>2024-03-02T11:01:41Z</time>
      </trkpt>
      <trkpt lat="44.39505" lon="4.47761">
        <ele>364.4</ele>
        <time>2024-03-02T11:01:48Z</time>
      </trkpt>
      <trkpt lat="44.39519" lon="4.47741">
        <ele>365.1</ele>
        <time>2024-03-02T11:01:54Z</time>
      </trkpt>
      <trkpt lat="44.39533" lon="4.47724">
        <ele>365.1</ele>
        <time>2024-03-02T11:01:59Z</time>
      </trkpt>
      <trkpt lat="44.39547" lon="4.47708">
        <ele>364</ele>
        <time>2024-03-02T11:02:05Z</time>
      </trkpt>
      <trkpt lat="44.39561" lon="4.47691">
        <ele>362.1</ele>
        <time>2024-03-02T11:02:11Z</time>
      </trkpt>
      <trkpt lat="44.39579" lon="4.4769">
        <ele>359.7</ele>
        <time>2024-03-02T11:02:17Z</time>
      </trkpt>
      <trkpt lat="44.39594" lon="4.47707">
        <ele>357.9</ele>
        <time>2024-03-02T11:02:22Z</time>
      </trkpt>
      <trkpt lat="44.39609" lon="4.47726">
        <ele>356.2</ele>
        <time>2024-03-02T11:02:28Z</time>
      </trkpt>
      <trkpt lat="44.39624" lon="4.47744">
        <ele>354.8</ele>
        <time>2024-03-02T11:02:34Z</time>
      </trkpt>
      <trkpt lat="44.39637" lon="4.47762">
        <ele>353.7</ele>
        <time>2024-03-02T11:02:39Z</time>
      </trkpt>
      <trkpt lat="44.39653" lon="4.47775">
        <ele>352.4</ele>
        <time>2024-03-02T11:02:44Z</time>
      </trkpt>
      <trkpt lat="44.39671" lon="4.47779">
        <ele>350.1</ele>
        <time>2024-03-02T11:02:51Z</time>
      </trkpt>
      <trkpt lat="44.39691" lon="4.47775">
        <ele>346</ele>
        <time>2024-03-02T11:02:57Z</time>
      </trkpt>
      <trkpt lat="44.39711" lon="4.47769">
        <ele>341.3</ele>
        <time>2024-03-02T11:03:04Z</time>
      </trkpt>
      <trkpt lat="44.39731" lon="4.4777">
        <ele>337.4</ele>
        <time>2024-03-02T11:03:10Z</time>
      </trkpt>
      <trkpt lat="44.3975" lon="4.47774">
        <ele>333.8</ele>
        <time>2024-03-02T11:03:16Z</time>
      </trkpt>
      <trkpt lat="44.39769" lon="4.47782">
        <ele>329.8</ele>
        <time>2024-03-02T11:03:22Z</time>
      </trkpt>
      <trkpt lat="44.39776" lon="4.47788">
        <ele>328</ele>
        <time>2024-03-02T11:03:26Z</time>
      </trkpt>
      <trkpt lat="44.39771" lon="4.47761">
        <ele>323.6</ele>
        <time>2024-03-02T11:03:33Z</time>
      </trkpt>
      <trkpt lat="44.39762" lon="4.47735">
        <ele>321.3</ele>
        <time>2024-03-02T11:03:38Z</time>
      </trkpt>
      <trkpt lat="44.39763" lon="4.47709">
        <ele>320.8</ele>
        <time>2024-03-02T11:03:44Z</time>
      </trkpt>
      <trkpt lat="44.39775" lon="4.47686">
        <ele>319.6</ele>
        <time>2024-03-02T11:03:50Z</time>
      </trkpt>
      <trkpt lat="44.39777" lon="4.47663">
        <ele>319.5</ele>
        <time>2024-03-02T11:03:56Z</time>
      </trkpt>
      <trkpt lat="44.39762" lon="4.47648">
        <ele>321</ele>
        <time>2024-03-02T11:04:04Z</time>
      </trkpt>
      <trkpt lat="44.39744" lon="4.47642">
        <ele>323.4</ele>
        <time>2024-03-02T11:04:12Z</time>
      </trkpt>
      <trkpt lat="44.39731" lon="4.47626">
        <ele>325.7</ele>
        <time>2024-03-02T11:04:20Z</time>
      </trkpt>
      <trkpt lat="44.39718" lon="4.47606">
        <ele>327.9</ele>
        <time>2024-03-02T11:04:29Z</time>
      </trkpt>
      <trkpt lat="44.39708" lon="4.47584">
        <ele>329.6</ele>
        <time>2024-03-02T11:04:37Z</time>
      </trkpt>
      <trkpt lat="44.39703" lon="4.47556">
        <ele>330.9</ele>
        <time>2024-03-02T11:04:44Z</time>
      </trkpt>
      <trkpt lat="44.39698" lon="4.47529">
        <ele>332.5</ele>
        <time>2024-03-02T11:04:52Z</time>
      </trkpt>
      <trkpt lat="44.39693" lon="4.47503">
        <ele>334.2</ele>
        <time>2024-03-02T11:04:59Z</time>
      </trkpt>
      <trkpt lat="44.39691" lon="4.47474">
        <ele>335.9</ele>
        <time>2024-03-02T11:05:07Z</time>
      </trkpt>
      <trkpt lat="44.39688" lon="4.4745">
        <ele>337.3</ele>
        <time>2024-03-02T11:05:14Z</time>
      </trkpt>
      <trkpt lat="44.39684" lon="4.47424">
        <ele>339.2</ele>
        <time>2024-03-02T11:05:22Z</time>
      </trkpt>
      <trkpt lat="44.39678" lon="4.47398">
        <ele>341.5</ele>
        <time>2024-03-02T11:05:31Z</time>
      </trkpt>
      <trkpt lat="44.39671" lon="4.47372">
        <ele>343.4</ele>
        <time>2024-03-02T11:05:40Z</time>
      </trkpt>
      <trkpt lat="44.39669" lon="4.47345">
        <ele>344.7</ele>
        <time>2024-03-02T11:05:48Z</time>
      </trkpt>
      <trkpt lat="44.39664" lon="4.47319">
        <ele>345.3</ele>
        <time>2024-03-02T11:05:55Z</time>
      </trkpt>
      <trkpt lat="44.3966" lon="4.47291">
        <ele>345.3</ele>
        <time>2024-03-02T11:06:02Z</time>
      </trkpt>
      <trkpt lat="44.39656" lon="4.47266">
        <ele>345.6</ele>
        <time>2024-03-02T11:06:08Z</time>
      </trkpt>
      <trkpt lat="44.39651" lon="4.47241">
        <ele>346.5</ele>
        <time>2024-03-02T11:06:15Z</time>
      </trkpt>
      <trkpt lat="44.39653" lon="4.47214">
        <ele>347.6</ele>
        <time>2024-03-02T11:06:22Z</time>
      </trkpt>
      <trkpt lat="44.39652" lon="4.47186">
        <ele>348.4</ele>
        <time>2024-03-02T11:06:29Z</time>
      </trkpt>
      <trkpt lat="44.39656" lon="4.4716">
        <ele>348.7</ele>
        <time>2024-03-02T11:06:36Z</time>
      </trkpt>
      <trkpt lat="44.39659" lon="4.47134">
        <ele>348.8</ele>
        <time>2024-03-02T11:06:42Z</time>
      </trkpt>
      <trkpt lat="44.39661" lon="4.47105">
        <ele>349.2</ele>
        <time>2024-03-02T11:06:49Z</time>
      </trkpt>
      <trkpt lat="44.39659" lon="4.47079">
        <ele>349.4</ele>
        <time>2024-03-02T11:06:55Z</time>
      </trkpt>
      <trkpt lat="44.39657" lon="4.47053">
        <ele>349.3</ele>
        <time>2024-03-02T11:07:01Z</time>
      </trkpt>
      <trkpt lat="44.39653" lon="4.47026">
        <ele>348.3</ele>
        <time>2024-03-02T11:07:08Z</time>
      </trkpt>
      <trkpt lat="44.39653" lon="4.47">
        <ele>346.4</ele>
        <time>2024-03-02T11:07:15Z</time>
      </trkpt>
      <trkpt lat="44.39651" lon="4.46972">
        <ele>343.8</ele>
        <time>2024-03-02T11:07:21Z</time>
      </trkpt>
      <trkpt lat="44.39663" lon="4.4695">
        <ele>341.3</ele>
        <time>2024-03-02T11:07:27Z</time>
      </trkpt>
      <trkpt lat="44.3968" lon="4.46942">
        <ele>338.8</ele>
        <time>2024-03-02T11:07:32Z</time>
      </trkpt>
      <trkpt lat="44.39698" lon="4.46941">
        <ele>336.2</ele>
        <time>2024-03-02T11:07:37Z</time>
      </trkpt>
      <trkpt lat="44.39716" lon="4.46937">
        <ele>333.6</ele>
        <time>2024-03-02T11:07:42Z</time>
      </trkpt>
      <trkpt lat="44.39735" lon="4.46935">
        <ele>330.9</ele>
        <time>2024-03-02T11:07:47Z</time>
      </trkpt>
      <trkpt lat="44.39757" lon="4.46934">
        <ele>328.4</ele>
        <time>2024-03-02T11:07:53Z</time>
      </trkpt>
      <trkpt lat="44.39776" lon="4.46929">
        <ele>326.5</ele>
        <time>2024-03-02T11:07:59Z</time>
      </trkpt>
      <trkpt lat="44.39779" lon="4.46922">
        <ele>326</ele>
        <time>2024-03-02T11:08:02Z</time>
      </trkpt>
      <trkpt lat="44.39767" lon="4.46903">
        <ele>325.3</ele>
        <time>2024-03-02T11:08:08Z</time>
      </trkpt>
      <trkpt lat="44.39751" lon="4.46887">
        <ele>326</ele>
        <time>2024-03-02T11:08:15Z</time>
      </trkpt>
      <trkpt lat="44.39735" lon="4.46871">
        <ele>327.3</ele>
        <time>2024-03-02T11:08:22Z</time>
      </trkpt>
      <trkpt lat="44.3972" lon="4.46852">
        <ele>328.3</ele>
        <time>2024-03-02T11:08:30Z</time>
      </trkpt>
      <trkpt lat="44.39706" lon="4.4683">
        <ele>328.7</ele>
        <time>2024-03-02T11:08:37Z</time>
      </trkpt>
      <trkpt lat="44.39695" lon="4.46809">
        <ele>329.2</ele>
        <time>2024-03-02T11:08:43Z</time>
      </trkpt>
      <trkpt lat="44.39682" lon="4.4679">
        <ele>330.2</ele>
        <time>2024-03-02T11:08:50Z</time>
      </trkpt>
      <trkpt lat="44.39671" lon="4.46768">
        <ele>331.9</ele>
        <time>2024-03-02T11:08:58Z</time>
      </trkpt>
      <trkpt lat="44.39665" lon="4.46742">
        <ele>333.4</ele>
        <time>2024-03-02T11:09:06Z</time>
      </trkpt>
      <trkpt lat="44.39656" lon="4.46717">
        <ele>334.5</ele>
        <time>2024-03-02T11:09:13Z</time>
      </trkpt>
      <trkpt lat="44.39648" lon="4.46691">
        <ele>335.3</ele>
        <time>2024-03-02T11:09:20Z</time>
      </trkpt>
      <trkpt lat="44.39639" lon="4.46666">
        <ele>336.4</ele>
        <time>2024-03-02T11:09:27Z</time>
      </trkpt>
      <trkpt lat="44.39633" lon="4.46642">
        <ele>337.8</ele>
        <time>2024-03-02T11:09:34Z</time>
      </trkpt>
      <trkpt lat="44.39626" lon="4.46619">
        <ele>339.7</ele>
        <time>2024-03-02T11:09:42Z</time>
      </trkpt>
      <trkpt lat="44.39619" lon="4.46595">
        <ele>341.7</ele>
        <time>2024-03-02T11:09:50Z</time>
      </trkpt>
      <trkpt lat="44.39611" lon="4.4657">
        <ele>343.7</ele>
        <time>2024-03-02T11:09:59Z</time>
      </trkpt>
      <trkpt lat="44.39605" lon="4.46546">
        <ele>345.5</ele>
        <time>2024-03-02T11:10:08Z</time>
      </trkpt>
      <trkpt lat="44.39597" lon="4.4652">
        <ele>347</ele>
        <time>2024-03-02T11:10:17Z</time>
      </trkpt>
      <trkpt lat="44.39591" lon="4.46494">
        <ele>348.4</ele>
        <time>2024-03-02T11:10:24Z</time>
      </trkpt>
      <trkpt lat="44.39582" lon="4.46471">
        <ele>349.9</ele>
        <time>2024-03-02T11:10:31Z</time>
      </trkpt>
      <trkpt lat="44.39574" lon="4.46446">
        <ele>351.9</ele>
        <time>2024-03-02T11:10:39Z</time>
      </trkpt>
      <trkpt lat="44.39566" lon="4.46424">
        <ele>354.3</ele>
        <time>2024-03-02T11:10:48Z</time>
      </trkpt>
      <trkpt lat="44.39552" lon="4.46404">
        <ele>357.1</ele>
        <time>2024-03-02T11:10:58Z</time>
      </trkpt>
      <trkpt lat="44.39543" lon="4.46382">
        <ele>359.7</ele>
        <time>2024-03-02T11:11:07Z</time>
      </trkpt>
      <trkpt lat="44.39535" lon="4.46357">
        <ele>362.4</ele>
        <time>2024-03-02T11:11:16Z</time>
      </trkpt>
      <trkpt lat="44.39532" lon="4.46332">
        <ele>364.8</ele>
        <time>2024-03-02T11:11:25Z</time>
      </trkpt>
      <trkpt lat="44.39532" lon="4.46304">
        <ele>366.6</ele>
        <time>2024-03-02T11:11:34Z</time>
      </trkpt>
      <trkpt lat="44.39531" lon="4.46276">
        <ele>368.4</ele>
        <time>2024-03-02T11:11:42Z</time>
      </trkpt>
      <trkpt lat="44.39532" lon="4.46248">
        <ele>370.7</ele>
        <time>2024-03-02T11:11:50Z</time>
      </trkpt>
      <trkpt lat="44.39532" lon="4.46223">
        <ele>373.2</ele>
        <time>2024-03-02T11:11:59Z</time>
      </trkpt>
      <trkpt lat="44.39531" lon="4.46196">
        <ele>375.7</ele>
        <time>2024-03-02T11:12:09Z</time>
      </trkpt>
      <trkpt lat="44.39534" lon="4.4617">
        <ele>377.5</ele>
        <time>2024-03-02T11:12:17Z</time>
      </trkpt>
      <trkpt lat="44.39549" lon="4.4615">
        <ele>379.1</ele>
        <time>2024-03-02T11:12:25Z</time>
      </trkpt>
      <trkpt lat="44.39562" lon="4.46131">
        <ele>380.2</ele>
        <time>2024-03-02T11:12:32Z</time>
      </trkpt>
      <trkpt lat="44.39576" lon="4.46111">
        <ele>381.4</ele>
        <time>2024-03-02T11:12:40Z</time>
      </trkpt>
      <trkpt lat="44.39589" lon="4.46093">
        <ele>382.4</ele>
        <time>2024-03-02T11:12:47Z</time>
      </trkpt>
      <trkpt lat="44.39603" lon="4.46071">
        <ele>383.4</ele>
        <time>2024-03-02T11:12:53Z</time>
      </trkpt>
      <trkpt lat="44.39617" lon="4.46051">
        <ele>384.3</ele>
        <time>2024-03-02T11:12:59Z</time>
      </trkpt>
      <trkpt lat="44.39629" lon="4.46031">
        <ele>385.1</ele>
        <time>2024-03-02T11:13:05Z</time>
      </trkpt>
      <trkpt lat="44.39641" lon="4.46011">
        <ele>385.7</ele>
        <time>2024-03-02T11:13:11Z</time>
      </trkpt>
      <trkpt lat="44.39655" lon="4.45992">
        <ele>386.2</ele>
        <time>2024-03-02T11:13:17Z</time>
      </trkpt>
      <trkpt lat="44.3967" lon="4.45974">
        <ele>386.5</ele>
        <time>2024-03-02T11:13:23Z</time>
      </trkpt>
      <trkpt lat="44.39686" lon="4.45957">
        <ele>386.6</ele>
        <time>2024-03-02T11:13:29Z</time>
      </trkpt>
      <trkpt lat="44.39705" lon="4.45947">
        <ele>386.6</ele>
        <time>2024-03-02T11:13:35Z</time>
      </trkpt>
      <trkpt lat="44.39725" lon="4.45939">
        <ele>386.3</ele>
        <time>2024-03-02T11:13:41Z</time>
      </trkpt>
      <trkpt lat="44.39743" lon="4.45929">
        <ele>385.8</ele>
        <time>2024-03-02T11:13:47Z</time>
      </trkpt>
      <trkpt lat="44.39762" lon="4.45922">
        <ele>384.2</ele>
        <time>2024-03-02T11:13:53Z</time>
      </trkpt>
      <trkpt lat="44.39782" lon="4.45913">
        <ele>383.3</ele>
        <time>2024-03-02T11:13:59Z</time>
      </trkpt>
      <trkpt lat="44.39784" lon="4.45888">
        <ele>383.8</ele>
        <time>2024-03-02T11:14:05Z</time>
      </trkpt>
      <trkpt lat="44.39774" lon="4.45865">
        <ele>385</ele>
        <time>2024-03-02T11:14:11Z</time>
      </trkpt>
      <trkpt lat="44.39768" lon="4.4584">
        <ele>386.8</ele>
        <time>2024-03-02T11:14:18Z</time>
      </trkpt>
      <trkpt lat="44.39781" lon="4.4582">
        <ele>388.3</ele>
        <time>2024-03-02T11:14:25Z</time>
      </trkpt>
      <trkpt lat="44.39796" lon="4.45803">
        <ele>389.5</ele>
        <time>2024-03-02T11:14:32Z</time>
      </trkpt>
      <trkpt lat="44.39811" lon="4.45786">
        <ele>390.6</ele>
        <time>2024-03-02T11:14:39Z</time>
      </trkpt>
      <trkpt lat="44.39826" lon="4.45767">
        <ele>391.7</ele>
        <time>2024-03-02T11:14:46Z</time>
      </trkpt>
      <trkpt lat="44.3984" lon="4.45748">
        <ele>393.1</ele>
        <time>2024-03-02T11:14:53Z</time>
      </trkpt>
      <trkpt lat="44.39853" lon="4.45728">
        <ele>394.7</ele>
        <time>2024-03-02T11:15:00Z</time>
      </trkpt>
      <trkpt lat="44.39865" lon="4.45708">
        <ele>396.2</ele>
        <time>2024-03-02T11:15:08Z</time>
      </trkpt>
      <trkpt lat="44.39879" lon="4.45688">
        <ele>397.6</ele>
        <time>2024-03-02T11:15:16Z</time>
      </trkpt>
      <trkpt lat="44.39893" lon="4.45668">
        <ele>398.7</ele>
        <time>2024-03-02T11:15:24Z</time>
      </trkpt>
      <trkpt lat="44.39904" lon="4.45647">
        <ele>399.6</ele>
        <time>2024-03-02T11:15:31Z</time>
      </trkpt>
      <trkpt lat="44.39919" lon="4.45628">
        <ele>400.2</ele>
        <time>2024-03-02T11:15:38Z</time>
      </trkpt>
      <trkpt lat="44.39929" lon="4.45604">
        <ele>400.8</ele>
        <time>2024-03-02T11:15:45Z</time>
      </trkpt>
      <trkpt lat="44.39938" lon="4.45582">
        <ele>401.2</ele>
        <time>2024-03-02T11:15:51Z</time>
      </trkpt>
      <trkpt lat="44.39945" lon="4.45559">
        <ele>401.5</ele>
        <time>2024-03-02T11:15:57Z</time>
      </trkpt>
      <trkpt lat="44.39946" lon="4.45533">
        <ele>402</ele>
        <time>2024-03-02T11:16:03Z</time>
      </trkpt>
      <trkpt lat="44.39948" lon="4.45507">
        <ele>402.7</ele>
        <time>2024-03-02T11:16:09Z</time>
      </trkpt>
      <trkpt lat="44.39956" lon="4.45483">
        <ele>403.5</ele>
        <time>2024-03-02T11:16:15Z</time>
      </trkpt>
      <trkpt lat="44.39968" lon="4.45464">
        <ele>404.2</ele>
        <time>2024-03-02T11:16:21Z</time>
      </trkpt>
      <trkpt lat="44.39984" lon="4.45446">
        <ele>404.6</ele>
        <time>2024-03-02T11:16:27Z</time>
      </trkpt>
      <trkpt lat="44.39999" lon="4.45428">
        <ele>404.9</ele>
        <time>2024-03-02T11:16:33Z</time>
      </trkpt>
      <trkpt lat="44.40011" lon="4.45409">
        <ele>405.2</ele>
        <time>2024-03-02T11:16:39Z</time>
      </trkpt>
      <trkpt lat="44.40026" lon="4.45391">
        <ele>405.7</ele>
        <time>2024-03-02T11:16:45Z</time>
      </trkpt>
      <trkpt lat="44.4004" lon="4.45372">
        <ele>406.3</ele>
        <time>2024-03-02T11:16:51Z</time>
      </trkpt>
      <trkpt lat="44.40054" lon="4.4535">
        <ele>406.6</ele>
        <time>2024-03-02T11:16:57Z</time>
      </trkpt>
      <trkpt lat="44.40067" lon="4.45331">
        <ele>406.7</ele>
        <time>2024-03-02T11:17:02Z</time>
      </trkpt>
      <trkpt lat="44.40082" lon="4.4531">
        <ele>406.6</ele>
        <time>2024-03-02T11:17:08Z</time>
      </trkpt>
      <trkpt lat="44.40098" lon="4.4529">
        <ele>406.6</ele>
        <time>2024-03-02T11:17:14Z</time>
      </trkpt>
      <trkpt lat="44.40113" lon="4.4527">
        <ele>406.7</ele>
        <time>2024-03-02T11:17:20Z</time>
      </trkpt>
      <trkpt lat="44.40125" lon="4.45251">
        <ele>406.9</ele>
        <time>2024-03-02T11:17:27Z</time>
      </trkpt>
      <trkpt lat="44.40126" lon="4.45232">
        <ele>407</ele>
        <time>2024-03-02T11:24:00Z</time>
      </trkpt>
      <trkpt lat="44.40127" lon="4.45231">
        <ele>407</ele>
        <time>2024-03-02T11:24:01Z</time>
      </trkpt>
      <trkpt lat="44.40143" lon="4.45215">
        <ele>407.3</ele>
        <time>2024-03-02T11:24:10Z</time>
      </trkpt>
      <trkpt lat="44.40153" lon="4.45208">
        <ele>407.4</ele>
        <time>2024-03-02T11:24:15Z</time>
      </trkpt>
      <trkpt lat="44.40151" lon="4.45211">
        <ele>407.5</ele>
        <time>2024-03-02T11:24:17Z</time>
      </trkpt>
      <trkpt lat="44.40146" lon="4.45214">
        <ele>407.6</ele>
        <time>2024-03-02T11:24:23Z</time>
      </trkpt>
      <trkpt lat="44.40161" lon="4.45199">
        <ele>408</ele>
        <time>2024-03-02T11:24:29Z</time>
      </trkpt>
      <trkpt lat="44.40168" lon="4.45189">
        <ele>408.3</ele>
        <time>2024-03-02T11:24:33Z</time>
      </trkpt>
      <trkpt lat="44.40164" lon="4.45162">
        <ele>408.6</ele>
        <time>2024-03-02T11:24:40Z</time>
      </trkpt>
      <trkpt lat="44.40166" lon="4.45135">
        <ele>408.7</ele>
        <time>2024-03-02T11:24:47Z</time>
      </trkpt>
      <trkpt lat="44.40169" lon="4.45108">
        <ele>408.9</ele>
        <time>2024-03-02T11:24:54Z</time>
      </trkpt>
      <trkpt lat="44.40171" lon="4.45081">
        <ele>409</ele>
        <time>2024-03-02T11:25:01Z</time>
      </trkpt>
      <trkpt lat="44.40173" lon="4.45054">
        <ele>409.2</ele>
        <time>2024-03-02T11:25:08Z</time>
      </trkpt>
      <trkpt lat="44.40177" lon="4.45026">
        <ele>409.5</ele>
        <time>2024-03-02T11:25:15Z</time>
      </trkpt>
      <trkpt lat="44.40179" lon="4.45">
        <ele>409.9</ele>
        <time>2024-03-02T11:25:22Z</time>
      </trkpt>
      <trkpt lat="44.40182" lon="4.44972">
        <ele>410.3</ele>
        <time>2024-03-02T11:25:29Z</time>
      </trkpt>
      <trkpt lat="44.40188" lon="4.44947">
        <ele>410.7</ele>
        <time>2024-03-02T11:25:35Z</time>
      </trkpt>
      <trkpt lat="44.4019" lon="4.44919">
        <ele>411.1</ele>
        <time>2024-03-02T11:25:41Z</time>
      </trkpt>
      <trkpt lat="44.4019" lon="4.44894">
        <ele>411.6</ele>
        <time>2024-03-02T11:25:47Z</time>
      </trkpt>
      <trkpt lat="44.40194" lon="4.44865">
        <ele>412.3</ele>
        <time>2024-03-02T11:25:54Z</time>
      </trkpt>
      <trkpt lat="44.40198" lon="4.44839">
        <ele>413</ele>
        <time>2024-03-02T11:26:00Z</time>
      </trkpt>
      <trkpt lat="44.402" lon="4.44813">
        <ele>413.6</ele>
        <time>2024-03-02T11:26:07Z</time>
      </trkpt>
      <trkpt lat="44.40201" lon="4.44786">
        <ele>414.5</ele>
        <time>2024-03-02T11:26:14Z</time>
      </trkpt>
      <trkpt lat="44.40202" lon="4.44759">
        <ele>415.6</ele>
        <time>2024-03-02T11:26:22Z</time>
      </trkpt>
      <trkpt lat="44.40204" lon="4.44732">
        <ele>416.6</ele>
        <time>2024-03-02T11:26:28Z</time>
      </trkpt>
      <trkpt lat="44.40207" lon="4.44707">
        <ele>417.5</ele>
        <time>2024-03-02T11:26:33Z</time>
      </trkpt>
      <trkpt lat="44.4021" lon="4.4468">
        <ele>418.5</ele>
        <time>2024-03-02T11:26:39Z</time>
      </trkpt>
      <trkpt lat="44.40214" lon="4.44654">
        <ele>419.3</ele>
        <time>2024-03-02T11:26:45Z</time>
      </trkpt>
      <trkpt lat="44.40218" lon="4.44627">
        <ele>420.3</ele>
        <time>2024-03-02T11:26:52Z</time>
      </trkpt>
      <trkpt lat="44.40223" lon="4.44602">
        <ele>421.2</ele>
        <time>2024-03-02T11:26:59Z</time>
      </trkpt>
      <trkpt lat="44.40228" lon="4.44575">
        <ele>422.1</ele>
        <time>2024-03-02T11:27:06Z</time>
      </trkpt>
      <trkpt lat="44.40241" lon="4.44556">
        <ele>422.8</ele>
        <time>2024-03-02T11:27:11Z</time>
      </trkpt>
      <trkpt lat="44.40257" lon="4.44537">
        <ele>423.5</ele>
        <time>2024-03-02T11:27:16Z</time>
      </trkpt>
      <trkpt lat="44.40269" lon="4.44516">
        <ele>424.1</ele>
        <time>2024-03-02T11:27:22Z</time>
      </trkpt>
      <trkpt lat="44.40277" lon="4.44491">
        <ele>424.3</ele>
        <time>2024-03-02T11:27:28Z</time>
      </trkpt>
      <trkpt lat="44.40282" lon="4.44465">
        <ele>424.3</ele>
        <time>2024-03-02T11:27:34Z</time>
      </trkpt>
      <trkpt lat="44.40286" lon="4.44438">
        <ele>423.8</ele>
        <time>2024-03-02T11:27:40Z</time>
      </trkpt>
      <trkpt lat="44.40295" lon="4.4441">
        <ele>423.2</ele>
        <time>2024-03-02T11:27:46Z</time>
      </trkpt>
      <trkpt lat="44.40306" lon="4.44389">
        <ele>422.7</ele>
        <time>2024-03-02T11:27:51Z</time>
      </trkpt>
      <trkpt lat="44.4032" lon="4.44371">
        <ele>422</ele>
        <time>2024-03-02T11:27:56Z</time>
      </trkpt>
      <trkpt lat="44.40333" lon="4.44353">
        <ele>420.7</ele>
        <time>2024-03-02T11:28:01Z</time>
      </trkpt>
      <trkpt lat="44.40346" lon="4.44334">
        <ele>419.5</ele>
        <time>2024-03-02T11:28:06Z</time>
      </trkpt>
      <trkpt lat="44.4036" lon="4.44315">
        <ele>418.2</ele>
        <time>2024-03-02T11:28:11Z</time>
      </trkpt>
      <trkpt lat="44.40373" lon="4.44295">
        <ele>416.9</ele>
        <time>2024-03-02T11:28:16Z</time>
      </trkpt>
      <trkpt lat="44.40385" lon="4.44276">
        <ele>415.6</ele>
        <time>2024-03-02T11:28:21Z</time>
      </trkpt>
      <trkpt lat="44.40399" lon="4.44252">
        <ele>414.3</ele>
        <time>2024-03-02T11:28:27Z</time>
      </trkpt>
      <trkpt lat="44.40412" lon="4.44233">
        <ele>413.3</ele>
        <time>2024-03-02T11:28:32Z</time>
      </trkpt>
      <trkpt lat="44.40424" lon="4.44212">
        <ele>412.4</ele>
        <time>2024-03-02T11:28:37Z</time>
      </trkpt>
      <trkpt lat="44.40436" lon="4.4419">
        <ele>411.3</ele>
        <time>2024-03-02T11:28:42Z</time>
      </trkpt>
      <trkpt lat="44.40449" lon="4.44172">
        <ele>410</ele>
        <time>2024-03-02T11:28:47Z</time>
      </trkpt>
      <trkpt lat="44.40461" lon="4.44152">
        <ele>408.1</ele>
        <time>2024-03-02T11:28:52Z</time>
      </trkpt>
      <trkpt lat="44.40467" lon="4.44138">
        <ele>406.6</ele>
        <time>2024-03-02T11:28:55Z</time>
      </trkpt>
      <trkpt lat="44.40472" lon="4.44113">
        <ele>404.1</ele>
        <time>2024-03-02T11:29:00Z</time>
      </trkpt>
      <trkpt lat="44.40472" lon="4.44104">
        <ele>403.2</ele>
        <time>2024-03-02T11:29:01Z</time>
      </trkpt>
      <trkpt lat="44.40471" lon="4.44095">
        <ele>402.3</ele>
        <time>2024-03-02T11:29:04Z</time>
      </trkpt>
      <trkpt lat="44.40475" lon="4.44087">
        <ele>400.7</ele>
        <time>2024-03-02T11:29:06Z</time>
      </trkpt>
      <trkpt lat="44.40481" lon="4.44084">
        <ele>399.6</ele>
        <time>2024-03-02T11:29:08Z</time>
      </trkpt>
      <trkpt lat="44.40502" lon="4.44083">
        <ele>396.4</ele>
        <time>2024-03-02T11:29:14Z</time>
      </trkpt>
      <trkpt lat="44.40505" lon="4.44083">
        <ele>395.8</ele>
        <time>2024-03-02T11:29:15Z</time>
      </trkpt>
      <trkpt lat="44.40516" lon="4.4408">
        <ele>394</ele>
        <time>2024-03-02T11:29:18Z</time>
      </trkpt>
      <trkpt lat="44.40519" lon="4.44074">
        <ele>392.9</ele>
        <time>2024-03-02T11:29:20Z</time>
      </trkpt>
      <trkpt lat="44.40524" lon="4.44048">
        <ele>389.9</ele>
        <time>2024-03-02T11:29:26Z</time>
      </trkpt>
      <trkpt lat="44.40519" lon="4.44033">
        <ele>388</ele>
        <time>2024-03-02T11:29:30Z</time>
      </trkpt>
      <trkpt lat="44.40504" lon="4.44017">
        <ele>385.3</ele>
        <time>2024-03-02T11:29:36Z</time>
      </trkpt>
      <trkpt lat="44.40487" lon="4.44003">
        <ele>382.6</ele>
        <time>2024-03-02T11:29:42Z</time>
      </trkpt>
      <trkpt lat="44.40474" lon="4.43979">
        <ele>379.8</ele>
        <time>2024-03-02T11:29:48Z</time>
      </trkpt>
      <trkpt lat="44.40469" lon="4.43967">
        <ele>378.4</ele>
        <time>2024-03-02T11:29:51Z</time>
      </trkpt>
      <trkpt lat="44.40463" lon="4.43939">
        <ele>375.3</ele>
        <time>2024-03-02T11:29:57Z</time>
      </trkpt>
      <trkpt lat="44.40454" lon="4.43913">
        <ele>371.8</ele>
        <time>2024-03-02T11:30:03Z</time>
      </trkpt>
      <trkpt lat="44.40447" lon="4.43885">
        <ele>369.1</ele>
        <time>2024-03-02T11:30:09Z</time>
      </trkpt>
      <trkpt lat="44.40439" lon="4.43861">
        <ele>366.8</ele>
        <time>2024-03-02T11:30:15Z</time>
      </trkpt>
      <trkpt lat="44.40436" lon="4.43841">
        <ele>364.7</ele>
        <time>2024-03-02T11:30:20Z</time>
      </trkpt>
      <trkpt lat="44.40454" lon="4.43846">
        <ele>361.5</ele>
        <time>2024-03-02T11:30:26Z</time>
      </trkpt>
      <trkpt lat="44.40469" lon="4.43848">
        <ele>359</ele>
        <time>2024-03-02T11:30:31Z</time>
      </trkpt>
      <trkpt lat="44.4047" lon="4.43841">
        <ele>358</ele>
        <time>2024-03-02T11:30:33Z</time>
      </trkpt>
      <trkpt lat="44.40461" lon="4.43816">
        <ele>354.6</ele>
        <time>2024-03-02T11:30:39Z</time>
      </trkpt>
      <trkpt lat="44.40448" lon="4.43793">
        <ele>351.4</ele>
        <time>2024-03-02T11:30:45Z</time>
      </trkpt>
      <trkpt lat="44.40436" lon="4.4377">
        <ele>348.7</ele>
        <time>2024-03-02T11:30:51Z</time>
      </trkpt>
      <trkpt lat="44.40423" lon="4.43748">
        <ele>345.6</ele>
        <time>2024-03-02T11:30:57Z</time>
      </trkpt>
      <trkpt lat="44.4042" lon="4.43734">
        <ele>344</ele>
        <time>2024-03-02T11:31:00Z</time>
      </trkpt>
      <trkpt lat="44.40439" lon="4.43738">
        <ele>341.2</ele>
        <time>2024-03-02T11:31:06Z</time>
      </trkpt>
      <trkpt lat="44.4045" lon="4.43742">
        <ele>339.3</ele>
        <time>2024-03-02T11:31:10Z</time>
      </trkpt>
      <trkpt lat="44.40449" lon="4.43732">
        <ele>338.1</ele>
        <time>2024-03-02T11:31:13Z</time>
      </trkpt>
      <trkpt lat="44.40436" lon="4.43712">
        <ele>335.1</ele>
        <time>2024-03-02T11:31:19Z</time>
      </trkpt>
      <trkpt lat="44.40426" lon="4.43688">
        <ele>332.4</ele>
        <time>2024-03-02T11:31:24Z</time>
      </trkpt>
      <trkpt lat="44.40412" lon="4.4367">
        <ele>330</ele>
        <time>2024-03-02T11:31:29Z</time>
      </trkpt>
      <trkpt lat="44.40396" lon="4.43652">
        <ele>327.7</ele>
        <time>2024-03-02T11:31:35Z</time>
      </trkpt>
      <trkpt lat="44.40378" lon="4.43635">
        <ele>325.8</ele>
        <time>2024-03-02T11:31:41Z</time>
      </trkpt>
      <trkpt lat="44.40363" lon="4.43621">
        <ele>324.1</ele>
        <time>2024-03-02T11:31:46Z</time>
      </trkpt>
      <trkpt lat="44.40357" lon="4.43613">
        <ele>323.1</ele>
        <time>2024-03-02T11:31:49Z</time>
      </trkpt>
      <trkpt lat="44.40361" lon="4.43608">
        <ele>322.3</ele>
        <time>2024-03-02T11:31:51Z</time>
      </trkpt>
      <trkpt lat="44.40381" lon="4.43606">
        <ele>319.6</ele>
        <time>2024-03-02T11:31:57Z</time>
      </trkpt>
      <trkpt lat="44.404" lon="4.43605">
        <ele>317.1</ele>
        <time>2024-03-02T11:32:02Z</time>
      </trkpt>
      <trkpt lat="44.40411" lon="4.43598">
        <ele>315.3</ele>
        <time>2024-03-02T11:32:07Z</time>
      </trkpt>
      <trkpt lat="44.40395" lon="4.43583">
        <ele>312.8</ele>
        <time>2024-03-02T11:32:13Z</time>
      </trkpt>
      <trkpt lat="44.40377" lon="4.43569">
        <ele>311</ele>
        <time>2024-03-02T11:32:19Z</time>
      </trkpt>
      <trkpt lat="44.40371" lon="4.4356">
        <ele>310</ele>
        <time>2024-03-02T11:32:22Z</time>
      </trkpt>
      <trkpt lat="44.40374" lon="4.43556">
        <ele>309.6</ele>
        <time>2024-03-02T11:32:24Z</time>
      </trkpt>
      <trkpt lat="44.40392" lon="4.43555">
        <ele>307.4</ele>
        <time>2024-03-02T11:32:30Z</time>
      </trkpt>
      <trkpt lat="44.40412" lon="4.43552">
        <ele>305.4</ele>
        <time>2024-03-02T11:32:36Z</time>
      </trkpt>
      <trkpt lat="44.40422" lon="4.43548">
        <ele>303.9</ele>
        <time>2024-03-02T11:32:41Z</time>
      </trkpt>
      <trkpt lat="44.40405" lon="4.43533">
        <ele>301</ele>
        <time>2024-03-02T11:32:47Z</time>
      </trkpt>
      <trkpt lat="44.4039" lon="4.4352">
        <ele>298.9</ele>
        <time>2024-03-02T11:32:52Z</time>
      </trkpt>
      <trkpt lat="44.40375" lon="4.43503">
        <ele>297.3</ele>
        <time>2024-03-02T11:32:57Z</time>
      </trkpt>
      <trkpt lat="44.4036" lon="4.43486">
        <ele>296.1</ele>
        <time>2024-03-02T11:33:02Z</time>
      </trkpt>
      <trkpt lat="44.40343" lon="4.43474">
        <ele>294.7</ele>
        <time>2024-03-02T11:33:08Z</time>
      </trkpt>
      <trkpt lat="44.40327" lon="4.43459">
        <ele>292.6</ele>
        <time>2024-03-02T11:33:14Z</time>
      </trkpt>
      <trkpt lat="44.40326" lon="4.43453">
        <ele>291.3</ele>
        <time>2024-03-02T11:33:16Z</time>
      </trkpt>
      <trkpt lat="44.4034" lon="4.43435">
        <ele>288.9</ele>
        <time>2024-03-02T11:33:23Z</time>
      </trkpt>
      <trkpt lat="44.40355" lon="4.4342">
        <ele>286.5</ele>
        <time>2024-03-02T11:33:29Z</time>
      </trkpt>
      <trkpt lat="44.40372" lon="4.43413">
        <ele>284.4</ele>
        <time>2024-03-02T11:33:35Z</time>
      </trkpt>
      <trkpt lat="44.40391" lon="4.43414">
        <ele>282.3</ele>
        <time>2024-03-02T11:33:41Z</time>
      </trkpt>
      <trkpt lat="44.40409" lon="4.43415">
        <ele>279.9</ele>
        <time>2024-03-02T11:33:47Z</time>
      </trkpt>
      <trkpt lat="44.40423" lon="4.43403">
        <ele>277.8</ele>
        <time>2024-03-02T11:33:54Z</time>
      </trkpt>
      <trkpt lat="44.4042" lon="4.43375">
        <ele>275.8</ele>
        <time>2024-03-02T11:34:01Z</time>
      </trkpt>
      <trkpt lat="44.40419" lon="4.43349">
        <ele>274</ele>
        <time>2024-03-02T11:34:07Z</time>
      </trkpt>
      <trkpt lat="44.4042" lon="4.43321">
        <ele>271.9</ele>
        <time>2024-03-02T11:34:13Z</time>
      </trkpt>
      <trkpt lat="44.4042" lon="4.4329">
        <ele>269.7</ele>
        <time>2024-03-02T11:34:19Z</time>
      </trkpt>
      <trkpt lat="44.40417" lon="4.43263">
        <ele>267.8</ele>
        <time>2024-03-02T11:34:24Z</time>
      </trkpt>
      <trkpt lat="44.40414" lon="4.43236">
        <ele>266.1</ele>
        <time>2024-03-02T11:34:29Z</time>
      </trkpt>
      <trkpt lat="44.40414" lon="4.43211">
        <ele>264.6</ele>
        <time>2024-03-02T11:34:34Z</time>
      </trkpt>
      <trkpt lat="44.40415" lon="4.43182">
        <ele>262.7</ele>
        <time>2024-03-02T11:34:40Z</time>
      </trkpt>
      <trkpt lat="44.40411" lon="4.43157">
        <ele>260.8</ele>
        <time>2024-03-02T11:34:45Z</time>
      </trkpt>
      <trkpt lat="44.40406" lon="4.43128">
        <ele>258.6</ele>
        <time>2024-03-02T11:34:51Z</time>
      </trkpt>
      <trkpt lat="44.404" lon="4.43104">
        <ele>256.8</ele>
        <time>2024-03-02T11:34:56Z</time>
      </trkpt>
      <trkpt lat="44.40399" lon="4.43077">
        <ele>255.2</ele>
        <time>2024-03-02T11:35:01Z</time>
      </trkpt>
      <trkpt lat="44.40397" lon="4.43051">
        <ele>254.1</ele>
        <time>2024-03-02T11:35:06Z</time>
      </trkpt>
      <trkpt lat="44.40396" lon="4.43022">
        <ele>253.6</ele>
        <time>2024-03-02T11:35:12Z</time>
      </trkpt>
      <trkpt lat="44.40393" lon="4.42994">
        <ele>253.5</ele>
        <time>2024-03-02T11:35:18Z</time>
      </trkpt>
      <trkpt lat="44.40391" lon="4.42967">
        <ele>254</ele>
        <time>2024-03-02T11:35:25Z</time>
      </trkpt>
      <trkpt lat="44.40385" lon="4.42939">
        <ele>254.3</ele>
        <time>2024-03-02T11:35:32Z</time>
      </trkpt>
      <trkpt lat="44.40378" lon="4.42914">
        <ele>253.1</ele>
        <time>2024-03-02T11:35:37Z</time>
      </trkpt>
      <trkpt lat="44.4037" lon="4.42887">
        <ele>251.9</ele>
        <time>2024-03-02T11:35:42Z</time>
      </trkpt>
      <trkpt lat="44.40364" lon="4.42862">
        <ele>251.1</ele>
        <time>2024-03-02T11:35:47Z</time>
      </trkpt>
      <trkpt lat="44.4036" lon="4.42837">
        <ele>250.3</ele>
        <time>2024-03-02T11:35:52Z</time>
      </trkpt>
      <trkpt lat="44.4036" lon="4.42809">
        <ele>250.1</ele>
        <time>2024-03-02T11:35:58Z</time>
      </trkpt>
      <trkpt lat="44.40362" lon="4.42783">
        <ele>250.4</ele>
        <time>2024-03-02T11:36:04Z</time>
      </trkpt>
      <trkpt lat="44.4037" lon="4.42759">
        <ele>251.2</ele>
        <time>2024-03-02T11:36:10Z</time>
      </trkpt>
      <trkpt lat="44.4038" lon="4.42733">
        <ele>251.7</ele>
        <time>2024-03-02T11:36:16Z</time>
      </trkpt>
      <trkpt lat="44.40393" lon="4.4271">
        <ele>251.8</ele>
        <time>2024-03-02T11:36:22Z</time>
      </trkpt>
      <trkpt lat="44.40406" lon="4.42689">
        <ele>251.3</ele>
        <time>2024-03-02T11:36:28Z</time>
      </trkpt>
      <trkpt lat="44.40419" lon="4.42666">
        <ele>250</ele>
        <time>2024-03-02T11:36:34Z</time>
      </trkpt>
      <trkpt lat="44.40428" lon="4.4264">
        <ele>248.2</ele>
        <time>2024-03-02T11:36:41Z</time>
      </trkpt>
      <trkpt lat="44.4043" lon="4.42611">
        <ele>246</ele>
        <time>2024-03-02T11:36:47Z</time>
      </trkpt>
      <trkpt lat="44.40432" lon="4.42585">
        <ele>244</ele>
        <time>2024-03-02T11:36:53Z</time>
      </trkpt>
      <trkpt lat="44.40436" lon="4.42558">
        <ele>241.6</ele>
        <time>2024-03-02T11:37:00Z</time>
      </trkpt>
      <trkpt lat="44.40449" lon="4.4254">
        <ele>238.6</ele>
        <time>2024-03-02T11:37:06Z</time>
      </trkpt>
      <trkpt lat="44.40465" lon="4.42523">
        <ele>234.8</ele>
        <time>2024-03-02T11:37:12Z</time>
      </trkpt>
      <trkpt lat="44.40481" lon="4.42507">
        <ele>230.6</ele>
        <time>2024-03-02T11:37:18Z</time>
      </trkpt>
      <trkpt lat="44.40495" lon="4.4249">
        <ele>226.6</ele>
        <time>2024-03-02T11:37:24Z</time>
      </trkpt>
      <trkpt lat="44.40502" lon="4.42466">
        <ele>222.9</ele>
        <time>2024-03-02T11:37:29Z</time>
      </trkpt>
      <trkpt lat="44.40513" lon="4.42446">
        <ele>220</ele>
        <time>2024-03-02T11:37:33Z</time>
      </trkpt>
      <trkpt lat="44.40516" lon="4.42442">
        <ele>219.4</ele>
        <time>2024-03-02T11:37:34Z</time>
      </trkpt>
      <trkpt lat="44.40524" lon="4.42428">
        <ele>217.9</ele>
        <time>2024-03-02T11:37:37Z</time>
      </trkpt>
      <trkpt lat="44.40525" lon="4.42418">
        <ele>217</ele>
        <time>2024-03-02T11:37:39Z</time>
      </trkpt>
      <trkpt lat="44.40526" lon="4.42392">
        <ele>213.9</ele>
        <time>2024-03-02T11:37:44Z</time>
      </trkpt>
      <trkpt lat="44.40526" lon="4.4238">
        <ele>212.4</ele>
        <time>2024-03-02T11:37:46Z</time>
      </trkpt>
      <trkpt lat="44.40529" lon="4.42355">
        <ele>209.2</ele>
        <time>2024-03-02T11:37:51Z</time>
      </trkpt>
      <trkpt lat="44.40531" lon="4.42344">
        <ele>207.8</ele>
        <time>2024-03-02T11:37:53Z</time>
      </trkpt>
      <trkpt lat="44.40532" lon="4.42334">
        <ele>206.5</ele>
        <time>2024-03-02T11:37:55Z</time>
      </trkpt>
      <trkpt lat="44.40534" lon="4.42323">
        <ele>204.9</ele>
        <time>2024-03-02T11:37:57Z</time>
      </trkpt>
      <trkpt lat="44.40536" lon="4.42313">
        <ele>203.5</ele>
        <time>2024-03-02T11:37:59Z</time>
      </trkpt>
      <trkpt lat="44.40535" lon="4.42302">
        <ele>202</ele>
        <time>2024-03-02T11:38:01Z</time>
      </trkpt>
      <trkpt lat="44.40529" lon="4.42275">
        <ele>197.7</ele>
        <time>2024-03-02T11:38:07Z</time>
      </trkpt>
      <trkpt lat="44.40525" lon="4.42267">
        <ele>196.2</ele>
        <time>2024-03-02T11:38:09Z</time>
      </trkpt>
      <trkpt lat="44.40512" lon="4.42249">
        <ele>192.5</ele>
        <time>2024-03-02T11:38:14Z</time>
      </trkpt>
      <trkpt lat="44.40496" lon="4.4223">
        <ele>188.8</ele>
        <time>2024-03-02T11:38:20Z</time>
      </trkpt>
      <trkpt lat="44.40492" lon="4.42221">
        <ele>187.3</ele>
        <time>2024-03-02T11:38:22Z</time>
      </trkpt>
      <trkpt lat="44.4049" lon="4.42209">
        <ele>186.2</ele>
        <time>2024-03-02T11:38:24Z</time>
      </trkpt>
      <trkpt lat="44.4049" lon="4.42182">
        <ele>183.8</ele>
        <time>2024-03-02T11:38:29Z</time>
      </trkpt>
      <trkpt lat="44.40489" lon="4.42166">
        <ele>182.4</ele>
        <time>2024-03-02T11:38:32Z</time>
      </trkpt>
      <trkpt lat="44.40481" lon="4.42142">
        <ele>179.3</ele>
        <time>2024-03-02T11:38:37Z</time>
      </trkpt>
      <trkpt lat="44.40475" lon="4.42127">
        <ele>177.3</ele>
        <time>2024-03-02T11:38:40Z</time>
      </trkpt>
      <trkpt lat="44.40474" lon="4.42111">
        <ele>175.2</ele>
        <time>2024-03-02T11:38:43Z</time>
      </trkpt>
      <trkpt lat="44.40469" lon="4.42083">
        <ele>172</ele>
        <time>2024-03-02T11:38:48Z</time>
      </trkpt>
      <trkpt lat="44.40465" lon="4.42068">
        <ele>170.4</ele>
        <time>2024-03-02T11:38:51Z</time>
      </trkpt>
      <trkpt lat="44.40459" lon="4.42053">
        <ele>168.8</ele>
        <time>2024-03-02T11:38:54Z</time>
      </trkpt>
      <trkpt lat="44.40451" lon="4.4203">
        <ele>166.5</ele>
        <time>2024-03-02T11:38:59Z</time>
      </trkpt>
      <trkpt lat="44.40446" lon="4.42005">
        <ele>164.4</ele>
        <time>2024-03-02T11:39:04Z</time>
      </trkpt>
      <trkpt lat="44.40437" lon="4.41982">
        <ele>162.4</ele>
        <time>2024-03-02T11:39:09Z</time>
      </trkpt>
      <trkpt lat="44.40431" lon="4.41958">
        <ele>160.6</ele>
        <time>2024-03-02T11:39:14Z</time>
      </trkpt>
      <trkpt lat="44.40424" lon="4.41934">
        <ele>158.8</ele>
        <time>2024-03-02T11:39:19Z</time>
      </trkpt>
      <trkpt lat="44.40415" lon="4.41912">
        <ele>156.9</ele>
        <time>2024-03-02T11:39:24Z</time>
      </trkpt>
      <trkpt lat="44.40408" lon="4.41884">
        <ele>154.8</ele>
        <time>2024-03-02T11:39:30Z</time>
      </trkpt>
      <trkpt lat="44.40405" lon="4.41855">
        <ele>152.9</ele>
        <time>2024-03-02T11:39:36Z</time>
      </trkpt>
      <trkpt lat="44.40397" lon="4.41828">
        <ele>150.8</ele>
        <time>2024-03-02T11:39:42Z</time>
      </trkpt>
      <trkpt lat="44.4039" lon="4.41802">
        <ele>149.2</ele>
        <time>2024-03-02T11:39:47Z</time>
      </trkpt>
      <trkpt lat="44.40386" lon="4.41776">
        <ele>148.3</ele>
        <time>2024-03-02T11:39:52Z</time>
      </trkpt>
      <trkpt lat="44.4039" lon="4.41748">
        <ele>146.8</ele>
        <time>2024-03-02T11:39:57Z</time>
      </trkpt>
      <trkpt lat="44.40403" lon="4.41724">
        <ele>144.1</ele>
        <time>2024-03-02T11:40:02Z</time>
      </trkpt>
      <trkpt lat="44.40417" lon="4.41708">
        <ele>142.1</ele>
        <time>2024-03-02T11:40:06Z</time>
      </trkpt>
      <trkpt lat="44.40435" lon="4.41689">
        <ele>140.1</ele>
        <time>2024-03-02T11:40:11Z</time>
      </trkpt>
      <trkpt lat="44.40451" lon="4.41677">
        <ele>138.5</ele>
        <time>2024-03-02T11:40:16Z</time>
      </trkpt>
      <trkpt lat="44.40469" lon="4.41662">
        <ele>135.9</ele>
        <time>2024-03-02T11:40:22Z</time>
      </trkpt>
      <trkpt lat="44.4048" lon="4.41639">
        <ele>130.4</ele>
        <time>2024-03-02T11:40:30Z</time>
      </trkpt>
      <trkpt lat="44.40477" lon="4.41628">
        <ele>125.8</ele>
        <time>2024-03-02T11:40:33Z</time>
      </trkpt>
      <trkpt lat="44.4047" lon="4.41614">
        <ele>120.9</ele>
        <time>2024-03-02T11:40:37Z</time>
      </trkpt>
      <trkpt lat="44.40467" lon="4.41607">
        <ele>117.9</ele>
        <time>2024-03-02T11:40:39Z</time>
      </trkpt>
      <trkpt lat="44.40464" lon="4.41602">
        <ele>116</ele>
        <time>2024-03-02T11:40:41Z</time>
      </trkpt>
      <trkpt lat="44.40459" lon="4.41602">
        <ele>114.8</ele>
        <time>2024-03-02T11:40:43Z</time>
      </trkpt>
      <trkpt lat="44.40438" lon="4.41607">
        <ele>112.6</ele>
        <time>2024-03-02T11:40:49Z</time>
      </trkpt>
      <trkpt lat="44.40419" lon="4.41602">
        <ele>109.7</ele>
        <time>2024-03-02T11:40:56Z</time>
      </trkpt>
      <trkpt lat="44.40418" lon="4.41599">
        <ele>109.2</ele>
        <time>2024-03-02T11:40:57Z</time>
      </trkpt>
      <trkpt lat="44.40424" lon="4.4157">
        <ele>104.2</ele>
        <time>2024-03-02T11:41:02Z</time>
      </trkpt>
      <trkpt lat="44.40433" lon="4.41546">
        <ele>104.1</ele>
        <time>2024-03-02T11:41:08Z</time>
      </trkpt>
      <trkpt lat="44.4043" lon="4.4152">
        <ele>104</ele>
        <time>2024-03-02T11:41:14Z</time>
      </trkpt>
      <trkpt lat="44.40422" lon="4.41495">
        <ele>103.9</ele>
        <time>2024-03-02T11:41:20Z</time>
      </trkpt>
      <trkpt lat="44.40413" lon="4.41471">
        <ele>103.8</ele>
        <time>2024-03-02T11:41:26Z</time>
      </trkpt>
      <trkpt lat="44.40401" lon="4.41447">
        <ele>103.8</ele>
        <time>2024-03-02T11:41:32Z</time>
      </trkpt>
      <trkpt lat="44.40393" lon="4.41424">
        <ele>103.8</ele>
        <time>2024-03-02T11:41:38Z</time>
      </trkpt>
      <trkpt lat="44.40384" lon="4.414">
        <ele>104</ele>
        <time>2024-03-02T11:41:44Z</time>
      </trkpt>
      <trkpt lat="44.40372" lon="4.41375">
        <ele>104.2</ele>
        <time>2024-03-02T11:41:50Z</time>
      </trkpt>
      <trkpt lat="44.40365" lon="4.41359">
        <ele>104.2</ele>
        <time>2024-03-02T11:41:55Z</time>
      </trkpt>
      <trkpt lat="44.40352" lon="4.41381">
        <ele>102.6</ele>
        <time>2024-03-02T11:42:01Z</time>
      </trkpt>
      <trkpt lat="44.40338" lon="4.41398">
        <ele>101.3</ele>
        <time>2024-03-02T11:42:06Z</time>
      </trkpt>
      <trkpt lat="44.40335" lon="4.4141">
        <ele>100.2</ele>
        <time>2024-03-02T11:42:10Z</time>
      </trkpt>
      <trkpt lat="44.4034" lon="4.41412">
        <ele>99.7</ele>
        <time>2024-03-02T11:42:12Z</time>
      </trkpt>
      <trkpt lat="44.40351" lon="4.41403">
        <ele>98.2</ele>
        <time>2024-03-02T11:42:15Z</time>
      </trkpt>
      <trkpt lat="44.40339" lon="4.41423">
        <ele>96.7</ele>
        <time>2024-03-02T11:42:22Z</time>
      </trkpt>
      <trkpt lat="44.40323" lon="4.4144">
        <ele>96.1</ele>
        <time>2024-03-02T11:42:28Z</time>
      </trkpt>
      <trkpt lat="44.40307" lon="4.41451">
        <ele>96.2</ele>
        <time>2024-03-02T11:42:33Z</time>
      </trkpt>
      <trkpt lat="44.40287" lon="4.41453">
        <ele>96.2</ele>
        <time>2024-03-02T11:42:39Z</time>
      </trkpt>
      <trkpt lat="44.4027" lon="4.41462">
        <ele>96.4</ele>
        <time>2024-03-02T11:42:45Z</time>
      </trkpt>
      <trkpt lat="44.4025" lon="4.41471">
        <ele>96.5</ele>
        <time>2024-03-02T11:42:51Z</time>
      </trkpt>
      <trkpt lat="44.40234" lon="4.41484">
        <ele>96.7</ele>
        <time>2024-03-02T11:42:56Z</time>
      </trkpt>
      <trkpt lat="44.40214" lon="4.41485">
        <ele>97</ele>
        <time>2024-03-02T11:43:02Z</time>
      </trkpt>
      <trkpt lat="44.40197" lon="4.4149">
        <ele>97.3</ele>
        <time>2024-03-02T11:43:07Z</time>
      </trkpt>
      <trkpt lat="44.40177" lon="4.41487">
        <ele>97.5</ele>
        <time>2024-03-02T11:43:14Z</time>
      </trkpt>
      <trkpt lat="44.40158" lon="4.41498">
        <ele>97.5</ele>
        <time>2024-03-02T11:43:20Z</time>
      </trkpt>
      <trkpt lat="44.40138" lon="4.41504">
        <ele>97.4</ele>
        <time>2024-03-02T11:43:26Z</time>
      </trkpt>
      <trkpt lat="44.40121" lon="4.4151">
        <ele>97.4</ele>
        <time>2024-03-02T11:43:31Z</time>
      </trkpt>
      <trkpt lat="44.40103" lon="4.41514">
        <ele>97.4</ele>
        <time>2024-03-02T11:43:37Z</time>
      </trkpt>
      <trkpt lat="44.40083" lon="4.41519">
        <ele>97.5</ele>
        <time>2024-03-02T11:43:44Z</time>
      </trkpt>
      <trkpt lat="44.40063" lon="4.4152">
        <ele>97.7</ele>
        <time>2024-03-02T11:43:50Z</time>
      </trkpt>
      <trkpt lat="44.40045" lon="4.41524">
        <ele>97.8</ele>
        <time>2024-03-02T11:43:56Z</time>
      </trkpt>
      <trkpt lat="44.40028" lon="4.41532">
        <ele>98.1</ele>
        <time>2024-03-02T11:44:02Z</time>
      </trkpt>
      <trkpt lat="44.40008" lon="4.4154">
        <ele>98.9</ele>
        <time>2024-03-02T11:44:08Z</time>
      </trkpt>
      <trkpt lat="44.39989" lon="4.41544">
        <ele>99.8</ele>
        <time>2024-03-02T11:44:15Z</time>
      </trkpt>
      <trkpt lat="44.39975" lon="4.4156">
        <ele>99.7</ele>
        <time>2024-03-02T11:44:20Z</time>
      </trkpt>
      <trkpt lat="44.39962" lon="4.41582">
        <ele>98.6</ele>
        <time>2024-03-02T11:44:25Z</time>
      </trkpt>
      <trkpt lat="44.39955" lon="4.41608">
        <ele>96.9</ele>
        <time>2024-03-02T11:44:30Z</time>
      </trkpt>
      <trkpt lat="44.39941" lon="4.41631">
        <ele>95.7</ele>
        <time>2024-03-02T11:44:35Z</time>
      </trkpt>
      <trkpt lat="44.39927" lon="4.41652">
        <ele>94.9</ele>
        <time>2024-03-02T11:44:41Z</time>
      </trkpt>
      <trkpt lat="44.39911" lon="4.41668">
        <ele>94.2</ele>
        <time>2024-03-02T11:44:48Z</time>
      </trkpt>
      <trkpt lat="44.39894" lon="4.41682">
        <ele>93.9</ele>
        <time>2024-03-02T11:44:55Z</time>
      </trkpt>
      <trkpt lat="44.39876" lon="4.41687">
        <ele>94.1</ele>
        <time>2024-03-02T11:45:01Z</time>
      </trkpt>
      <trkpt lat="44.39855" lon="4.41692">
        <ele>94.3</ele>
        <time>2024-03-02T11:45:08Z</time>
      </trkpt>
      <trkpt lat="44.39848" lon="4.41695">
        <ele>94.4</ele>
        <time>2024-03-02T11:45:10Z</time>
      </trkpt>
      <trkpt lat="44.39828" lon="4.41698">
        <ele>94.5</ele>
        <time>2024-03-02T11:45:16Z</time>
      </trkpt>
      <trkpt lat="44.39807" lon="4.41696">
        <ele>94.2</ele>
        <time>2024-03-02T11:45:23Z</time>
      </trkpt>
      <trkpt lat="44.39787" lon="4.41689">
        <ele>94.1</ele>
        <time>2024-03-02T11:45:31Z</time>
      </trkpt>
      <trkpt lat="44.39768" lon="4.41682">
        <ele>93.7</ele>
        <time>2024-03-02T11:45:39Z</time>
      </trkpt>
      <trkpt lat="44.3975" lon="4.41671">
        <ele>92.9</ele>
        <time>2024-03-02T11:45:45Z</time>
      </trkpt>
      <trkpt lat="44.39738" lon="4.41649">
        <ele>92.7</ele>
        <time>2024-03-02T11:45:52Z</time>
      </trkpt>
      <trkpt lat="44.39724" lon="4.41632">
        <ele>92.4</ele>
        <time>2024-03-02T11:45:58Z</time>
      </trkpt>
      <trkpt lat="44.39713" lon="4.4161">
        <ele>91.8</ele>
        <time>2024-03-02T11:46:04Z</time>
      </trkpt>
      <trkpt lat="44.39707" lon="4.416">
        <ele>91.6</ele>
        <time>2024-03-02T11:46:08Z</time>
      </trkpt>
      <trkpt lat="44.397" lon="4.41583">
        <ele>91.5</ele>
        <time>2024-03-02T11:46:13Z</time>
      </trkpt>
      <trkpt lat="44.39701" lon="4.41554">
        <ele>91.4</ele>
        <time>2024-03-02T11:46:20Z</time>
      </trkpt>
      <trkpt lat="44.39707" lon="4.4153">
        <ele>91.7</ele>
        <time>2024-03-02T11:46:26Z</time>
      </trkpt>
      <trkpt lat="44.39708" lon="4.41525">
        <ele>91.8</ele>
        <time>2024-03-02T11:46:28Z</time>
      </trkpt>
      <trkpt lat="44.39707" lon="4.41496">
        <ele>92</ele>
        <time>2024-03-02T11:46:35Z</time>
      </trkpt>
      <trkpt lat="44.39704" lon="4.41469">
        <ele>92.5</ele>
        <time>2024-03-02T11:46:42Z</time>
      </trkpt>
      <trkpt lat="44.39699" lon="4.41441">
        <ele>92.5</ele>
        <time>2024-03-02T11:46:48Z</time>
      </trkpt>
      <trkpt lat="44.39696" lon="4.41414">
        <ele>92.4</ele>
        <time>2024-03-02T11:46:54Z</time>
      </trkpt>
      <trkpt lat="44.39692" lon="4.41388">
        <ele>91.7</ele>
        <time>2024-03-02T11:47:02Z</time>
      </trkpt>
      <trkpt lat="44.39683" lon="4.41365">
        <ele>91</ele>
        <time>2024-03-02T11:47:11Z</time>
      </trkpt>
      <trkpt lat="44.39682" lon="4.41338">
        <ele>92.2</ele>
        <time>2024-03-02T11:47:20Z</time>
      </trkpt>
      <trkpt lat="44.3968" lon="4.41311">
        <ele>92.3</ele>
        <time>2024-03-02T11:47:26Z</time>
      </trkpt>
      <trkpt lat="44.39683" lon="4.41286">
        <ele>93</ele>
        <time>2024-03-02T11:47:33Z</time>
      </trkpt>
      <trkpt lat="44.39686" lon="4.41261">
        <ele>93.5</ele>
        <time>2024-03-02T11:47:39Z</time>
      </trkpt>
      <trkpt lat="44.39689" lon="4.41235">
        <ele>93.9</ele>
        <time>2024-03-02T11:47:45Z</time>
      </trkpt>
      <trkpt lat="44.3969" lon="4.41208">
        <ele>94.1</ele>
        <time>2024-03-02T11:47:51Z</time>
      </trkpt>
      <trkpt lat="44.39691" lon="4.4118">
        <ele>94.2</ele>
        <time>2024-03-02T11:47:57Z</time>
      </trkpt>
      <trkpt lat="44.39692" lon="4.41154">
        <ele>94.1</ele>
        <time>2024-03-02T11:48:02Z</time>
      </trkpt>
      <trkpt lat="44.39685" lon="4.41127">
        <ele>93.3</ele>
        <time>2024-03-02T11:48:08Z</time>
      </trkpt>
      <trkpt lat="44.39677" lon="4.41101">
        <ele>91.9</ele>
        <time>2024-03-02T11:48:14Z</time>
      </trkpt>
      <trkpt lat="44.39675" lon="4.41072">
        <ele>91.3</ele>
        <time>2024-03-02T11:48:20Z</time>
      </trkpt>
      <trkpt lat="44.39678" lon="4.41047">
        <ele>91</ele>
        <time>2024-03-02T11:48:25Z</time>
      </trkpt>
      <trkpt lat="44.39678" lon="4.4102">
        <ele>90.5</ele>
        <time>2024-03-02T11:48:31Z</time>
      </trkpt>
      <trkpt lat="44.39662" lon="4.41006">
        <ele>89.9</ele>
        <time>2024-03-02T11:48:37Z</time>
      </trkpt>
      <trkpt lat="44.3965" lon="4.40985">
        <ele>89.6</ele>
        <time>2024-03-02T11:48:43Z</time>
      </trkpt>
      <trkpt lat="44.39641" lon="4.40963">
        <ele>89.3</ele>
        <time>2024-03-02T11:48:49Z</time>
      </trkpt>
      <trkpt lat="44.39629" lon="4.40945">
        <ele>89.1</ele>
        <time>2024-03-02T11:48:55Z</time>
      </trkpt>
      <trkpt lat="44.39623" lon="4.40921">
        <ele>89</ele>
        <time>2024-03-02T11:49:01Z</time>
      </trkpt>
      <trkpt lat="44.39617" lon="4.40894">
        <ele>88.9</ele>
        <time>2024-03-02T11:49:07Z</time>
      </trkpt>
      <trkpt lat="44.39608" lon="4.40867">
        <ele>88.8</ele>
        <time>2024-03-02T11:49:13Z</time>
      </trkpt>
      <trkpt lat="44.396" lon="4.40844">
        <ele>88.7</ele>
        <time>2024-03-02T11:49:18Z</time>
      </trkpt>
      <trkpt lat="44.39594" lon="4.4082">
        <ele>88.7</ele>
        <time>2024-03-02T11:49:23Z</time>
      </trkpt>
      <trkpt lat="44.39591" lon="4.40793">
        <ele>88.5</ele>
        <time>2024-03-02T11:49:29Z</time>
      </trkpt>
      <trkpt lat="44.39583" lon="4.40767">
        <ele>88.2</ele>
        <time>2024-03-02T11:49:35Z</time>
      </trkpt>
      <trkpt lat="44.39576" lon="4.40739">
        <ele>87.7</ele>
        <time>2024-03-02T11:49:41Z</time>
      </trkpt>
      <trkpt lat="44.39572" lon="4.40713">
        <ele>87.4</ele>
        <time>2024-03-02T11:49:47Z</time>
      </trkpt>
      <trkpt lat="44.39571" lon="4.40683">
        <ele>87</ele>
        <time>2024-03-02T11:49:53Z</time>
      </trkpt>
      <trkpt lat="44.39571" lon="4.40655">
        <ele>86.8</ele>
        <time>2024-03-02T11:49:59Z</time>
      </trkpt>
      <trkpt lat="44.39572" lon="4.40627">
        <ele>86.8</ele>
        <time>2024-03-02T11:50:05Z</time>
      </trkpt>
      <trkpt lat="44.39572" lon="4.40602">
        <ele>86.9</ele>
        <time>2024-03-02T11:50:11Z</time>
      </trkpt>
      <trkpt lat="44.39587" lon="4.40581">
        <ele>87.6</ele>
        <time>2024-03-02T11:50:17Z</time>
      </trkpt>
      <trkpt lat="44.39601" lon="4.40565">
        <ele>88.4</ele>
        <time>2024-03-02T11:50:22Z</time>
      </trkpt>
      <trkpt lat="44.39616" lon="4.40547">
        <ele>89.4</ele>
        <time>2024-03-02T11:50:28Z</time>
      </trkpt>
      <trkpt lat="44.39631" lon="4.40526">
        <ele>90.8</ele>
        <time>2024-03-02T11:50:35Z</time>
      </trkpt>
      <trkpt lat="44.39644" lon="4.40508">
        <ele>92</ele>
        <time>2024-03-02T11:50:41Z</time>
      </trkpt>
      <trkpt lat="44.39656" lon="4.40485">
        <ele>92.9</ele>
        <time>2024-03-02T11:50:46Z</time>
      </trkpt>
      <trkpt lat="44.39668" lon="4.40463">
        <ele>93.4</ele>
        <time>2024-03-02T11:50:52Z</time>
      </trkpt>
      <trkpt lat="44.39678" lon="4.40442">
        <ele>93.5</ele>
        <time>2024-03-02T11:50:58Z</time>
      </trkpt>
      <trkpt lat="44.39689" lon="4.40421">
        <ele>93.5</ele>
        <time>2024-03-02T11:51:04Z</time>
      </trkpt>
      <trkpt lat="44.39702" lon="4.40401">
        <ele>93.4</ele>
        <time>2024-03-02T11:51:10Z</time>
      </trkpt>
      <trkpt lat="44.39716" lon="4.40381">
        <ele>93.4</ele>
        <time>2024-03-02T11:51:16Z</time>
      </trkpt>
      <trkpt lat="44.39731" lon="4.4036">
        <ele>93.4</ele>
        <time>2024-03-02T11:51:22Z</time>
      </trkpt>
      <trkpt lat="44.39745" lon="4.40339">
        <ele>93.3</ele>
        <time>2024-03-02T11:51:27Z</time>
      </trkpt>
      <trkpt lat="44.3976" lon="4.40319">
        <ele>93.2</ele>
        <time>2024-03-02T11:51:33Z</time>
      </trkpt>
      <trkpt lat="44.39773" lon="4.40298">
        <ele>93</ele>
        <time>2024-03-02T11:51:39Z</time>
      </trkpt>
      <trkpt lat="44.39788" lon="4.40279">
        <ele>93.1</ele>
        <time>2024-03-02T11:51:45Z</time>
      </trkpt>
      <trkpt lat="44.39805" lon="4.40274">
        <ele>93.5</ele>
        <time>2024-03-02T11:51:51Z</time>
      </trkpt>
      <trkpt lat="44.39826" lon="4.40269">
        <ele>94.2</ele>
        <time>2024-03-02T11:51:57Z</time>
      </trkpt>
      <trkpt lat="44.39846" lon="4.40266">
        <ele>95</ele>
        <time>2024-03-02T11:52:03Z</time>
      </trkpt>
      <trkpt lat="44.39865" lon="4.40268">
        <ele>96.7</ele>
        <time>2024-03-02T11:52:09Z</time>
      </trkpt>
      <trkpt lat="44.39881" lon="4.40257">
        <ele>99</ele>
        <time>2024-03-02T11:52:15Z</time>
      </trkpt>
      <trkpt lat="44.39892" lon="4.40236">
        <ele>101.6</ele>
        <time>2024-03-02T11:52:22Z</time>
      </trkpt>
      <trkpt lat="44.39903" lon="4.40214">
        <ele>104.5</ele>
        <time>2024-03-02T11:52:30Z</time>
      </trkpt>
      <trkpt lat="44.39916" lon="4.40195">
        <ele>107.1</ele>
        <time>2024-03-02T11:52:37Z</time>
      </trkpt>
      <trkpt lat="44.39932" lon="4.40179">
        <ele>109.8</ele>
        <time>2024-03-02T11:52:45Z</time>
      </trkpt>
      <trkpt lat="44.39947" lon="4.40163">
        <ele>112.5</ele>
        <time>2024-03-02T11:52:53Z</time>
      </trkpt>
      <trkpt lat="44.39963" lon="4.40148">
        <ele>115.3</ele>
        <time>2024-03-02T11:53:00Z</time>
      </trkpt>
      <trkpt lat="44.3997" lon="4.40122">
        <ele>117.9</ele>
        <time>2024-03-02T11:53:08Z</time>
      </trkpt>
      <trkpt lat="44.39971" lon="4.40094">
        <ele>119.4</ele>
        <time>2024-03-02T11:53:16Z</time>
      </trkpt>
      <trkpt lat="44.39968" lon="4.40067">
        <ele>118.4</ele>
        <time>2024-03-02T11:53:24Z</time>
      </trkpt>
      <trkpt lat="44.39962" lon="4.40041">
        <ele>117.9</ele>
        <time>2024-03-02T11:53:30Z</time>
      </trkpt>
      <trkpt lat="44.39958" lon="4.40014">
        <ele>118.3</ele>
        <time>2024-03-02T11:53:36Z</time>
      </trkpt>
      <trkpt lat="44.39951" lon="4.39989">
        <ele>118.7</ele>
        <time>2024-03-02T11:53:43Z</time>
      </trkpt>
      <trkpt lat="44.39941" lon="4.39965">
        <ele>117.1</ele>
        <time>2024-03-02T11:53:50Z</time>
      </trkpt>
      <trkpt lat="44.3994" lon="4.39938">
        <ele>114.7</ele>
        <time>2024-03-02T11:53:56Z</time>
      </trkpt>
      <trkpt lat="44.39937" lon="4.39913">
        <ele>112.2</ele>
        <time>2024-03-02T11:54:02Z</time>
      </trkpt>
      <trkpt lat="44.39937" lon="4.39885">
        <ele>110.3</ele>
        <time>2024-03-02T11:54:08Z</time>
      </trkpt>
      <trkpt lat="44.39938" lon="4.3986">
        <ele>109</ele>
        <time>2024-03-02T11:54:13Z</time>
      </trkpt>
      <trkpt lat="44.39938" lon="4.39831">
        <ele>107.8</ele>
        <time>2024-03-02T11:54:19Z</time>
      </trkpt>
      <trkpt lat="44.39938" lon="4.39805">
        <ele>106.6</ele>
        <time>2024-03-02T11:54:25Z</time>
      </trkpt>
      <trkpt lat="44.39936" lon="4.39778">
        <ele>104.4</ele>
        <time>2024-03-02T11:54:32Z</time>
      </trkpt>
      <trkpt lat="44.39932" lon="4.39752">
        <ele>102</ele>
        <time>2024-03-02T11:54:38Z</time>
      </trkpt>
      <trkpt lat="44.39925" lon="4.39725">
        <ele>99.7</ele>
        <time>2024-03-02T11:54:44Z</time>
      </trkpt>
      <trkpt lat="44.3992" lon="4.39701">
        <ele>97.9</ele>
        <time>2024-03-02T11:54:49Z</time>
      </trkpt>
      <trkpt lat="44.39916" lon="4.39672">
        <ele>96.2</ele>
        <time>2024-03-02T11:54:55Z</time>
      </trkpt>
      <trkpt lat="44.39915" lon="4.39645">
        <ele>94.7</ele>
        <time>2024-03-02T11:55:00Z</time>
      </trkpt>
      <trkpt lat="44.39909" lon="4.3962">
        <ele>93.2</ele>
        <time>2024-03-02T11:55:06Z</time>
      </trkpt>
      <trkpt lat="44.39902" lon="4.39592">
        <ele>91.7</ele>
        <time>2024-03-02T11:55:12Z</time>
      </trkpt>
      <trkpt lat="44.39899" lon="4.39567">
        <ele>91.2</ele>
        <time>2024-03-02T11:55:19Z</time>
      </trkpt>
      <trkpt lat="44.39882" lon="4.39551">
        <ele>91.3</ele>
        <time>2024-03-02T11:55:26Z</time>
      </trkpt>
      <trkpt lat="44.39869" lon="4.39529">
        <ele>91.4</ele>
        <time>2024-03-02T11:55:32Z</time>
      </trkpt>
      <trkpt lat="44.39866" lon="4.39502">
        <ele>91.3</ele>
        <time>2024-03-02T11:55:38Z</time>
      </trkpt>
      <trkpt lat="44.39867" lon="4.39475">
        <ele>91.3</ele>
        <time>2024-03-02T11:55:44Z</time>
      </trkpt>
      <trkpt lat="44.39859" lon="4.39451">
        <ele>91.1</ele>
        <time>2024-03-02T11:55:51Z</time>
      </trkpt>
      <trkpt lat="44.39841" lon="4.39441">
        <ele>90.7</ele>
        <time>2024-03-02T11:55:58Z</time>
      </trkpt>
      <trkpt lat="44.39824" lon="4.39434">
        <ele>90.3</ele>
        <time>2024-03-02T11:56:05Z</time>
      </trkpt>
      <trkpt lat="44.39806" lon="4.39422">
        <ele>89.6</ele>
        <time>2024-03-02T11:56:11Z</time>
      </trkpt>
      <trkpt lat="44.39791" lon="4.39402">
        <ele>88.7</ele>
        <time>2024-03-02T11:56:17Z</time>
      </trkpt>
      <trkpt lat="44.39778" lon="4.3938">
        <ele>87.8</ele>
        <time>2024-03-02T11:56:23Z</time>
      </trkpt>
      <trkpt lat="44.39767" lon="4.39358">
        <ele>87.8</ele>
        <time>2024-03-02T11:56:29Z</time>
      </trkpt>
      <trkpt lat="44.39763" lon="4.39329">
        <ele>87.9</ele>
        <time>2024-03-02T11:56:36Z</time>
      </trkpt>
      <trkpt lat="44.39758" lon="4.39303">
        <ele>88.2</ele>
        <time>2024-03-02T11:56:42Z</time>
      </trkpt>
      <trkpt lat="44.39753" lon="4.39277">
        <ele>88.4</ele>
        <time>2024-03-02T11:56:49Z</time>
      </trkpt>
      <trkpt lat="44.39748" lon="4.39249">
        <ele>88.6</ele>
        <time>2024-03-02T11:56:56Z</time>
      </trkpt>
      <trkpt lat="44.39744" lon="4.3922">
        <ele>89.1</ele>
        <time>2024-03-02T11:57:03Z</time>
      </trkpt>
      <trkpt lat="44.3974" lon="4.39191">
        <ele>89.4</ele>
        <time>2024-03-02T11:57:10Z</time>
      </trkpt>
      <trkpt lat="44.39738" lon="4.39162">
        <ele>89.3</ele>
        <time>2024-03-02T11:57:17Z</time>
      </trkpt>
      <trkpt lat="44.39738" lon="4.39134">
        <ele>89</ele>
        <time>2024-03-02T11:57:24Z</time>
      </trkpt>
      <trkpt lat="44.39731" lon="4.39109">
        <ele>88.7</ele>
        <time>2024-03-02T11:57:31Z</time>
      </trkpt>
      <trkpt lat="44.3972" lon="4.39086">
        <ele>88.7</ele>
        <time>2024-03-02T11:57:37Z</time>
      </trkpt>
      <trkpt lat="44.39709" lon="4.39062">
        <ele>88.8</ele>
        <time>2024-03-02T11:57:43Z</time>
      </trkpt>
      <trkpt lat="44.39699" lon="4.3904">
        <ele>88.9</ele>
        <time>2024-03-02T11:57:49Z</time>
      </trkpt>
      <trkpt lat="44.3969" lon="4.39017">
        <ele>88.9</ele>
        <time>2024-03-02T11:57:55Z</time>
      </trkpt>
      <trkpt lat="44.39683" lon="4.38991">
        <ele>88.9</ele>
        <time>2024-03-02T11:58:02Z</time>
      </trkpt>
      <trkpt lat="44.3969" lon="4.3897">
        <ele>89.3</ele>
        <time>2024-03-02T11:58:08Z</time>
      </trkpt>
      <trkpt lat="44.39708" lon="4.3896">
        <ele>89.8</ele>
        <time>2024-03-02T11:58:14Z</time>
      </trkpt>
      <trkpt lat="44.39727" lon="4.38953">
        <ele>91</ele>
        <time>2024-03-02T11:58:20Z</time>
      </trkpt>
      <trkpt lat="44.39745" lon="4.38944">
        <ele>92.5</ele>
        <time>2024-03-02T11:58:26Z</time>
      </trkpt>
      <trkpt lat="44.39764" lon="4.38934">
        <ele>93.6</ele>
        <time>2024-03-02T11:58:32Z</time>
      </trkpt>
      <trkpt lat="44.39783" lon="4.38924">
        <ele>93.6</ele>
        <time>2024-03-02T11:58:38Z</time>
      </trkpt>
      <trkpt lat="44.39802" lon="4.38915">
        <ele>93.5</ele>
        <time>2024-03-02T11:58:45Z</time>
      </trkpt>
      <trkpt lat="44.39818" lon="4.38906">
        <ele>93.6</ele>
        <time>2024-03-02T11:58:51Z</time>
      </trkpt>
      <trkpt lat="44.39825" lon="4.38905">
        <ele>93.7</ele>
        <time>2024-03-02T11:59:12Z</time>
      </trkpt>
      <trkpt lat="44.39836" lon="4.38881">
        <ele>94.4</ele>
        <time>2024-03-02T11:59:19Z</time>
      </trkpt>
      <trkpt lat="44.39845" lon="4.38855">
        <ele>95.6</ele>
        <time>2024-03-02T11:59:27Z</time>
      </trkpt>
      <trkpt lat="44.39837" lon="4.38831">
        <ele>97.2</ele>
        <time>2024-03-02T11:59:35Z</time>
      </trkpt>
      <trkpt lat="44.39833" lon="4.38804">
        <ele>97.9</ele>
        <time>2024-03-02T11:59:43Z</time>
      </trkpt>
      <trkpt lat="44.39831" lon="4.38787">
        <ele>98.3</ele>
        <time>2024-03-02T11:59:48Z</time>
      </trkpt>
    </trkseg>
  </trk>
</gpx>